<?xml version="1.0" encoding="UTF-8" standalone="no" ?>
<gpx xmlns="http://www.topografix.com/GPX/1/1" xmlns:xsi="http://www.w3.org/2001/XMLSchema-instance" xsi:schemaLocation="http://www.topografix.com/GPX/1/1 http://www.topografix.com/GPX/1/1/gpx.xsd" version="1.1" creator="VisuGPX - https://www.visugpx.com">
  <metadata>
    <name>Rando Fontainebleau 50km 2012</name>
    <desc><![CDATA[Très roulant malgré le sable. Pas de passage technique, ni de single.]]></desc>
  </metadata>
  <trk>
    <name><![CDATA[foret fontainebleau]]></name>
    <trkseg>
      <trkpt lat="48.40408" lon="2.68237">
        <ele>3.501953125</ele>
        <time>2012-03-25T06:45:42Z</time>
      </trkpt>
      <trkpt lat="48.40408" lon="2.68238">
        <ele>-19.088989257812</ele>
        <time>2012-03-25T06:45:43Z</time>
      </trkpt>
      <trkpt lat="48.40408" lon="2.68239">
        <ele>-19.088989257812</ele>
        <time>2012-03-25T06:45:44Z</time>
      </trkpt>
      <trkpt lat="48.40407" lon="2.6824">
        <ele>3.501953125</ele>
        <time>2012-03-25T06:45:46Z</time>
      </trkpt>
      <trkpt lat="48.40408" lon="2.68241">
        <ele>3.021240234375</ele>
        <time>2012-03-25T06:45:47Z</time>
      </trkpt>
      <trkpt lat="48.40418" lon="2.68241">
        <ele>3.501953125</ele>
        <time>2012-03-25T06:45:54Z</time>
      </trkpt>
      <trkpt lat="48.40429" lon="2.68252">
        <ele>3.982666015625</ele>
        <time>2012-03-25T06:45:59Z</time>
      </trkpt>
      <trkpt lat="48.40434" lon="2.68268">
        <ele>3.982666015625</ele>
        <time>2012-03-25T06:46:03Z</time>
      </trkpt>
      <trkpt lat="48.40435" lon="2.68277">
        <ele>4.4632568359375</ele>
        <time>2012-03-25T06:46:07Z</time>
      </trkpt>
      <trkpt lat="48.40435" lon="2.68281">
        <ele>4.94384765625</ele>
        <time>2012-03-25T06:46:33Z</time>
      </trkpt>
      <trkpt lat="48.40446" lon="2.68291">
        <ele>5.9052734375</ele>
        <time>2012-03-25T06:46:38Z</time>
      </trkpt>
      <trkpt lat="48.40449" lon="2.68293">
        <ele>5.424560546875</ele>
        <time>2012-03-25T06:46:39Z</time>
      </trkpt>
      <trkpt lat="48.40459" lon="2.68285">
        <ele>6.3858642578125</ele>
        <time>2012-03-25T06:46:43Z</time>
      </trkpt>
      <trkpt lat="48.4046" lon="2.6828">
        <ele>6.3858642578125</ele>
        <time>2012-03-25T06:46:44Z</time>
      </trkpt>
      <trkpt lat="48.40464" lon="2.68255">
        <ele>7.34716796875</ele>
        <time>2012-03-25T06:46:48Z</time>
      </trkpt>
      <trkpt lat="48.4047" lon="2.68226">
        <ele>7.827880859375</ele>
        <time>2012-03-25T06:46:52Z</time>
      </trkpt>
      <trkpt lat="48.40478" lon="2.68165">
        <ele>7.34716796875</ele>
        <time>2012-03-25T06:47:00Z</time>
      </trkpt>
      <trkpt lat="48.40485" lon="2.68119">
        <ele>8.30859375</ele>
        <time>2012-03-25T06:47:06Z</time>
      </trkpt>
      <trkpt lat="48.40495" lon="2.68053">
        <ele>8.7891845703125</ele>
        <time>2012-03-25T06:47:15Z</time>
      </trkpt>
      <trkpt lat="48.40505" lon="2.67993">
        <ele>9.7506103515625</ele>
        <time>2012-03-25T06:47:23Z</time>
      </trkpt>
      <trkpt lat="48.40516" lon="2.67915">
        <ele>10.711791992188</ele>
        <time>2012-03-25T06:47:33Z</time>
      </trkpt>
      <trkpt lat="48.40523" lon="2.67861">
        <ele>10.711791992188</ele>
        <time>2012-03-25T06:47:40Z</time>
      </trkpt>
      <trkpt lat="48.40529" lon="2.67801">
        <ele>11.673217773438</ele>
        <time>2012-03-25T06:47:48Z</time>
      </trkpt>
      <trkpt lat="48.40536" lon="2.67746">
        <ele>12.634399414062</ele>
        <time>2012-03-25T06:47:56Z</time>
      </trkpt>
      <trkpt lat="48.40537" lon="2.67739">
        <ele>12.15380859375</ele>
        <time>2012-03-25T06:47:57Z</time>
      </trkpt>
      <trkpt lat="48.40542" lon="2.67714">
        <ele>11.673217773438</ele>
        <time>2012-03-25T06:48:01Z</time>
      </trkpt>
      <trkpt lat="48.40544" lon="2.67701">
        <ele>12.15380859375</ele>
        <time>2012-03-25T06:48:03Z</time>
      </trkpt>
      <trkpt lat="48.40538" lon="2.67668">
        <ele>12.634399414062</ele>
        <time>2012-03-25T06:48:08Z</time>
      </trkpt>
      <trkpt lat="48.40514" lon="2.67622">
        <ele>12.634399414062</ele>
        <time>2012-03-25T06:48:15Z</time>
      </trkpt>
      <trkpt lat="48.40489" lon="2.67575">
        <ele>10.711791992188</ele>
        <time>2012-03-25T06:48:22Z</time>
      </trkpt>
      <trkpt lat="48.40462" lon="2.67525">
        <ele>11.673217773438</ele>
        <time>2012-03-25T06:48:30Z</time>
      </trkpt>
      <trkpt lat="48.40439" lon="2.6748">
        <ele>11.192504882812</ele>
        <time>2012-03-25T06:48:37Z</time>
      </trkpt>
      <trkpt lat="48.40411" lon="2.67429">
        <ele>11.673217773438</ele>
        <time>2012-03-25T06:48:45Z</time>
      </trkpt>
      <trkpt lat="48.40382" lon="2.67376">
        <ele>11.673217773438</ele>
        <time>2012-03-25T06:48:53Z</time>
      </trkpt>
      <trkpt lat="48.40357" lon="2.67328">
        <ele>11.192504882812</ele>
        <time>2012-03-25T06:49:00Z</time>
      </trkpt>
      <trkpt lat="48.40329" lon="2.67274">
        <ele>10.231201171875</ele>
        <time>2012-03-25T06:49:08Z</time>
      </trkpt>
      <trkpt lat="48.40304" lon="2.67227">
        <ele>9.7506103515625</ele>
        <time>2012-03-25T06:49:15Z</time>
      </trkpt>
      <trkpt lat="48.40271" lon="2.67163">
        <ele>10.711791992188</ele>
        <time>2012-03-25T06:49:25Z</time>
      </trkpt>
      <trkpt lat="48.40256" lon="2.67133">
        <ele>10.231201171875</ele>
        <time>2012-03-25T06:49:30Z</time>
      </trkpt>
      <trkpt lat="48.40222" lon="2.67071">
        <ele>11.192504882812</ele>
        <time>2012-03-25T06:49:40Z</time>
      </trkpt>
      <trkpt lat="48.40191" lon="2.67014">
        <ele>13.115112304688</ele>
        <time>2012-03-25T06:49:49Z</time>
      </trkpt>
      <trkpt lat="48.40166" lon="2.66971">
        <ele>13.595825195312</ele>
        <time>2012-03-25T06:49:56Z</time>
      </trkpt>
      <trkpt lat="48.40146" lon="2.66934">
        <ele>13.595825195312</ele>
        <time>2012-03-25T06:50:02Z</time>
      </trkpt>
      <trkpt lat="48.40124" lon="2.66891">
        <ele>13.115112304688</ele>
        <time>2012-03-25T06:50:09Z</time>
      </trkpt>
      <trkpt lat="48.40097" lon="2.66841">
        <ele>15.037719726562</ele>
        <time>2012-03-25T06:50:17Z</time>
      </trkpt>
      <trkpt lat="48.40094" lon="2.66835">
        <ele>14.557006835938</ele>
        <time>2012-03-25T06:50:18Z</time>
      </trkpt>
      <trkpt lat="48.40065" lon="2.66781">
        <ele>15.9990234375</ele>
        <time>2012-03-25T06:50:27Z</time>
      </trkpt>
      <trkpt lat="48.40046" lon="2.66744">
        <ele>15.518432617188</ele>
        <time>2012-03-25T06:50:33Z</time>
      </trkpt>
      <trkpt lat="48.40039" lon="2.66716">
        <ele>15.518432617188</ele>
        <time>2012-03-25T06:50:37Z</time>
      </trkpt>
      <trkpt lat="48.40038" lon="2.66701">
        <ele>15.9990234375</ele>
        <time>2012-03-25T06:50:39Z</time>
      </trkpt>
      <trkpt lat="48.40038" lon="2.66641">
        <ele>15.9990234375</ele>
        <time>2012-03-25T06:50:47Z</time>
      </trkpt>
      <trkpt lat="48.40038" lon="2.66633">
        <ele>16.96044921875</ele>
        <time>2012-03-25T06:50:48Z</time>
      </trkpt>
      <trkpt lat="48.40039" lon="2.66588">
        <ele>16.96044921875</ele>
        <time>2012-03-25T06:50:54Z</time>
      </trkpt>
      <trkpt lat="48.40042" lon="2.66537">
        <ele>16.96044921875</ele>
        <time>2012-03-25T06:51:01Z</time>
      </trkpt>
      <trkpt lat="48.40044" lon="2.66508">
        <ele>16.96044921875</ele>
        <time>2012-03-25T06:51:05Z</time>
      </trkpt>
      <trkpt lat="48.40046" lon="2.66455">
        <ele>18.40234375</ele>
        <time>2012-03-25T06:51:12Z</time>
      </trkpt>
      <trkpt lat="48.40049" lon="2.66396">
        <ele>18.40234375</ele>
        <time>2012-03-25T06:51:20Z</time>
      </trkpt>
      <trkpt lat="48.40052" lon="2.66343">
        <ele>18.40234375</ele>
        <time>2012-03-25T06:51:27Z</time>
      </trkpt>
      <trkpt lat="48.40054" lon="2.66315">
        <ele>18.40234375</ele>
        <time>2012-03-25T06:51:31Z</time>
      </trkpt>
      <trkpt lat="48.40055" lon="2.66256">
        <ele>19.844360351562</ele>
        <time>2012-03-25T06:51:39Z</time>
      </trkpt>
      <trkpt lat="48.40062" lon="2.66213">
        <ele>20.8056640625</ele>
        <time>2012-03-25T06:51:45Z</time>
      </trkpt>
      <trkpt lat="48.40056" lon="2.66191">
        <ele>21.286376953125</ele>
        <time>2012-03-25T06:51:49Z</time>
      </trkpt>
      <trkpt lat="48.40041" lon="2.66179">
        <ele>22.24755859375</ele>
        <time>2012-03-25T06:51:55Z</time>
      </trkpt>
      <trkpt lat="48.40026" lon="2.66174">
        <ele>23.689575195312</ele>
        <time>2012-03-25T06:52:02Z</time>
      </trkpt>
      <trkpt lat="48.4001" lon="2.66164">
        <ele>25.6123046875</ele>
        <time>2012-03-25T06:52:10Z</time>
      </trkpt>
      <trkpt lat="48.39996" lon="2.6616">
        <ele>26.573608398438</ele>
        <time>2012-03-25T06:52:18Z</time>
      </trkpt>
      <trkpt lat="48.39985" lon="2.66153">
        <ele>28.015502929688</ele>
        <time>2012-03-25T06:52:25Z</time>
      </trkpt>
      <trkpt lat="48.39974" lon="2.66148">
        <ele>31.380126953125</ele>
        <time>2012-03-25T06:52:32Z</time>
      </trkpt>
      <trkpt lat="48.39959" lon="2.66144">
        <ele>33.783447265625</ele>
        <time>2012-03-25T06:52:41Z</time>
      </trkpt>
      <trkpt lat="48.39947" lon="2.66146">
        <ele>36.186767578125</ele>
        <time>2012-03-25T06:52:48Z</time>
      </trkpt>
      <trkpt lat="48.39936" lon="2.66149">
        <ele>37.148071289062</ele>
        <time>2012-03-25T06:52:55Z</time>
      </trkpt>
      <trkpt lat="48.39928" lon="2.66157">
        <ele>39.070678710938</ele>
        <time>2012-03-25T06:53:01Z</time>
      </trkpt>
      <trkpt lat="48.39917" lon="2.66163">
        <ele>40.993408203125</ele>
        <time>2012-03-25T06:53:07Z</time>
      </trkpt>
      <trkpt lat="48.39916" lon="2.66164">
        <ele>40.993408203125</ele>
        <time>2012-03-25T06:53:08Z</time>
      </trkpt>
      <trkpt lat="48.39904" lon="2.6617">
        <ele>43.877319335938</ele>
        <time>2012-03-25T06:53:15Z</time>
      </trkpt>
      <trkpt lat="48.39896" lon="2.66169">
        <ele>45.799926757812</ele>
        <time>2012-03-25T06:53:22Z</time>
      </trkpt>
      <trkpt lat="48.3989" lon="2.66168">
        <ele>47.241821289062</ele>
        <time>2012-03-25T06:53:26Z</time>
      </trkpt>
      <trkpt lat="48.39883" lon="2.66166">
        <ele>50.606567382812</ele>
        <time>2012-03-25T06:53:32Z</time>
      </trkpt>
      <trkpt lat="48.39873" lon="2.66161">
        <ele>52.048583984375</ele>
        <time>2012-03-25T06:53:39Z</time>
      </trkpt>
      <trkpt lat="48.39861" lon="2.66158">
        <ele>53.009765625</ele>
        <time>2012-03-25T06:53:46Z</time>
      </trkpt>
      <trkpt lat="48.39846" lon="2.66156">
        <ele>52.529174804688</ele>
        <time>2012-03-25T06:53:51Z</time>
      </trkpt>
      <trkpt lat="48.39825" lon="2.66155">
        <ele>48.683959960938</ele>
        <time>2012-03-25T06:53:54Z</time>
      </trkpt>
      <trkpt lat="48.39796" lon="2.66152">
        <ele>43.396606445312</ele>
        <time>2012-03-25T06:53:57Z</time>
      </trkpt>
      <trkpt lat="48.39765" lon="2.66145">
        <ele>39.55126953125</ele>
        <time>2012-03-25T06:54:00Z</time>
      </trkpt>
      <trkpt lat="48.39743" lon="2.66139">
        <ele>35.7060546875</ele>
        <time>2012-03-25T06:54:02Z</time>
      </trkpt>
      <trkpt lat="48.39704" lon="2.6611">
        <ele>32.822265625</ele>
        <time>2012-03-25T06:54:06Z</time>
      </trkpt>
      <trkpt lat="48.39688" lon="2.66093">
        <ele>30.418823242188</ele>
        <time>2012-03-25T06:54:08Z</time>
      </trkpt>
      <trkpt lat="48.39673" lon="2.6605">
        <ele>28.015502929688</ele>
        <time>2012-03-25T06:54:12Z</time>
      </trkpt>
      <trkpt lat="48.39663" lon="2.66015">
        <ele>26.573608398438</ele>
        <time>2012-03-25T06:54:15Z</time>
      </trkpt>
      <trkpt lat="48.39647" lon="2.6596">
        <ele>25.131713867188</ele>
        <time>2012-03-25T06:54:20Z</time>
      </trkpt>
      <trkpt lat="48.3964" lon="2.65941">
        <ele>26.092895507812</ele>
        <time>2012-03-25T06:54:22Z</time>
      </trkpt>
      <trkpt lat="48.3964" lon="2.65903">
        <ele>24.651000976562</ele>
        <time>2012-03-25T06:54:26Z</time>
      </trkpt>
      <trkpt lat="48.39654" lon="2.65847">
        <ele>24.651000976562</ele>
        <time>2012-03-25T06:54:33Z</time>
      </trkpt>
      <trkpt lat="48.39659" lon="2.65819">
        <ele>24.651000976562</ele>
        <time>2012-03-25T06:54:37Z</time>
      </trkpt>
      <trkpt lat="48.39662" lon="2.65806">
        <ele>24.651000976562</ele>
        <time>2012-03-25T06:54:39Z</time>
      </trkpt>
      <trkpt lat="48.39669" lon="2.65772">
        <ele>26.092895507812</ele>
        <time>2012-03-25T06:54:44Z</time>
      </trkpt>
      <trkpt lat="48.39679" lon="2.65729">
        <ele>26.573608398438</ele>
        <time>2012-03-25T06:54:51Z</time>
      </trkpt>
      <trkpt lat="48.39687" lon="2.65684">
        <ele>25.131713867188</ele>
        <time>2012-03-25T06:54:57Z</time>
      </trkpt>
      <trkpt lat="48.3969" lon="2.65667">
        <ele>24.170288085938</ele>
        <time>2012-03-25T06:54:59Z</time>
      </trkpt>
      <trkpt lat="48.39691" lon="2.65651">
        <ele>24.170288085938</ele>
        <time>2012-03-25T06:55:01Z</time>
      </trkpt>
      <trkpt lat="48.39693" lon="2.65635">
        <ele>24.170288085938</ele>
        <time>2012-03-25T06:55:03Z</time>
      </trkpt>
      <trkpt lat="48.39702" lon="2.65591">
        <ele>24.170288085938</ele>
        <time>2012-03-25T06:55:10Z</time>
      </trkpt>
      <trkpt lat="48.39705" lon="2.65559">
        <ele>25.131713867188</ele>
        <time>2012-03-25T06:55:15Z</time>
      </trkpt>
      <trkpt lat="48.39708" lon="2.65529">
        <ele>25.131713867188</ele>
        <time>2012-03-25T06:55:20Z</time>
      </trkpt>
      <trkpt lat="48.39711" lon="2.655">
        <ele>25.6123046875</ele>
        <time>2012-03-25T06:55:26Z</time>
      </trkpt>
      <trkpt lat="48.39713" lon="2.65486">
        <ele>27.054321289062</ele>
        <time>2012-03-25T06:55:29Z</time>
      </trkpt>
      <trkpt lat="48.39716" lon="2.65458">
        <ele>27.534912109375</ele>
        <time>2012-03-25T06:55:35Z</time>
      </trkpt>
      <trkpt lat="48.39722" lon="2.6542">
        <ele>27.054321289062</ele>
        <time>2012-03-25T06:55:42Z</time>
      </trkpt>
      <trkpt lat="48.39728" lon="2.65389">
        <ele>27.534912109375</ele>
        <time>2012-03-25T06:55:48Z</time>
      </trkpt>
      <trkpt lat="48.39732" lon="2.65351">
        <ele>28.976928710938</ele>
        <time>2012-03-25T06:55:55Z</time>
      </trkpt>
      <trkpt lat="48.39738" lon="2.65309">
        <ele>29.938110351562</ele>
        <time>2012-03-25T06:56:02Z</time>
      </trkpt>
      <trkpt lat="48.39741" lon="2.65278">
        <ele>30.418823242188</ele>
        <time>2012-03-25T06:56:07Z</time>
      </trkpt>
      <trkpt lat="48.39745" lon="2.65239">
        <ele>30.899536132812</ele>
        <time>2012-03-25T06:56:13Z</time>
      </trkpt>
      <trkpt lat="48.39746" lon="2.65225">
        <ele>30.899536132812</ele>
        <time>2012-03-25T06:56:15Z</time>
      </trkpt>
      <trkpt lat="48.3975" lon="2.6518">
        <ele>30.899536132812</ele>
        <time>2012-03-25T06:56:21Z</time>
      </trkpt>
      <trkpt lat="48.39752" lon="2.65159">
        <ele>31.380126953125</ele>
        <time>2012-03-25T06:56:24Z</time>
      </trkpt>
      <trkpt lat="48.39757" lon="2.65107">
        <ele>32.822265625</ele>
        <time>2012-03-25T06:56:32Z</time>
      </trkpt>
      <trkpt lat="48.3976" lon="2.65078">
        <ele>33.302856445312</ele>
        <time>2012-03-25T06:56:37Z</time>
      </trkpt>
      <trkpt lat="48.39764" lon="2.65038">
        <ele>33.783447265625</ele>
        <time>2012-03-25T06:56:44Z</time>
      </trkpt>
      <trkpt lat="48.39769" lon="2.64999">
        <ele>33.783447265625</ele>
        <time>2012-03-25T06:56:51Z</time>
      </trkpt>
      <trkpt lat="48.39774" lon="2.64957">
        <ele>35.225463867188</ele>
        <time>2012-03-25T06:56:58Z</time>
      </trkpt>
      <trkpt lat="48.39777" lon="2.64927">
        <ele>35.7060546875</ele>
        <time>2012-03-25T06:57:03Z</time>
      </trkpt>
      <trkpt lat="48.39782" lon="2.64881">
        <ele>36.66748046875</ele>
        <time>2012-03-25T06:57:11Z</time>
      </trkpt>
      <trkpt lat="48.39785" lon="2.64848">
        <ele>37.148071289062</ele>
        <time>2012-03-25T06:57:17Z</time>
      </trkpt>
      <trkpt lat="48.39789" lon="2.64819">
        <ele>39.070678710938</ele>
        <time>2012-03-25T06:57:23Z</time>
      </trkpt>
      <trkpt lat="48.39793" lon="2.64778">
        <ele>40.993408203125</ele>
        <time>2012-03-25T06:57:32Z</time>
      </trkpt>
      <trkpt lat="48.39792" lon="2.64755">
        <ele>40.993408203125</ele>
        <time>2012-03-25T06:57:37Z</time>
      </trkpt>
      <trkpt lat="48.39787" lon="2.6471">
        <ele>40.032104492188</ele>
        <time>2012-03-25T06:57:44Z</time>
      </trkpt>
      <trkpt lat="48.39778" lon="2.64679">
        <ele>39.55126953125</ele>
        <time>2012-03-25T06:57:48Z</time>
      </trkpt>
      <trkpt lat="48.39772" lon="2.64641">
        <ele>37.628662109375</ele>
        <time>2012-03-25T06:57:52Z</time>
      </trkpt>
      <trkpt lat="48.39771" lon="2.64599">
        <ele>37.628662109375</ele>
        <time>2012-03-25T06:57:57Z</time>
      </trkpt>
      <trkpt lat="48.39772" lon="2.64549">
        <ele>38.590087890625</ele>
        <time>2012-03-25T06:58:04Z</time>
      </trkpt>
      <trkpt lat="48.39772" lon="2.64506">
        <ele>37.628662109375</ele>
        <time>2012-03-25T06:58:10Z</time>
      </trkpt>
      <trkpt lat="48.39773" lon="2.64467">
        <ele>37.148071289062</ele>
        <time>2012-03-25T06:58:15Z</time>
      </trkpt>
      <trkpt lat="48.39772" lon="2.64415">
        <ele>38.590087890625</ele>
        <time>2012-03-25T06:58:22Z</time>
      </trkpt>
      <trkpt lat="48.39772" lon="2.64388">
        <ele>39.070678710938</ele>
        <time>2012-03-25T06:58:26Z</time>
      </trkpt>
      <trkpt lat="48.39771" lon="2.64361">
        <ele>38.109375</ele>
        <time>2012-03-25T06:58:30Z</time>
      </trkpt>
      <trkpt lat="48.39771" lon="2.64346">
        <ele>37.628662109375</ele>
        <time>2012-03-25T06:58:32Z</time>
      </trkpt>
      <trkpt lat="48.39769" lon="2.64332">
        <ele>38.109375</ele>
        <time>2012-03-25T06:58:34Z</time>
      </trkpt>
      <trkpt lat="48.39769" lon="2.64318">
        <ele>38.109375</ele>
        <time>2012-03-25T06:58:36Z</time>
      </trkpt>
      <trkpt lat="48.39775" lon="2.64276">
        <ele>38.590087890625</ele>
        <time>2012-03-25T06:58:42Z</time>
      </trkpt>
      <trkpt lat="48.39782" lon="2.64239">
        <ele>39.070678710938</ele>
        <time>2012-03-25T06:58:49Z</time>
      </trkpt>
      <trkpt lat="48.39786" lon="2.64207">
        <ele>40.032104492188</ele>
        <time>2012-03-25T06:58:55Z</time>
      </trkpt>
      <trkpt lat="48.39791" lon="2.64168">
        <ele>40.993408203125</ele>
        <time>2012-03-25T06:59:02Z</time>
      </trkpt>
      <trkpt lat="48.39795" lon="2.64133">
        <ele>41.954711914062</ele>
        <time>2012-03-25T06:59:08Z</time>
      </trkpt>
      <trkpt lat="48.39801" lon="2.64085">
        <ele>43.396606445312</ele>
        <time>2012-03-25T06:59:16Z</time>
      </trkpt>
      <trkpt lat="48.39806" lon="2.64044">
        <ele>44.358032226562</ele>
        <time>2012-03-25T06:59:23Z</time>
      </trkpt>
      <trkpt lat="48.39809" lon="2.64013">
        <ele>44.358032226562</ele>
        <time>2012-03-25T06:59:29Z</time>
      </trkpt>
      <trkpt lat="48.39812" lon="2.63984">
        <ele>45.319213867188</ele>
        <time>2012-03-25T06:59:35Z</time>
      </trkpt>
      <trkpt lat="48.39815" lon="2.63953">
        <ele>45.799926757812</ele>
        <time>2012-03-25T06:59:41Z</time>
      </trkpt>
      <trkpt lat="48.39817" lon="2.63935">
        <ele>46.280639648438</ele>
        <time>2012-03-25T06:59:45Z</time>
      </trkpt>
      <trkpt lat="48.39819" lon="2.63911">
        <ele>46.280639648438</ele>
        <time>2012-03-25T06:59:50Z</time>
      </trkpt>
      <trkpt lat="48.39822" lon="2.63877">
        <ele>46.76123046875</ele>
        <time>2012-03-25T06:59:57Z</time>
      </trkpt>
      <trkpt lat="48.39824" lon="2.63843">
        <ele>47.722534179688</ele>
        <time>2012-03-25T07:00:04Z</time>
      </trkpt>
      <trkpt lat="48.39825" lon="2.63805">
        <ele>49.16455078125</ele>
        <time>2012-03-25T07:00:12Z</time>
      </trkpt>
      <trkpt lat="48.39824" lon="2.63778">
        <ele>50.1259765625</ele>
        <time>2012-03-25T07:00:18Z</time>
      </trkpt>
      <trkpt lat="48.39819" lon="2.63762">
        <ele>50.606567382812</ele>
        <time>2012-03-25T07:00:23Z</time>
      </trkpt>
      <trkpt lat="48.39808" lon="2.6374">
        <ele>51.087158203125</ele>
        <time>2012-03-25T07:00:30Z</time>
      </trkpt>
      <trkpt lat="48.39799" lon="2.63718">
        <ele>52.529174804688</ele>
        <time>2012-03-25T07:00:37Z</time>
      </trkpt>
      <trkpt lat="48.39793" lon="2.63702">
        <ele>53.97119140625</ele>
        <time>2012-03-25T07:00:43Z</time>
      </trkpt>
      <trkpt lat="48.39784" lon="2.63684">
        <ele>55.893798828125</ele>
        <time>2012-03-25T07:00:51Z</time>
      </trkpt>
      <trkpt lat="48.39778" lon="2.6367">
        <ele>57.816528320312</ele>
        <time>2012-03-25T07:00:56Z</time>
      </trkpt>
      <trkpt lat="48.39769" lon="2.63653">
        <ele>58.777709960938</ele>
        <time>2012-03-25T07:01:03Z</time>
      </trkpt>
      <trkpt lat="48.3976" lon="2.63637">
        <ele>59.739135742188</ele>
        <time>2012-03-25T07:01:10Z</time>
      </trkpt>
      <trkpt lat="48.39751" lon="2.63631">
        <ele>60.700317382812</ele>
        <time>2012-03-25T07:01:16Z</time>
      </trkpt>
      <trkpt lat="48.39745" lon="2.63632">
        <ele>62.622924804688</ele>
        <time>2012-03-25T07:01:20Z</time>
      </trkpt>
      <trkpt lat="48.39738" lon="2.63636">
        <ele>64.065063476562</ele>
        <time>2012-03-25T07:01:24Z</time>
      </trkpt>
      <trkpt lat="48.39729" lon="2.63646">
        <ele>65.0263671875</ele>
        <time>2012-03-25T07:01:31Z</time>
      </trkpt>
      <trkpt lat="48.39719" lon="2.6365">
        <ele>65.987670898438</ele>
        <time>2012-03-25T07:01:37Z</time>
      </trkpt>
      <trkpt lat="48.39711" lon="2.63646">
        <ele>67.4296875</ele>
        <time>2012-03-25T07:01:42Z</time>
      </trkpt>
      <trkpt lat="48.397" lon="2.6363">
        <ele>69.352294921875</ele>
        <time>2012-03-25T07:01:51Z</time>
      </trkpt>
      <trkpt lat="48.39694" lon="2.63608">
        <ele>70.794189453125</ele>
        <time>2012-03-25T07:02:00Z</time>
      </trkpt>
      <trkpt lat="48.3969" lon="2.63593">
        <ele>71.27490234375</ele>
        <time>2012-03-25T07:02:06Z</time>
      </trkpt>
      <trkpt lat="48.39687" lon="2.63576">
        <ele>74.158813476562</ele>
        <time>2012-03-25T07:02:13Z</time>
      </trkpt>
      <trkpt lat="48.39685" lon="2.63571">
        <ele>75.120239257812</ele>
        <time>2012-03-25T07:02:15Z</time>
      </trkpt>
      <trkpt lat="48.39682" lon="2.63555">
        <ele>76.081420898438</ele>
        <time>2012-03-25T07:02:22Z</time>
      </trkpt>
      <trkpt lat="48.39679" lon="2.63539">
        <ele>77.5234375</ele>
        <time>2012-03-25T07:02:28Z</time>
      </trkpt>
      <trkpt lat="48.39678" lon="2.63537">
        <ele>77.5234375</ele>
        <time>2012-03-25T07:02:29Z</time>
      </trkpt>
      <trkpt lat="48.39676" lon="2.63534">
        <ele>78.484741210938</ele>
        <time>2012-03-25T07:02:31Z</time>
      </trkpt>
      <trkpt lat="48.39661" lon="2.63532">
        <ele>79.926635742188</ele>
        <time>2012-03-25T07:02:39Z</time>
      </trkpt>
      <trkpt lat="48.3965" lon="2.63529">
        <ele>80.88818359375</ele>
        <time>2012-03-25T07:02:45Z</time>
      </trkpt>
      <trkpt lat="48.39633" lon="2.63527">
        <ele>82.330078125</ele>
        <time>2012-03-25T07:02:53Z</time>
      </trkpt>
      <trkpt lat="48.39621" lon="2.63525">
        <ele>84.252685546875</ele>
        <time>2012-03-25T07:02:59Z</time>
      </trkpt>
      <trkpt lat="48.39602" lon="2.63525">
        <ele>84.7333984375</ele>
        <time>2012-03-25T07:03:08Z</time>
      </trkpt>
      <trkpt lat="48.3959" lon="2.63524">
        <ele>85.213989257812</ele>
        <time>2012-03-25T07:03:14Z</time>
      </trkpt>
      <trkpt lat="48.39574" lon="2.63526">
        <ele>85.213989257812</ele>
        <time>2012-03-25T07:03:21Z</time>
      </trkpt>
      <trkpt lat="48.39557" lon="2.63528">
        <ele>85.694580078125</ele>
        <time>2012-03-25T07:03:29Z</time>
      </trkpt>
      <trkpt lat="48.39542" lon="2.63524">
        <ele>86.17529296875</ele>
        <time>2012-03-25T07:03:35Z</time>
      </trkpt>
      <trkpt lat="48.39525" lon="2.63509">
        <ele>86.656005859375</ele>
        <time>2012-03-25T07:03:42Z</time>
      </trkpt>
      <trkpt lat="48.39517" lon="2.63494">
        <ele>87.6171875</ele>
        <time>2012-03-25T07:03:46Z</time>
      </trkpt>
      <trkpt lat="48.39506" lon="2.63452">
        <ele>88.098022460938</ele>
        <time>2012-03-25T07:03:54Z</time>
      </trkpt>
      <trkpt lat="48.39497" lon="2.63413">
        <ele>89.059326171875</ele>
        <time>2012-03-25T07:04:01Z</time>
      </trkpt>
      <trkpt lat="48.39488" lon="2.63371">
        <ele>89.539916992188</ele>
        <time>2012-03-25T07:04:09Z</time>
      </trkpt>
      <trkpt lat="48.39479" lon="2.63334">
        <ele>89.539916992188</ele>
        <time>2012-03-25T07:04:16Z</time>
      </trkpt>
      <trkpt lat="48.39469" lon="2.63294">
        <ele>89.539916992188</ele>
        <time>2012-03-25T07:04:23Z</time>
      </trkpt>
      <trkpt lat="48.39458" lon="2.63246">
        <ele>90.020629882812</ele>
        <time>2012-03-25T07:04:31Z</time>
      </trkpt>
      <trkpt lat="48.39447" lon="2.63197">
        <ele>90.020629882812</ele>
        <time>2012-03-25T07:04:39Z</time>
      </trkpt>
      <trkpt lat="48.39438" lon="2.63173">
        <ele>90.020629882812</ele>
        <time>2012-03-25T07:04:43Z</time>
      </trkpt>
      <trkpt lat="48.3943" lon="2.63148">
        <ele>90.020629882812</ele>
        <time>2012-03-25T07:04:47Z</time>
      </trkpt>
      <trkpt lat="48.39418" lon="2.63132">
        <ele>89.539916992188</ele>
        <time>2012-03-25T07:04:51Z</time>
      </trkpt>
      <trkpt lat="48.39413" lon="2.63132">
        <ele>89.539916992188</ele>
        <time>2012-03-25T07:04:52Z</time>
      </trkpt>
      <trkpt lat="48.39381" lon="2.63133">
        <ele>89.059326171875</ele>
        <time>2012-03-25T07:04:59Z</time>
      </trkpt>
      <trkpt lat="48.39355" lon="2.63142">
        <ele>88.578735351562</ele>
        <time>2012-03-25T07:05:04Z</time>
      </trkpt>
      <trkpt lat="48.39334" lon="2.63167">
        <ele>88.098022460938</ele>
        <time>2012-03-25T07:05:09Z</time>
      </trkpt>
      <trkpt lat="48.39335" lon="2.63192">
        <ele>87.136596679688</ele>
        <time>2012-03-25T07:05:12Z</time>
      </trkpt>
      <trkpt lat="48.39335" lon="2.63201">
        <ele>87.136596679688</ele>
        <time>2012-03-25T07:05:13Z</time>
      </trkpt>
      <trkpt lat="48.39333" lon="2.63242">
        <ele>85.213989257812</ele>
        <time>2012-03-25T07:05:17Z</time>
      </trkpt>
      <trkpt lat="48.3933" lon="2.63289">
        <ele>81.368774414062</ele>
        <time>2012-03-25T07:05:21Z</time>
      </trkpt>
      <trkpt lat="48.3933" lon="2.63302">
        <ele>81.849365234375</ele>
        <time>2012-03-25T07:05:22Z</time>
      </trkpt>
      <trkpt lat="48.39331" lon="2.63318">
        <ele>79.926635742188</ele>
        <time>2012-03-25T07:05:23Z</time>
      </trkpt>
      <trkpt lat="48.39326" lon="2.63389">
        <ele>78.004028320312</ele>
        <time>2012-03-25T07:05:28Z</time>
      </trkpt>
      <trkpt lat="48.39325" lon="2.63401">
        <ele>77.5234375</ele>
        <time>2012-03-25T07:05:29Z</time>
      </trkpt>
      <trkpt lat="48.39319" lon="2.63443">
        <ele>76.562133789062</ele>
        <time>2012-03-25T07:05:32Z</time>
      </trkpt>
      <trkpt lat="48.39301" lon="2.63527">
        <ele>74.639526367188</ele>
        <time>2012-03-25T07:05:39Z</time>
      </trkpt>
      <trkpt lat="48.39299" lon="2.63568">
        <ele>72.236206054688</ele>
        <time>2012-03-25T07:05:43Z</time>
      </trkpt>
      <trkpt lat="48.39304" lon="2.63606">
        <ele>69.352294921875</ele>
        <time>2012-03-25T07:05:46Z</time>
      </trkpt>
      <trkpt lat="48.3931" lon="2.63632">
        <ele>68.87158203125</ele>
        <time>2012-03-25T07:05:48Z</time>
      </trkpt>
      <trkpt lat="48.39314" lon="2.63645">
        <ele>68.390869140625</ele>
        <time>2012-03-25T07:05:49Z</time>
      </trkpt>
      <trkpt lat="48.39315" lon="2.63696">
        <ele>65.507080078125</ele>
        <time>2012-03-25T07:05:53Z</time>
      </trkpt>
      <trkpt lat="48.39314" lon="2.63708">
        <ele>65.0263671875</ele>
        <time>2012-03-25T07:05:54Z</time>
      </trkpt>
      <trkpt lat="48.39291" lon="2.63743">
        <ele>60.700317382812</ele>
        <time>2012-03-25T07:05:58Z</time>
      </trkpt>
      <trkpt lat="48.39284" lon="2.63751">
        <ele>60.2197265625</ele>
        <time>2012-03-25T07:05:59Z</time>
      </trkpt>
      <trkpt lat="48.39267" lon="2.6378">
        <ele>59.258422851562</ele>
        <time>2012-03-25T07:06:02Z</time>
      </trkpt>
      <trkpt lat="48.39263" lon="2.63824">
        <ele>58.297119140625</ele>
        <time>2012-03-25T07:06:06Z</time>
      </trkpt>
      <trkpt lat="48.39264" lon="2.63834">
        <ele>58.297119140625</ele>
        <time>2012-03-25T07:06:07Z</time>
      </trkpt>
      <trkpt lat="48.39268" lon="2.6389">
        <ele>56.37451171875</ele>
        <time>2012-03-25T07:06:12Z</time>
      </trkpt>
      <trkpt lat="48.39268" lon="2.63903">
        <ele>57.335815429688</ele>
        <time>2012-03-25T07:06:13Z</time>
      </trkpt>
      <trkpt lat="48.39268" lon="2.6394">
        <ele>55.893798828125</ele>
        <time>2012-03-25T07:06:16Z</time>
      </trkpt>
      <trkpt lat="48.3927" lon="2.64012">
        <ele>54.932373046875</ele>
        <time>2012-03-25T07:06:22Z</time>
      </trkpt>
      <trkpt lat="48.39268" lon="2.64059">
        <ele>53.009765625</ele>
        <time>2012-03-25T07:06:26Z</time>
      </trkpt>
      <trkpt lat="48.39267" lon="2.6407">
        <ele>53.490478515625</ele>
        <time>2012-03-25T07:06:27Z</time>
      </trkpt>
      <trkpt lat="48.39267" lon="2.64141">
        <ele>51.56787109375</ele>
        <time>2012-03-25T07:06:34Z</time>
      </trkpt>
      <trkpt lat="48.39269" lon="2.6418">
        <ele>50.1259765625</ele>
        <time>2012-03-25T07:06:38Z</time>
      </trkpt>
      <trkpt lat="48.3927" lon="2.6421">
        <ele>50.1259765625</ele>
        <time>2012-03-25T07:06:41Z</time>
      </trkpt>
      <trkpt lat="48.3927" lon="2.6423">
        <ele>49.645263671875</ele>
        <time>2012-03-25T07:06:43Z</time>
      </trkpt>
      <trkpt lat="48.39265" lon="2.64268">
        <ele>47.722534179688</ele>
        <time>2012-03-25T07:06:47Z</time>
      </trkpt>
      <trkpt lat="48.3926" lon="2.64305">
        <ele>46.76123046875</ele>
        <time>2012-03-25T07:06:51Z</time>
      </trkpt>
      <trkpt lat="48.3925" lon="2.64372">
        <ele>47.722534179688</ele>
        <time>2012-03-25T07:06:58Z</time>
      </trkpt>
      <trkpt lat="48.39249" lon="2.64381">
        <ele>45.799926757812</ele>
        <time>2012-03-25T07:06:59Z</time>
      </trkpt>
      <trkpt lat="48.39241" lon="2.64429">
        <ele>47.241821289062</ele>
        <time>2012-03-25T07:07:04Z</time>
      </trkpt>
      <trkpt lat="48.3924" lon="2.64437">
        <ele>46.76123046875</ele>
        <time>2012-03-25T07:07:05Z</time>
      </trkpt>
      <trkpt lat="48.39238" lon="2.64454">
        <ele>46.280639648438</ele>
        <time>2012-03-25T07:07:07Z</time>
      </trkpt>
      <trkpt lat="48.39235" lon="2.64469">
        <ele>46.280639648438</ele>
        <time>2012-03-25T07:07:09Z</time>
      </trkpt>
      <trkpt lat="48.39233" lon="2.64501">
        <ele>45.799926757812</ele>
        <time>2012-03-25T07:07:13Z</time>
      </trkpt>
      <trkpt lat="48.39228" lon="2.64543">
        <ele>45.799926757812</ele>
        <time>2012-03-25T07:07:19Z</time>
      </trkpt>
      <trkpt lat="48.39225" lon="2.64567">
        <ele>46.280639648438</ele>
        <time>2012-03-25T07:07:23Z</time>
      </trkpt>
      <trkpt lat="48.39224" lon="2.6458">
        <ele>45.799926757812</ele>
        <time>2012-03-25T07:07:25Z</time>
      </trkpt>
      <trkpt lat="48.39217" lon="2.64639">
        <ele>44.838623046875</ele>
        <time>2012-03-25T07:07:34Z</time>
      </trkpt>
      <trkpt lat="48.39212" lon="2.6467">
        <ele>44.358032226562</ele>
        <time>2012-03-25T07:07:39Z</time>
      </trkpt>
      <trkpt lat="48.39209" lon="2.64683">
        <ele>44.838623046875</ele>
        <time>2012-03-25T07:07:41Z</time>
      </trkpt>
      <trkpt lat="48.39203" lon="2.64718">
        <ele>43.396606445312</ele>
        <time>2012-03-25T07:07:47Z</time>
      </trkpt>
      <trkpt lat="48.39202" lon="2.64724">
        <ele>43.877319335938</ele>
        <time>2012-03-25T07:07:48Z</time>
      </trkpt>
      <trkpt lat="48.39199" lon="2.64746">
        <ele>43.877319335938</ele>
        <time>2012-03-25T07:07:51Z</time>
      </trkpt>
      <trkpt lat="48.39196" lon="2.64788">
        <ele>43.877319335938</ele>
        <time>2012-03-25T07:07:56Z</time>
      </trkpt>
      <trkpt lat="48.39188" lon="2.6483">
        <ele>43.396606445312</ele>
        <time>2012-03-25T07:08:01Z</time>
      </trkpt>
      <trkpt lat="48.39184" lon="2.64857">
        <ele>42.916015625</ele>
        <time>2012-03-25T07:08:04Z</time>
      </trkpt>
      <trkpt lat="48.39178" lon="2.64893">
        <ele>42.916015625</ele>
        <time>2012-03-25T07:08:10Z</time>
      </trkpt>
      <trkpt lat="48.39175" lon="2.64945">
        <ele>42.435424804688</ele>
        <time>2012-03-25T07:08:18Z</time>
      </trkpt>
      <trkpt lat="48.39172" lon="2.6497">
        <ele>42.435424804688</ele>
        <time>2012-03-25T07:08:22Z</time>
      </trkpt>
      <trkpt lat="48.39169" lon="2.65016">
        <ele>42.916015625</ele>
        <time>2012-03-25T07:08:28Z</time>
      </trkpt>
      <trkpt lat="48.39166" lon="2.65034">
        <ele>42.435424804688</ele>
        <time>2012-03-25T07:08:30Z</time>
      </trkpt>
      <trkpt lat="48.39157" lon="2.65069">
        <ele>43.396606445312</ele>
        <time>2012-03-25T07:08:35Z</time>
      </trkpt>
      <trkpt lat="48.39148" lon="2.65066">
        <ele>43.396606445312</ele>
        <time>2012-03-25T07:08:37Z</time>
      </trkpt>
      <trkpt lat="48.39144" lon="2.65064">
        <ele>43.396606445312</ele>
        <time>2012-03-25T07:08:38Z</time>
      </trkpt>
      <trkpt lat="48.39122" lon="2.6506">
        <ele>44.358032226562</ele>
        <time>2012-03-25T07:08:45Z</time>
      </trkpt>
      <trkpt lat="48.39097" lon="2.65053">
        <ele>47.241821289062</ele>
        <time>2012-03-25T07:08:53Z</time>
      </trkpt>
      <trkpt lat="48.3908" lon="2.6505">
        <ele>48.683959960938</ele>
        <time>2012-03-25T07:09:00Z</time>
      </trkpt>
      <trkpt lat="48.39064" lon="2.65046">
        <ele>50.606567382812</ele>
        <time>2012-03-25T07:09:07Z</time>
      </trkpt>
      <trkpt lat="48.39056" lon="2.65045">
        <ele>53.009765625</ele>
        <time>2012-03-25T07:09:11Z</time>
      </trkpt>
      <trkpt lat="48.39047" lon="2.65043">
        <ele>53.490478515625</ele>
        <time>2012-03-25T07:09:17Z</time>
      </trkpt>
      <trkpt lat="48.39041" lon="2.65029">
        <ele>54.932373046875</ele>
        <time>2012-03-25T07:09:23Z</time>
      </trkpt>
      <trkpt lat="48.39035" lon="2.65009">
        <ele>55.893798828125</ele>
        <time>2012-03-25T07:09:30Z</time>
      </trkpt>
      <trkpt lat="48.39025" lon="2.64985">
        <ele>57.335815429688</ele>
        <time>2012-03-25T07:09:38Z</time>
      </trkpt>
      <trkpt lat="48.39016" lon="2.64963">
        <ele>58.297119140625</ele>
        <time>2012-03-25T07:09:45Z</time>
      </trkpt>
      <trkpt lat="48.39003" lon="2.6495">
        <ele>59.258422851562</ele>
        <time>2012-03-25T07:09:52Z</time>
      </trkpt>
      <trkpt lat="48.38993" lon="2.64943">
        <ele>60.700317382812</ele>
        <time>2012-03-25T07:09:58Z</time>
      </trkpt>
      <trkpt lat="48.38981" lon="2.64936">
        <ele>61.661743164062</ele>
        <time>2012-03-25T07:10:05Z</time>
      </trkpt>
      <trkpt lat="48.38966" lon="2.64928">
        <ele>62.622924804688</ele>
        <time>2012-03-25T07:10:12Z</time>
      </trkpt>
      <trkpt lat="48.38951" lon="2.64922">
        <ele>63.103637695312</ele>
        <time>2012-03-25T07:10:17Z</time>
      </trkpt>
      <trkpt lat="48.38931" lon="2.64917">
        <ele>61.181030273438</ele>
        <time>2012-03-25T07:10:22Z</time>
      </trkpt>
      <trkpt lat="48.38921" lon="2.64913">
        <ele>60.2197265625</ele>
        <time>2012-03-25T07:10:24Z</time>
      </trkpt>
      <trkpt lat="48.38887" lon="2.64913">
        <ele>58.297119140625</ele>
        <time>2012-03-25T07:10:29Z</time>
      </trkpt>
      <trkpt lat="48.38869" lon="2.64911">
        <ele>57.816528320312</ele>
        <time>2012-03-25T07:10:32Z</time>
      </trkpt>
      <trkpt lat="48.38864" lon="2.64907">
        <ele>57.335815429688</ele>
        <time>2012-03-25T07:10:33Z</time>
      </trkpt>
      <trkpt lat="48.3885" lon="2.64895">
        <ele>57.816528320312</ele>
        <time>2012-03-25T07:10:36Z</time>
      </trkpt>
      <trkpt lat="48.38822" lon="2.6487">
        <ele>57.816528320312</ele>
        <time>2012-03-25T07:10:42Z</time>
      </trkpt>
      <trkpt lat="48.38782" lon="2.64837">
        <ele>58.297119140625</ele>
        <time>2012-03-25T07:10:50Z</time>
      </trkpt>
      <trkpt lat="48.38744" lon="2.64805">
        <ele>58.777709960938</ele>
        <time>2012-03-25T07:10:58Z</time>
      </trkpt>
      <trkpt lat="48.38708" lon="2.64774">
        <ele>59.739135742188</ele>
        <time>2012-03-25T07:11:06Z</time>
      </trkpt>
      <trkpt lat="48.38675" lon="2.64745">
        <ele>60.2197265625</ele>
        <time>2012-03-25T07:11:14Z</time>
      </trkpt>
      <trkpt lat="48.38662" lon="2.64722">
        <ele>60.700317382812</ele>
        <time>2012-03-25T07:11:19Z</time>
      </trkpt>
      <trkpt lat="48.38659" lon="2.64687">
        <ele>61.181030273438</ele>
        <time>2012-03-25T07:11:25Z</time>
      </trkpt>
      <trkpt lat="48.38656" lon="2.6466">
        <ele>61.181030273438</ele>
        <time>2012-03-25T07:11:30Z</time>
      </trkpt>
      <trkpt lat="48.38651" lon="2.64617">
        <ele>62.622924804688</ele>
        <time>2012-03-25T07:11:38Z</time>
      </trkpt>
      <trkpt lat="48.38649" lon="2.64593">
        <ele>63.103637695312</ele>
        <time>2012-03-25T07:11:43Z</time>
      </trkpt>
      <trkpt lat="48.38646" lon="2.64568">
        <ele>63.584350585938</ele>
        <time>2012-03-25T07:11:48Z</time>
      </trkpt>
      <trkpt lat="48.3864" lon="2.64532">
        <ele>64.545654296875</ele>
        <time>2012-03-25T07:11:55Z</time>
      </trkpt>
      <trkpt lat="48.38636" lon="2.64495">
        <ele>64.545654296875</ele>
        <time>2012-03-25T07:12:02Z</time>
      </trkpt>
      <trkpt lat="48.38631" lon="2.64448">
        <ele>65.507080078125</ele>
        <time>2012-03-25T07:12:11Z</time>
      </trkpt>
      <trkpt lat="48.38627" lon="2.64413">
        <ele>66.46826171875</ele>
        <time>2012-03-25T07:12:18Z</time>
      </trkpt>
      <trkpt lat="48.38622" lon="2.64376">
        <ele>66.46826171875</ele>
        <time>2012-03-25T07:12:25Z</time>
      </trkpt>
      <trkpt lat="48.38618" lon="2.64336">
        <ele>67.4296875</ele>
        <time>2012-03-25T07:12:33Z</time>
      </trkpt>
      <trkpt lat="48.38614" lon="2.64303">
        <ele>68.390869140625</ele>
        <time>2012-03-25T07:12:40Z</time>
      </trkpt>
      <trkpt lat="48.3861" lon="2.6427">
        <ele>68.87158203125</ele>
        <time>2012-03-25T07:12:47Z</time>
      </trkpt>
      <trkpt lat="48.38605" lon="2.64229">
        <ele>69.832885742188</ele>
        <time>2012-03-25T07:12:55Z</time>
      </trkpt>
      <trkpt lat="48.38602" lon="2.64198">
        <ele>70.794189453125</ele>
        <time>2012-03-25T07:13:01Z</time>
      </trkpt>
      <trkpt lat="48.38601" lon="2.64162">
        <ele>71.27490234375</ele>
        <time>2012-03-25T07:13:08Z</time>
      </trkpt>
      <trkpt lat="48.38599" lon="2.64122">
        <ele>72.236206054688</ele>
        <time>2012-03-25T07:13:16Z</time>
      </trkpt>
      <trkpt lat="48.38596" lon="2.64074">
        <ele>74.639526367188</ele>
        <time>2012-03-25T07:13:26Z</time>
      </trkpt>
      <trkpt lat="48.38594" lon="2.64049">
        <ele>75.600830078125</ele>
        <time>2012-03-25T07:13:32Z</time>
      </trkpt>
      <trkpt lat="48.38593" lon="2.64027">
        <ele>77.5234375</ele>
        <time>2012-03-25T07:13:38Z</time>
      </trkpt>
      <trkpt lat="48.38592" lon="2.64">
        <ele>78.484741210938</ele>
        <time>2012-03-25T07:13:45Z</time>
      </trkpt>
      <trkpt lat="48.38589" lon="2.63973">
        <ele>79.926635742188</ele>
        <time>2012-03-25T07:13:52Z</time>
      </trkpt>
      <trkpt lat="48.38589" lon="2.63962">
        <ele>81.368774414062</ele>
        <time>2012-03-25T07:13:55Z</time>
      </trkpt>
      <trkpt lat="48.38588" lon="2.63937">
        <ele>82.330078125</ele>
        <time>2012-03-25T07:14:02Z</time>
      </trkpt>
      <trkpt lat="48.38587" lon="2.63921">
        <ele>83.291381835938</ele>
        <time>2012-03-25T07:14:07Z</time>
      </trkpt>
      <trkpt lat="48.38585" lon="2.63897">
        <ele>86.17529296875</ele>
        <time>2012-03-25T07:14:15Z</time>
      </trkpt>
      <trkpt lat="48.38585" lon="2.63872">
        <ele>87.136596679688</ele>
        <time>2012-03-25T07:14:24Z</time>
      </trkpt>
      <trkpt lat="48.38583" lon="2.63851">
        <ele>90.501342773438</ele>
        <time>2012-03-25T07:14:33Z</time>
      </trkpt>
      <trkpt lat="48.3858" lon="2.63827">
        <ele>91.462524414062</ele>
        <time>2012-03-25T07:14:42Z</time>
      </trkpt>
      <trkpt lat="48.38578" lon="2.63804">
        <ele>92.904541015625</ele>
        <time>2012-03-25T07:14:50Z</time>
      </trkpt>
      <trkpt lat="48.38577" lon="2.63782">
        <ele>95.788452148438</ele>
        <time>2012-03-25T07:14:57Z</time>
      </trkpt>
      <trkpt lat="48.38577" lon="2.63755">
        <ele>96.269287109375</ele>
        <time>2012-03-25T07:15:04Z</time>
      </trkpt>
      <trkpt lat="48.38574" lon="2.63728">
        <ele>96.269287109375</ele>
        <time>2012-03-25T07:15:11Z</time>
      </trkpt>
      <trkpt lat="48.38574" lon="2.63696">
        <ele>96.269287109375</ele>
        <time>2012-03-25T07:15:19Z</time>
      </trkpt>
      <trkpt lat="48.38572" lon="2.63662">
        <ele>96.749877929688</ele>
        <time>2012-03-25T07:15:27Z</time>
      </trkpt>
      <trkpt lat="48.3857" lon="2.63627">
        <ele>97.23046875</ele>
        <time>2012-03-25T07:15:34Z</time>
      </trkpt>
      <trkpt lat="48.3857" lon="2.63591">
        <ele>98.672485351562</ele>
        <time>2012-03-25T07:15:41Z</time>
      </trkpt>
      <trkpt lat="48.38568" lon="2.63553">
        <ele>99.153076171875</ele>
        <time>2012-03-25T07:15:48Z</time>
      </trkpt>
      <trkpt lat="48.38565" lon="2.63513">
        <ele>100.11450195312</ele>
        <time>2012-03-25T07:15:55Z</time>
      </trkpt>
      <trkpt lat="48.38564" lon="2.63469">
        <ele>100.11450195312</ele>
        <time>2012-03-25T07:16:03Z</time>
      </trkpt>
      <trkpt lat="48.38562" lon="2.63433">
        <ele>99.6337890625</ele>
        <time>2012-03-25T07:16:09Z</time>
      </trkpt>
      <trkpt lat="48.38559" lon="2.63391">
        <ele>100.59509277344</ele>
        <time>2012-03-25T07:16:16Z</time>
      </trkpt>
      <trkpt lat="48.38558" lon="2.63379">
        <ele>100.11450195312</ele>
        <time>2012-03-25T07:16:18Z</time>
      </trkpt>
      <trkpt lat="48.38556" lon="2.63341">
        <ele>100.59509277344</ele>
        <time>2012-03-25T07:16:24Z</time>
      </trkpt>
      <trkpt lat="48.38553" lon="2.63286">
        <ele>100.11450195312</ele>
        <time>2012-03-25T07:16:32Z</time>
      </trkpt>
      <trkpt lat="48.38553" lon="2.63279">
        <ele>100.59509277344</ele>
        <time>2012-03-25T07:16:33Z</time>
      </trkpt>
      <trkpt lat="48.38548" lon="2.63212">
        <ele>100.11450195312</ele>
        <time>2012-03-25T07:16:43Z</time>
      </trkpt>
      <trkpt lat="48.38547" lon="2.63186">
        <ele>100.11450195312</ele>
        <time>2012-03-25T07:16:47Z</time>
      </trkpt>
      <trkpt lat="48.38546" lon="2.63152">
        <ele>99.6337890625</ele>
        <time>2012-03-25T07:16:52Z</time>
      </trkpt>
      <trkpt lat="48.38544" lon="2.63125">
        <ele>101.07568359375</ele>
        <time>2012-03-25T07:16:56Z</time>
      </trkpt>
      <trkpt lat="48.38542" lon="2.63098">
        <ele>101.07568359375</ele>
        <time>2012-03-25T07:17:01Z</time>
      </trkpt>
      <trkpt lat="48.38538" lon="2.63092">
        <ele>102.037109375</ele>
        <time>2012-03-25T07:17:03Z</time>
      </trkpt>
      <trkpt lat="48.38523" lon="2.6307">
        <ele>101.55639648438</ele>
        <time>2012-03-25T07:17:09Z</time>
      </trkpt>
      <trkpt lat="48.38527" lon="2.63047">
        <ele>102.51770019531</ele>
        <time>2012-03-25T07:17:13Z</time>
      </trkpt>
      <trkpt lat="48.3853" lon="2.6302">
        <ele>101.55639648438</ele>
        <time>2012-03-25T07:17:18Z</time>
      </trkpt>
      <trkpt lat="48.38525" lon="2.63004">
        <ele>102.037109375</ele>
        <time>2012-03-25T07:17:21Z</time>
      </trkpt>
      <trkpt lat="48.38507" lon="2.62954">
        <ele>102.037109375</ele>
        <time>2012-03-25T07:17:30Z</time>
      </trkpt>
      <trkpt lat="48.38503" lon="2.62943">
        <ele>102.51770019531</ele>
        <time>2012-03-25T07:17:32Z</time>
      </trkpt>
      <trkpt lat="48.38492" lon="2.62914">
        <ele>102.037109375</ele>
        <time>2012-03-25T07:17:37Z</time>
      </trkpt>
      <trkpt lat="48.3848" lon="2.62879">
        <ele>102.037109375</ele>
        <time>2012-03-25T07:17:43Z</time>
      </trkpt>
      <trkpt lat="48.38477" lon="2.62867">
        <ele>102.99829101562</ele>
        <time>2012-03-25T07:17:45Z</time>
      </trkpt>
      <trkpt lat="48.38472" lon="2.6285">
        <ele>103.47900390625</ele>
        <time>2012-03-25T07:17:48Z</time>
      </trkpt>
      <trkpt lat="48.38459" lon="2.62816">
        <ele>103.47900390625</ele>
        <time>2012-03-25T07:17:54Z</time>
      </trkpt>
      <trkpt lat="48.38447" lon="2.62775">
        <ele>103.95971679688</ele>
        <time>2012-03-25T07:18:01Z</time>
      </trkpt>
      <trkpt lat="48.38434" lon="2.62734">
        <ele>103.47900390625</ele>
        <time>2012-03-25T07:18:08Z</time>
      </trkpt>
      <trkpt lat="48.38418" lon="2.62691">
        <ele>102.99829101562</ele>
        <time>2012-03-25T07:18:15Z</time>
      </trkpt>
      <trkpt lat="48.38413" lon="2.62674">
        <ele>103.47900390625</ele>
        <time>2012-03-25T07:18:18Z</time>
      </trkpt>
      <trkpt lat="48.38403" lon="2.62644">
        <ele>103.47900390625</ele>
        <time>2012-03-25T07:18:23Z</time>
      </trkpt>
      <trkpt lat="48.38389" lon="2.62609">
        <ele>102.51770019531</ele>
        <time>2012-03-25T07:18:29Z</time>
      </trkpt>
      <trkpt lat="48.38383" lon="2.62592">
        <ele>102.99829101562</ele>
        <time>2012-03-25T07:18:32Z</time>
      </trkpt>
      <trkpt lat="48.38379" lon="2.62581">
        <ele>102.51770019531</ele>
        <time>2012-03-25T07:18:34Z</time>
      </trkpt>
      <trkpt lat="48.38373" lon="2.62562">
        <ele>103.47900390625</ele>
        <time>2012-03-25T07:18:37Z</time>
      </trkpt>
      <trkpt lat="48.38367" lon="2.62544">
        <ele>102.99829101562</ele>
        <time>2012-03-25T07:18:40Z</time>
      </trkpt>
      <trkpt lat="48.38354" lon="2.62506">
        <ele>103.95971679688</ele>
        <time>2012-03-25T07:18:46Z</time>
      </trkpt>
      <trkpt lat="48.38342" lon="2.62461">
        <ele>104.4404296875</ele>
        <time>2012-03-25T07:18:53Z</time>
      </trkpt>
      <trkpt lat="48.38334" lon="2.62436">
        <ele>103.95971679688</ele>
        <time>2012-03-25T07:18:57Z</time>
      </trkpt>
      <trkpt lat="48.38319" lon="2.6239">
        <ele>103.47900390625</ele>
        <time>2012-03-25T07:19:04Z</time>
      </trkpt>
      <trkpt lat="48.38305" lon="2.62347">
        <ele>102.99829101562</ele>
        <time>2012-03-25T07:19:11Z</time>
      </trkpt>
      <trkpt lat="48.3829" lon="2.62305">
        <ele>103.47900390625</ele>
        <time>2012-03-25T07:19:18Z</time>
      </trkpt>
      <trkpt lat="48.38279" lon="2.62269">
        <ele>102.51770019531</ele>
        <time>2012-03-25T07:19:24Z</time>
      </trkpt>
      <trkpt lat="48.38258" lon="2.62212">
        <ele>102.51770019531</ele>
        <time>2012-03-25T07:19:33Z</time>
      </trkpt>
      <trkpt lat="48.3824" lon="2.62158">
        <ele>102.51770019531</ele>
        <time>2012-03-25T07:19:41Z</time>
      </trkpt>
      <trkpt lat="48.38223" lon="2.62104">
        <ele>102.037109375</ele>
        <time>2012-03-25T07:19:49Z</time>
      </trkpt>
      <trkpt lat="48.38204" lon="2.62048">
        <ele>101.55639648438</ele>
        <time>2012-03-25T07:19:57Z</time>
      </trkpt>
      <trkpt lat="48.38189" lon="2.61999">
        <ele>101.55639648438</ele>
        <time>2012-03-25T07:20:04Z</time>
      </trkpt>
      <trkpt lat="48.38169" lon="2.61943">
        <ele>102.037109375</ele>
        <time>2012-03-25T07:20:12Z</time>
      </trkpt>
      <trkpt lat="48.38158" lon="2.6191">
        <ele>101.55639648438</ele>
        <time>2012-03-25T07:20:17Z</time>
      </trkpt>
      <trkpt lat="48.38154" lon="2.61896">
        <ele>101.55639648438</ele>
        <time>2012-03-25T07:20:19Z</time>
      </trkpt>
      <trkpt lat="48.38151" lon="2.61875">
        <ele>101.55639648438</ele>
        <time>2012-03-25T07:20:22Z</time>
      </trkpt>
      <trkpt lat="48.38151" lon="2.6186">
        <ele>102.037109375</ele>
        <time>2012-03-25T07:20:24Z</time>
      </trkpt>
      <trkpt lat="48.38149" lon="2.61839">
        <ele>101.55639648438</ele>
        <time>2012-03-25T07:20:27Z</time>
      </trkpt>
      <trkpt lat="48.38148" lon="2.61818">
        <ele>101.55639648438</ele>
        <time>2012-03-25T07:20:30Z</time>
      </trkpt>
      <trkpt lat="48.38147" lon="2.61804">
        <ele>101.55639648438</ele>
        <time>2012-03-25T07:20:32Z</time>
      </trkpt>
      <trkpt lat="48.38146" lon="2.61755">
        <ele>101.55639648438</ele>
        <time>2012-03-25T07:20:39Z</time>
      </trkpt>
      <trkpt lat="48.38145" lon="2.61721">
        <ele>101.55639648438</ele>
        <time>2012-03-25T07:20:44Z</time>
      </trkpt>
      <trkpt lat="48.38145" lon="2.61686">
        <ele>102.037109375</ele>
        <time>2012-03-25T07:20:49Z</time>
      </trkpt>
      <trkpt lat="48.38144" lon="2.61655">
        <ele>101.55639648438</ele>
        <time>2012-03-25T07:20:53Z</time>
      </trkpt>
      <trkpt lat="48.38141" lon="2.61609">
        <ele>101.07568359375</ele>
        <time>2012-03-25T07:20:59Z</time>
      </trkpt>
      <trkpt lat="48.38139" lon="2.61579">
        <ele>101.07568359375</ele>
        <time>2012-03-25T07:21:03Z</time>
      </trkpt>
      <trkpt lat="48.38139" lon="2.61528">
        <ele>102.037109375</ele>
        <time>2012-03-25T07:21:10Z</time>
      </trkpt>
      <trkpt lat="48.3814" lon="2.61485">
        <ele>102.51770019531</ele>
        <time>2012-03-25T07:21:16Z</time>
      </trkpt>
      <trkpt lat="48.38139" lon="2.61453">
        <ele>102.51770019531</ele>
        <time>2012-03-25T07:21:21Z</time>
      </trkpt>
      <trkpt lat="48.38139" lon="2.61427">
        <ele>102.037109375</ele>
        <time>2012-03-25T07:21:25Z</time>
      </trkpt>
      <trkpt lat="48.38136" lon="2.61401">
        <ele>102.037109375</ele>
        <time>2012-03-25T07:21:29Z</time>
      </trkpt>
      <trkpt lat="48.38135" lon="2.61349">
        <ele>102.51770019531</ele>
        <time>2012-03-25T07:21:37Z</time>
      </trkpt>
      <trkpt lat="48.38135" lon="2.61294">
        <ele>103.95971679688</ele>
        <time>2012-03-25T07:21:46Z</time>
      </trkpt>
      <trkpt lat="48.38136" lon="2.6125">
        <ele>103.95971679688</ele>
        <time>2012-03-25T07:21:53Z</time>
      </trkpt>
      <trkpt lat="48.38134" lon="2.61213">
        <ele>104.4404296875</ele>
        <time>2012-03-25T07:21:59Z</time>
      </trkpt>
      <trkpt lat="48.38134" lon="2.61188">
        <ele>104.4404296875</ele>
        <time>2012-03-25T07:22:03Z</time>
      </trkpt>
      <trkpt lat="48.38134" lon="2.61149">
        <ele>104.92102050781</ele>
        <time>2012-03-25T07:22:09Z</time>
      </trkpt>
      <trkpt lat="48.38134" lon="2.61105">
        <ele>104.4404296875</ele>
        <time>2012-03-25T07:22:16Z</time>
      </trkpt>
      <trkpt lat="48.38129" lon="2.6109">
        <ele>103.95971679688</ele>
        <time>2012-03-25T07:22:20Z</time>
      </trkpt>
      <trkpt lat="48.38125" lon="2.61081">
        <ele>103.95971679688</ele>
        <time>2012-03-25T07:22:25Z</time>
      </trkpt>
      <trkpt lat="48.38128" lon="2.61084">
        <ele>104.4404296875</ele>
        <time>2012-03-25T07:22:41Z</time>
      </trkpt>
      <trkpt lat="48.38129" lon="2.61086">
        <ele>104.4404296875</ele>
        <time>2012-03-25T07:22:46Z</time>
      </trkpt>
      <trkpt lat="48.38129" lon="2.61086">
        <ele>104.4404296875</ele>
        <time>2012-03-25T07:22:54Z</time>
      </trkpt>
      <trkpt lat="48.38127" lon="2.61083">
        <ele>104.92102050781</ele>
        <time>2012-03-25T07:23:02Z</time>
      </trkpt>
      <trkpt lat="48.38116" lon="2.61068">
        <ele>104.92102050781</ele>
        <time>2012-03-25T07:23:08Z</time>
      </trkpt>
      <trkpt lat="48.38094" lon="2.61043">
        <ele>105.40173339844</ele>
        <time>2012-03-25T07:23:15Z</time>
      </trkpt>
      <trkpt lat="48.38067" lon="2.6101">
        <ele>105.40173339844</ele>
        <time>2012-03-25T07:23:23Z</time>
      </trkpt>
      <trkpt lat="48.38043" lon="2.60981">
        <ele>105.88244628906</ele>
        <time>2012-03-25T07:23:30Z</time>
      </trkpt>
      <trkpt lat="48.38007" lon="2.60938">
        <ele>105.40173339844</ele>
        <time>2012-03-25T07:23:39Z</time>
      </trkpt>
      <trkpt lat="48.37982" lon="2.60908">
        <ele>105.88244628906</ele>
        <time>2012-03-25T07:23:46Z</time>
      </trkpt>
      <trkpt lat="48.37956" lon="2.60879">
        <ele>106.36303710938</ele>
        <time>2012-03-25T07:23:53Z</time>
      </trkpt>
      <trkpt lat="48.37931" lon="2.60849">
        <ele>105.88244628906</ele>
        <time>2012-03-25T07:24:00Z</time>
      </trkpt>
      <trkpt lat="48.37905" lon="2.60818">
        <ele>104.92102050781</ele>
        <time>2012-03-25T07:24:07Z</time>
      </trkpt>
      <trkpt lat="48.37881" lon="2.6079">
        <ele>105.40173339844</ele>
        <time>2012-03-25T07:24:13Z</time>
      </trkpt>
      <trkpt lat="48.37858" lon="2.60761">
        <ele>105.40173339844</ele>
        <time>2012-03-25T07:24:19Z</time>
      </trkpt>
      <trkpt lat="48.37838" lon="2.60736">
        <ele>104.92102050781</ele>
        <time>2012-03-25T07:24:24Z</time>
      </trkpt>
      <trkpt lat="48.37811" lon="2.60703">
        <ele>104.92102050781</ele>
        <time>2012-03-25T07:24:31Z</time>
      </trkpt>
      <trkpt lat="48.3778" lon="2.60667">
        <ele>103.95971679688</ele>
        <time>2012-03-25T07:24:39Z</time>
      </trkpt>
      <trkpt lat="48.37749" lon="2.6063">
        <ele>103.47900390625</ele>
        <time>2012-03-25T07:24:47Z</time>
      </trkpt>
      <trkpt lat="48.37717" lon="2.6059">
        <ele>103.47900390625</ele>
        <time>2012-03-25T07:24:55Z</time>
      </trkpt>
      <trkpt lat="48.37681" lon="2.60547">
        <ele>102.99829101562</ele>
        <time>2012-03-25T07:25:04Z</time>
      </trkpt>
      <trkpt lat="48.37647" lon="2.60507">
        <ele>103.47900390625</ele>
        <time>2012-03-25T07:25:12Z</time>
      </trkpt>
      <trkpt lat="48.37614" lon="2.60467">
        <ele>102.99829101562</ele>
        <time>2012-03-25T07:25:20Z</time>
      </trkpt>
      <trkpt lat="48.3758" lon="2.60424">
        <ele>102.51770019531</ele>
        <time>2012-03-25T07:25:29Z</time>
      </trkpt>
      <trkpt lat="48.37549" lon="2.60383">
        <ele>102.51770019531</ele>
        <time>2012-03-25T07:25:38Z</time>
      </trkpt>
      <trkpt lat="48.37539" lon="2.60353">
        <ele>102.99829101562</ele>
        <time>2012-03-25T07:25:43Z</time>
      </trkpt>
      <trkpt lat="48.37537" lon="2.60324">
        <ele>102.51770019531</ele>
        <time>2012-03-25T07:25:47Z</time>
      </trkpt>
      <trkpt lat="48.37536" lon="2.60276">
        <ele>102.51770019531</ele>
        <time>2012-03-25T07:25:53Z</time>
      </trkpt>
      <trkpt lat="48.37534" lon="2.60246">
        <ele>102.99829101562</ele>
        <time>2012-03-25T07:25:57Z</time>
      </trkpt>
      <trkpt lat="48.37535" lon="2.60196">
        <ele>104.4404296875</ele>
        <time>2012-03-25T07:26:04Z</time>
      </trkpt>
      <trkpt lat="48.37535" lon="2.60142">
        <ele>103.47900390625</ele>
        <time>2012-03-25T07:26:11Z</time>
      </trkpt>
      <trkpt lat="48.37535" lon="2.60093">
        <ele>103.95971679688</ele>
        <time>2012-03-25T07:26:17Z</time>
      </trkpt>
      <trkpt lat="48.37534" lon="2.6004">
        <ele>105.40173339844</ele>
        <time>2012-03-25T07:26:24Z</time>
      </trkpt>
      <trkpt lat="48.37535" lon="2.59974">
        <ele>104.4404296875</ele>
        <time>2012-03-25T07:26:32Z</time>
      </trkpt>
      <trkpt lat="48.37534" lon="2.5995">
        <ele>104.92102050781</ele>
        <time>2012-03-25T07:26:35Z</time>
      </trkpt>
      <trkpt lat="48.37535" lon="2.59894">
        <ele>107.32434082031</ele>
        <time>2012-03-25T07:26:43Z</time>
      </trkpt>
      <trkpt lat="48.37534" lon="2.59832">
        <ele>107.32434082031</ele>
        <time>2012-03-25T07:26:52Z</time>
      </trkpt>
      <trkpt lat="48.37534" lon="2.59782">
        <ele>108.28564453125</ele>
        <time>2012-03-25T07:26:59Z</time>
      </trkpt>
      <trkpt lat="48.37534" lon="2.59714">
        <ele>108.28564453125</ele>
        <time>2012-03-25T07:27:08Z</time>
      </trkpt>
      <trkpt lat="48.37534" lon="2.59698">
        <ele>108.76623535156</ele>
        <time>2012-03-25T07:27:10Z</time>
      </trkpt>
      <trkpt lat="48.37533" lon="2.59616">
        <ele>108.28564453125</ele>
        <time>2012-03-25T07:27:20Z</time>
      </trkpt>
      <trkpt lat="48.37532" lon="2.59592">
        <ele>108.76623535156</ele>
        <time>2012-03-25T07:27:23Z</time>
      </trkpt>
      <trkpt lat="48.3753" lon="2.59559">
        <ele>108.76623535156</ele>
        <time>2012-03-25T07:27:27Z</time>
      </trkpt>
      <trkpt lat="48.3753" lon="2.5951">
        <ele>109.24694824219</ele>
        <time>2012-03-25T07:27:33Z</time>
      </trkpt>
      <trkpt lat="48.37529" lon="2.59494">
        <ele>109.72766113281</ele>
        <time>2012-03-25T07:27:35Z</time>
      </trkpt>
      <trkpt lat="48.37539" lon="2.59458">
        <ele>109.24694824219</ele>
        <time>2012-03-25T07:27:40Z</time>
      </trkpt>
      <trkpt lat="48.3755" lon="2.59449">
        <ele>108.76623535156</ele>
        <time>2012-03-25T07:27:42Z</time>
      </trkpt>
      <trkpt lat="48.37587" lon="2.59419">
        <ele>107.32434082031</ele>
        <time>2012-03-25T07:27:49Z</time>
      </trkpt>
      <trkpt lat="48.37626" lon="2.59391">
        <ele>106.36303710938</ele>
        <time>2012-03-25T07:27:56Z</time>
      </trkpt>
      <trkpt lat="48.37658" lon="2.59366">
        <ele>106.36303710938</ele>
        <time>2012-03-25T07:28:02Z</time>
      </trkpt>
      <trkpt lat="48.37695" lon="2.59337">
        <ele>105.88244628906</ele>
        <time>2012-03-25T07:28:09Z</time>
      </trkpt>
      <trkpt lat="48.37725" lon="2.59313">
        <ele>105.40173339844</ele>
        <time>2012-03-25T07:28:15Z</time>
      </trkpt>
      <trkpt lat="48.37756" lon="2.59289">
        <ele>105.40173339844</ele>
        <time>2012-03-25T07:28:21Z</time>
      </trkpt>
      <trkpt lat="48.37782" lon="2.59271">
        <ele>104.92102050781</ele>
        <time>2012-03-25T07:28:26Z</time>
      </trkpt>
      <trkpt lat="48.37813" lon="2.59246">
        <ele>104.92102050781</ele>
        <time>2012-03-25T07:28:32Z</time>
      </trkpt>
      <trkpt lat="48.37828" lon="2.59233">
        <ele>103.47900390625</ele>
        <time>2012-03-25T07:28:35Z</time>
      </trkpt>
      <trkpt lat="48.37855" lon="2.59212">
        <ele>102.51770019531</ele>
        <time>2012-03-25T07:28:40Z</time>
      </trkpt>
      <trkpt lat="48.3786" lon="2.59208">
        <ele>104.4404296875</ele>
        <time>2012-03-25T07:28:41Z</time>
      </trkpt>
      <trkpt lat="48.37905" lon="2.59174">
        <ele>102.037109375</ele>
        <time>2012-03-25T07:28:49Z</time>
      </trkpt>
      <trkpt lat="48.37927" lon="2.59159">
        <ele>101.55639648438</ele>
        <time>2012-03-25T07:28:53Z</time>
      </trkpt>
      <trkpt lat="48.37954" lon="2.59137">
        <ele>100.11450195312</ele>
        <time>2012-03-25T07:28:58Z</time>
      </trkpt>
      <trkpt lat="48.37992" lon="2.59107">
        <ele>99.153076171875</ele>
        <time>2012-03-25T07:29:05Z</time>
      </trkpt>
      <trkpt lat="48.38003" lon="2.59111">
        <ele>98.672485351562</ele>
        <time>2012-03-25T07:29:09Z</time>
      </trkpt>
      <trkpt lat="48.38003" lon="2.59116">
        <ele>99.153076171875</ele>
        <time>2012-03-25T07:29:10Z</time>
      </trkpt>
      <trkpt lat="48.38001" lon="2.59149">
        <ele>99.153076171875</ele>
        <time>2012-03-25T07:29:15Z</time>
      </trkpt>
      <trkpt lat="48.38" lon="2.59175">
        <ele>99.153076171875</ele>
        <time>2012-03-25T07:29:19Z</time>
      </trkpt>
      <trkpt lat="48.37999" lon="2.5922">
        <ele>100.59509277344</ele>
        <time>2012-03-25T07:29:26Z</time>
      </trkpt>
      <trkpt lat="48.37998" lon="2.59251">
        <ele>100.59509277344</ele>
        <time>2012-03-25T07:29:31Z</time>
      </trkpt>
      <trkpt lat="48.37997" lon="2.59269">
        <ele>101.55639648438</ele>
        <time>2012-03-25T07:29:34Z</time>
      </trkpt>
      <trkpt lat="48.37995" lon="2.5931">
        <ele>103.47900390625</ele>
        <time>2012-03-25T07:29:40Z</time>
      </trkpt>
      <trkpt lat="48.37994" lon="2.59356">
        <ele>102.99829101562</ele>
        <time>2012-03-25T07:29:47Z</time>
      </trkpt>
      <trkpt lat="48.37992" lon="2.59395">
        <ele>103.47900390625</ele>
        <time>2012-03-25T07:29:53Z</time>
      </trkpt>
      <trkpt lat="48.37991" lon="2.59434">
        <ele>103.47900390625</ele>
        <time>2012-03-25T07:29:59Z</time>
      </trkpt>
      <trkpt lat="48.37991" lon="2.59472">
        <ele>103.95971679688</ele>
        <time>2012-03-25T07:30:05Z</time>
      </trkpt>
      <trkpt lat="48.37989" lon="2.59513">
        <ele>103.95971679688</ele>
        <time>2012-03-25T07:30:11Z</time>
      </trkpt>
      <trkpt lat="48.37988" lon="2.59553">
        <ele>103.95971679688</ele>
        <time>2012-03-25T07:30:17Z</time>
      </trkpt>
      <trkpt lat="48.37987" lon="2.59568">
        <ele>104.4404296875</ele>
        <time>2012-03-25T07:30:19Z</time>
      </trkpt>
      <trkpt lat="48.37995" lon="2.59592">
        <ele>103.95971679688</ele>
        <time>2012-03-25T07:30:23Z</time>
      </trkpt>
      <trkpt lat="48.38008" lon="2.59601">
        <ele>104.4404296875</ele>
        <time>2012-03-25T07:30:26Z</time>
      </trkpt>
      <trkpt lat="48.38038" lon="2.59615">
        <ele>103.95971679688</ele>
        <time>2012-03-25T07:30:32Z</time>
      </trkpt>
      <trkpt lat="48.38047" lon="2.59618">
        <ele>103.47900390625</ele>
        <time>2012-03-25T07:30:34Z</time>
      </trkpt>
      <trkpt lat="48.38065" lon="2.59618">
        <ele>104.4404296875</ele>
        <time>2012-03-25T07:30:38Z</time>
      </trkpt>
      <trkpt lat="48.38085" lon="2.59605">
        <ele>104.4404296875</ele>
        <time>2012-03-25T07:30:43Z</time>
      </trkpt>
      <trkpt lat="48.38113" lon="2.59566">
        <ele>104.92102050781</ele>
        <time>2012-03-25T07:30:52Z</time>
      </trkpt>
      <trkpt lat="48.38123" lon="2.59552">
        <ele>104.92102050781</ele>
        <time>2012-03-25T07:30:55Z</time>
      </trkpt>
      <trkpt lat="48.38136" lon="2.59534">
        <ele>105.88244628906</ele>
        <time>2012-03-25T07:30:59Z</time>
      </trkpt>
      <trkpt lat="48.38152" lon="2.5951">
        <ele>106.36303710938</ele>
        <time>2012-03-25T07:31:04Z</time>
      </trkpt>
      <trkpt lat="48.38158" lon="2.59481">
        <ele>106.84362792969</ele>
        <time>2012-03-25T07:31:09Z</time>
      </trkpt>
      <trkpt lat="48.38161" lon="2.59462">
        <ele>105.88244628906</ele>
        <time>2012-03-25T07:31:12Z</time>
      </trkpt>
      <trkpt lat="48.38166" lon="2.59442">
        <ele>106.36303710938</ele>
        <time>2012-03-25T07:31:15Z</time>
      </trkpt>
      <trkpt lat="48.38178" lon="2.59393">
        <ele>106.36303710938</ele>
        <time>2012-03-25T07:31:22Z</time>
      </trkpt>
      <trkpt lat="48.38188" lon="2.59351">
        <ele>106.36303710938</ele>
        <time>2012-03-25T07:31:28Z</time>
      </trkpt>
      <trkpt lat="48.38192" lon="2.59337">
        <ele>106.36303710938</ele>
        <time>2012-03-25T07:31:30Z</time>
      </trkpt>
      <trkpt lat="48.38205" lon="2.5928">
        <ele>106.36303710938</ele>
        <time>2012-03-25T07:31:38Z</time>
      </trkpt>
      <trkpt lat="48.38218" lon="2.59242">
        <ele>103.95971679688</ele>
        <time>2012-03-25T07:31:43Z</time>
      </trkpt>
      <trkpt lat="48.3823" lon="2.59219">
        <ele>102.037109375</ele>
        <time>2012-03-25T07:31:46Z</time>
      </trkpt>
      <trkpt lat="48.38236" lon="2.59202">
        <ele>101.07568359375</ele>
        <time>2012-03-25T07:31:48Z</time>
      </trkpt>
      <trkpt lat="48.38243" lon="2.59186">
        <ele>98.19189453125</ele>
        <time>2012-03-25T07:31:50Z</time>
      </trkpt>
      <trkpt lat="48.38248" lon="2.59167">
        <ele>96.269287109375</ele>
        <time>2012-03-25T07:31:52Z</time>
      </trkpt>
      <trkpt lat="48.38249" lon="2.59114">
        <ele>94.346557617188</ele>
        <time>2012-03-25T07:31:56Z</time>
      </trkpt>
      <trkpt lat="48.38249" lon="2.59069">
        <ele>90.98193359375</ele>
        <time>2012-03-25T07:31:59Z</time>
      </trkpt>
      <trkpt lat="48.38257" lon="2.59019">
        <ele>86.656005859375</ele>
        <time>2012-03-25T07:32:03Z</time>
      </trkpt>
      <trkpt lat="48.38261" lon="2.59008">
        <ele>86.656005859375</ele>
        <time>2012-03-25T07:32:04Z</time>
      </trkpt>
      <trkpt lat="48.38293" lon="2.58946">
        <ele>84.7333984375</ele>
        <time>2012-03-25T07:32:10Z</time>
      </trkpt>
      <trkpt lat="48.383" lon="2.58921">
        <ele>83.291381835938</ele>
        <time>2012-03-25T07:32:12Z</time>
      </trkpt>
      <trkpt lat="48.38312" lon="2.58865">
        <ele>79.446044921875</ele>
        <time>2012-03-25T07:32:16Z</time>
      </trkpt>
      <trkpt lat="48.38343" lon="2.58796">
        <ele>77.5234375</ele>
        <time>2012-03-25T07:32:22Z</time>
      </trkpt>
      <trkpt lat="48.38353" lon="2.58776">
        <ele>77.042846679688</ele>
        <time>2012-03-25T07:32:24Z</time>
      </trkpt>
      <trkpt lat="48.38376" lon="2.58757">
        <ele>76.562133789062</ele>
        <time>2012-03-25T07:32:28Z</time>
      </trkpt>
      <trkpt lat="48.38393" lon="2.58763">
        <ele>76.562133789062</ele>
        <time>2012-03-25T07:32:32Z</time>
      </trkpt>
      <trkpt lat="48.38399" lon="2.58767">
        <ele>76.562133789062</ele>
        <time>2012-03-25T07:32:33Z</time>
      </trkpt>
      <trkpt lat="48.38423" lon="2.5877">
        <ele>77.5234375</ele>
        <time>2012-03-25T07:32:38Z</time>
      </trkpt>
      <trkpt lat="48.38442" lon="2.58774">
        <ele>78.004028320312</ele>
        <time>2012-03-25T07:32:43Z</time>
      </trkpt>
      <trkpt lat="48.38469" lon="2.58793">
        <ele>79.446044921875</ele>
        <time>2012-03-25T07:32:51Z</time>
      </trkpt>
      <trkpt lat="48.3848" lon="2.58807">
        <ele>79.446044921875</ele>
        <time>2012-03-25T07:32:55Z</time>
      </trkpt>
      <trkpt lat="48.38496" lon="2.58832">
        <ele>80.407470703125</ele>
        <time>2012-03-25T07:33:01Z</time>
      </trkpt>
      <trkpt lat="48.38509" lon="2.5886">
        <ele>80.407470703125</ele>
        <time>2012-03-25T07:33:07Z</time>
      </trkpt>
      <trkpt lat="48.3852" lon="2.58881">
        <ele>80.407470703125</ele>
        <time>2012-03-25T07:33:12Z</time>
      </trkpt>
      <trkpt lat="48.38523" lon="2.58885">
        <ele>80.88818359375</ele>
        <time>2012-03-25T07:33:13Z</time>
      </trkpt>
      <trkpt lat="48.38533" lon="2.58903">
        <ele>82.330078125</ele>
        <time>2012-03-25T07:33:19Z</time>
      </trkpt>
      <trkpt lat="48.38543" lon="2.58917">
        <ele>82.330078125</ele>
        <time>2012-03-25T07:33:24Z</time>
      </trkpt>
      <trkpt lat="48.38549" lon="2.58937">
        <ele>82.810791015625</ele>
        <time>2012-03-25T07:33:28Z</time>
      </trkpt>
      <trkpt lat="48.38559" lon="2.58969">
        <ele>83.77197265625</ele>
        <time>2012-03-25T07:33:34Z</time>
      </trkpt>
      <trkpt lat="48.38567" lon="2.58986">
        <ele>83.291381835938</ele>
        <time>2012-03-25T07:33:38Z</time>
      </trkpt>
      <trkpt lat="48.38575" lon="2.59011">
        <ele>84.252685546875</ele>
        <time>2012-03-25T07:33:44Z</time>
      </trkpt>
      <trkpt lat="48.38582" lon="2.59034">
        <ele>84.7333984375</ele>
        <time>2012-03-25T07:33:50Z</time>
      </trkpt>
      <trkpt lat="48.38591" lon="2.59062">
        <ele>85.213989257812</ele>
        <time>2012-03-25T07:33:57Z</time>
      </trkpt>
      <trkpt lat="48.38594" lon="2.59074">
        <ele>85.213989257812</ele>
        <time>2012-03-25T07:34:00Z</time>
      </trkpt>
      <trkpt lat="48.38604" lon="2.59095">
        <ele>86.17529296875</ele>
        <time>2012-03-25T07:34:06Z</time>
      </trkpt>
      <trkpt lat="48.38607" lon="2.59099">
        <ele>85.694580078125</ele>
        <time>2012-03-25T07:34:07Z</time>
      </trkpt>
      <trkpt lat="48.38622" lon="2.59116">
        <ele>86.656005859375</ele>
        <time>2012-03-25T07:34:13Z</time>
      </trkpt>
      <trkpt lat="48.38633" lon="2.59134">
        <ele>87.136596679688</ele>
        <time>2012-03-25T07:34:18Z</time>
      </trkpt>
      <trkpt lat="48.38647" lon="2.59153">
        <ele>88.098022460938</ele>
        <time>2012-03-25T07:34:24Z</time>
      </trkpt>
      <trkpt lat="48.38655" lon="2.59168">
        <ele>87.6171875</ele>
        <time>2012-03-25T07:34:28Z</time>
      </trkpt>
      <trkpt lat="48.3866" lon="2.59191">
        <ele>88.578735351562</ele>
        <time>2012-03-25T07:34:33Z</time>
      </trkpt>
      <trkpt lat="48.3866" lon="2.59203">
        <ele>89.059326171875</ele>
        <time>2012-03-25T07:34:36Z</time>
      </trkpt>
      <trkpt lat="48.38655" lon="2.59218">
        <ele>89.539916992188</ele>
        <time>2012-03-25T07:34:40Z</time>
      </trkpt>
      <trkpt lat="48.38641" lon="2.59243">
        <ele>90.98193359375</ele>
        <time>2012-03-25T07:34:46Z</time>
      </trkpt>
      <trkpt lat="48.38628" lon="2.59261">
        <ele>91.943237304688</ele>
        <time>2012-03-25T07:34:52Z</time>
      </trkpt>
      <trkpt lat="48.38622" lon="2.59277">
        <ele>92.904541015625</ele>
        <time>2012-03-25T07:34:58Z</time>
      </trkpt>
      <trkpt lat="48.38621" lon="2.59298">
        <ele>93.865844726562</ele>
        <time>2012-03-25T07:35:04Z</time>
      </trkpt>
      <trkpt lat="48.38623" lon="2.59316">
        <ele>94.8271484375</ele>
        <time>2012-03-25T07:35:10Z</time>
      </trkpt>
      <trkpt lat="48.38629" lon="2.5933">
        <ele>96.269287109375</ele>
        <time>2012-03-25T07:35:16Z</time>
      </trkpt>
      <trkpt lat="48.38634" lon="2.59342">
        <ele>98.19189453125</ele>
        <time>2012-03-25T07:35:22Z</time>
      </trkpt>
      <trkpt lat="48.38641" lon="2.59356">
        <ele>100.11450195312</ele>
        <time>2012-03-25T07:35:28Z</time>
      </trkpt>
      <trkpt lat="48.38646" lon="2.59367">
        <ele>102.037109375</ele>
        <time>2012-03-25T07:35:33Z</time>
      </trkpt>
      <trkpt lat="48.38652" lon="2.59385">
        <ele>102.99829101562</ele>
        <time>2012-03-25T07:35:40Z</time>
      </trkpt>
      <trkpt lat="48.38657" lon="2.59404">
        <ele>103.47900390625</ele>
        <time>2012-03-25T07:35:46Z</time>
      </trkpt>
      <trkpt lat="48.38662" lon="2.59433">
        <ele>103.95971679688</ele>
        <time>2012-03-25T07:35:54Z</time>
      </trkpt>
      <trkpt lat="48.38668" lon="2.59473">
        <ele>104.4404296875</ele>
        <time>2012-03-25T07:36:03Z</time>
      </trkpt>
      <trkpt lat="48.38668" lon="2.59509">
        <ele>104.4404296875</ele>
        <time>2012-03-25T07:36:11Z</time>
      </trkpt>
      <trkpt lat="48.38666" lon="2.59533">
        <ele>104.92102050781</ele>
        <time>2012-03-25T07:36:16Z</time>
      </trkpt>
      <trkpt lat="48.38664" lon="2.59572">
        <ele>105.88244628906</ele>
        <time>2012-03-25T07:36:24Z</time>
      </trkpt>
      <trkpt lat="48.38662" lon="2.59598">
        <ele>105.88244628906</ele>
        <time>2012-03-25T07:36:29Z</time>
      </trkpt>
      <trkpt lat="48.38658" lon="2.59624">
        <ele>105.40173339844</ele>
        <time>2012-03-25T07:36:34Z</time>
      </trkpt>
      <trkpt lat="48.38655" lon="2.59664">
        <ele>106.36303710938</ele>
        <time>2012-03-25T07:36:41Z</time>
      </trkpt>
      <trkpt lat="48.38651" lon="2.59705">
        <ele>105.40173339844</ele>
        <time>2012-03-25T07:36:48Z</time>
      </trkpt>
      <trkpt lat="48.38648" lon="2.59737">
        <ele>106.36303710938</ele>
        <time>2012-03-25T07:36:54Z</time>
      </trkpt>
      <trkpt lat="48.38646" lon="2.59766">
        <ele>105.88244628906</ele>
        <time>2012-03-25T07:36:59Z</time>
      </trkpt>
      <trkpt lat="48.38644" lon="2.59811">
        <ele>106.84362792969</ele>
        <time>2012-03-25T07:37:06Z</time>
      </trkpt>
      <trkpt lat="48.38641" lon="2.59859">
        <ele>106.84362792969</ele>
        <time>2012-03-25T07:37:14Z</time>
      </trkpt>
      <trkpt lat="48.38637" lon="2.59915">
        <ele>106.84362792969</ele>
        <time>2012-03-25T07:37:23Z</time>
      </trkpt>
      <trkpt lat="48.38648" lon="2.5992">
        <ele>106.36303710938</ele>
        <time>2012-03-25T07:37:27Z</time>
      </trkpt>
      <trkpt lat="48.38651" lon="2.59918">
        <ele>106.84362792969</ele>
        <time>2012-03-25T07:37:28Z</time>
      </trkpt>
      <trkpt lat="48.38676" lon="2.59895">
        <ele>105.88244628906</ele>
        <time>2012-03-25T07:37:35Z</time>
      </trkpt>
      <trkpt lat="48.38691" lon="2.59891">
        <ele>106.36303710938</ele>
        <time>2012-03-25T07:37:39Z</time>
      </trkpt>
      <trkpt lat="48.38705" lon="2.59891">
        <ele>107.32434082031</ele>
        <time>2012-03-25T07:37:43Z</time>
      </trkpt>
      <trkpt lat="48.38726" lon="2.59903">
        <ele>108.28564453125</ele>
        <time>2012-03-25T07:37:49Z</time>
      </trkpt>
      <trkpt lat="48.38733" lon="2.59905">
        <ele>108.28564453125</ele>
        <time>2012-03-25T07:37:51Z</time>
      </trkpt>
      <trkpt lat="48.38749" lon="2.59896">
        <ele>107.80505371094</ele>
        <time>2012-03-25T07:37:56Z</time>
      </trkpt>
      <trkpt lat="48.38761" lon="2.5988">
        <ele>108.28564453125</ele>
        <time>2012-03-25T07:38:00Z</time>
      </trkpt>
      <trkpt lat="48.3879" lon="2.59841">
        <ele>107.80505371094</ele>
        <time>2012-03-25T07:38:09Z</time>
      </trkpt>
      <trkpt lat="48.38799" lon="2.59815">
        <ele>108.76623535156</ele>
        <time>2012-03-25T07:38:14Z</time>
      </trkpt>
      <trkpt lat="48.38802" lon="2.5981">
        <ele>108.76623535156</ele>
        <time>2012-03-25T07:38:15Z</time>
      </trkpt>
      <trkpt lat="48.38818" lon="2.59799">
        <ele>107.80505371094</ele>
        <time>2012-03-25T07:38:19Z</time>
      </trkpt>
      <trkpt lat="48.3884" lon="2.59798">
        <ele>106.36303710938</ele>
        <time>2012-03-25T07:38:24Z</time>
      </trkpt>
      <trkpt lat="48.38861" lon="2.59791">
        <ele>106.36303710938</ele>
        <time>2012-03-25T07:38:29Z</time>
      </trkpt>
      <trkpt lat="48.38883" lon="2.59781">
        <ele>106.36303710938</ele>
        <time>2012-03-25T07:38:34Z</time>
      </trkpt>
      <trkpt lat="48.38896" lon="2.59782">
        <ele>106.36303710938</ele>
        <time>2012-03-25T07:38:37Z</time>
      </trkpt>
      <trkpt lat="48.38905" lon="2.59785">
        <ele>107.80505371094</ele>
        <time>2012-03-25T07:38:39Z</time>
      </trkpt>
      <trkpt lat="48.38934" lon="2.59791">
        <ele>108.76623535156</ele>
        <time>2012-03-25T07:38:46Z</time>
      </trkpt>
      <trkpt lat="48.38962" lon="2.59795">
        <ele>108.76623535156</ele>
        <time>2012-03-25T07:38:53Z</time>
      </trkpt>
      <trkpt lat="48.38989" lon="2.598">
        <ele>109.24694824219</ele>
        <time>2012-03-25T07:38:59Z</time>
      </trkpt>
      <trkpt lat="48.39018" lon="2.59804">
        <ele>110.68884277344</ele>
        <time>2012-03-25T07:39:06Z</time>
      </trkpt>
      <trkpt lat="48.3904" lon="2.59808">
        <ele>109.72766113281</ele>
        <time>2012-03-25T07:39:11Z</time>
      </trkpt>
      <trkpt lat="48.39072" lon="2.59814">
        <ele>110.20825195312</ele>
        <time>2012-03-25T07:39:18Z</time>
      </trkpt>
      <trkpt lat="48.39093" lon="2.59817">
        <ele>109.72766113281</ele>
        <time>2012-03-25T07:39:22Z</time>
      </trkpt>
      <trkpt lat="48.39128" lon="2.59824">
        <ele>108.76623535156</ele>
        <time>2012-03-25T07:39:29Z</time>
      </trkpt>
      <trkpt lat="48.39141" lon="2.59826">
        <ele>108.76623535156</ele>
        <time>2012-03-25T07:39:32Z</time>
      </trkpt>
      <trkpt lat="48.39182" lon="2.59835">
        <ele>105.88244628906</ele>
        <time>2012-03-25T07:39:39Z</time>
      </trkpt>
      <trkpt lat="48.39206" lon="2.59839">
        <ele>103.95971679688</ele>
        <time>2012-03-25T07:39:43Z</time>
      </trkpt>
      <trkpt lat="48.39238" lon="2.59845">
        <ele>100.11450195312</ele>
        <time>2012-03-25T07:39:48Z</time>
      </trkpt>
      <trkpt lat="48.39257" lon="2.59848">
        <ele>98.19189453125</ele>
        <time>2012-03-25T07:39:51Z</time>
      </trkpt>
      <trkpt lat="48.39273" lon="2.59849">
        <ele>93.865844726562</ele>
        <time>2012-03-25T07:39:53Z</time>
      </trkpt>
      <trkpt lat="48.39282" lon="2.59851">
        <ele>92.423950195312</ele>
        <time>2012-03-25T07:39:54Z</time>
      </trkpt>
      <trkpt lat="48.39326" lon="2.59874">
        <ele>86.17529296875</ele>
        <time>2012-03-25T07:39:58Z</time>
      </trkpt>
      <trkpt lat="48.3936" lon="2.59896">
        <ele>82.330078125</ele>
        <time>2012-03-25T07:40:01Z</time>
      </trkpt>
      <trkpt lat="48.39404" lon="2.59925">
        <ele>79.446044921875</ele>
        <time>2012-03-25T07:40:05Z</time>
      </trkpt>
      <trkpt lat="48.39448" lon="2.5995">
        <ele>77.042846679688</ele>
        <time>2012-03-25T07:40:09Z</time>
      </trkpt>
      <trkpt lat="48.39478" lon="2.59969">
        <ele>76.562133789062</ele>
        <time>2012-03-25T07:40:12Z</time>
      </trkpt>
      <trkpt lat="48.39494" lon="2.59972">
        <ele>73.197631835938</ele>
        <time>2012-03-25T07:40:15Z</time>
      </trkpt>
      <trkpt lat="48.39496" lon="2.59969">
        <ele>73.197631835938</ele>
        <time>2012-03-25T07:40:16Z</time>
      </trkpt>
      <trkpt lat="48.39499" lon="2.5995">
        <ele>73.67822265625</ele>
        <time>2012-03-25T07:40:20Z</time>
      </trkpt>
      <trkpt lat="48.395" lon="2.59944">
        <ele>73.197631835938</ele>
        <time>2012-03-25T07:40:21Z</time>
      </trkpt>
      <trkpt lat="48.39505" lon="2.59917">
        <ele>73.197631835938</ele>
        <time>2012-03-25T07:40:25Z</time>
      </trkpt>
      <trkpt lat="48.39506" lon="2.59897">
        <ele>73.197631835938</ele>
        <time>2012-03-25T07:40:28Z</time>
      </trkpt>
      <trkpt lat="48.39513" lon="2.59862">
        <ele>72.716918945312</ele>
        <time>2012-03-25T07:40:34Z</time>
      </trkpt>
      <trkpt lat="48.39518" lon="2.59827">
        <ele>72.716918945312</ele>
        <time>2012-03-25T07:40:40Z</time>
      </trkpt>
      <trkpt lat="48.39523" lon="2.59795">
        <ele>72.716918945312</ele>
        <time>2012-03-25T07:40:46Z</time>
      </trkpt>
      <trkpt lat="48.39527" lon="2.5977">
        <ele>73.197631835938</ele>
        <time>2012-03-25T07:40:51Z</time>
      </trkpt>
      <trkpt lat="48.39533" lon="2.59728">
        <ele>72.236206054688</ele>
        <time>2012-03-25T07:40:58Z</time>
      </trkpt>
      <trkpt lat="48.39542" lon="2.59678">
        <ele>71.755493164062</ele>
        <time>2012-03-25T07:41:06Z</time>
      </trkpt>
      <trkpt lat="48.39552" lon="2.59617">
        <ele>71.27490234375</ele>
        <time>2012-03-25T07:41:16Z</time>
      </trkpt>
      <trkpt lat="48.39557" lon="2.59591">
        <ele>69.832885742188</ele>
        <time>2012-03-25T07:41:21Z</time>
      </trkpt>
      <trkpt lat="48.39561" lon="2.59558">
        <ele>70.3134765625</ele>
        <time>2012-03-25T07:41:27Z</time>
      </trkpt>
      <trkpt lat="48.39567" lon="2.59521">
        <ele>69.832885742188</ele>
        <time>2012-03-25T07:41:33Z</time>
      </trkpt>
      <trkpt lat="48.39567" lon="2.59516">
        <ele>69.832885742188</ele>
        <time>2012-03-25T07:41:34Z</time>
      </trkpt>
      <trkpt lat="48.39573" lon="2.59473">
        <ele>69.832885742188</ele>
        <time>2012-03-25T07:41:41Z</time>
      </trkpt>
      <trkpt lat="48.39581" lon="2.59419">
        <ele>69.352294921875</ele>
        <time>2012-03-25T07:41:49Z</time>
      </trkpt>
      <trkpt lat="48.3959" lon="2.59358">
        <ele>68.87158203125</ele>
        <time>2012-03-25T07:41:58Z</time>
      </trkpt>
      <trkpt lat="48.39597" lon="2.59305">
        <ele>68.87158203125</ele>
        <time>2012-03-25T07:42:06Z</time>
      </trkpt>
      <trkpt lat="48.39599" lon="2.59293">
        <ele>68.87158203125</ele>
        <time>2012-03-25T07:42:08Z</time>
      </trkpt>
      <trkpt lat="48.39601" lon="2.59281">
        <ele>68.390869140625</ele>
        <time>2012-03-25T07:42:10Z</time>
      </trkpt>
      <trkpt lat="48.39608" lon="2.59237">
        <ele>68.87158203125</ele>
        <time>2012-03-25T07:42:17Z</time>
      </trkpt>
      <trkpt lat="48.39611" lon="2.59217">
        <ele>68.87158203125</ele>
        <time>2012-03-25T07:42:20Z</time>
      </trkpt>
      <trkpt lat="48.39619" lon="2.5915">
        <ele>68.390869140625</ele>
        <time>2012-03-25T07:42:30Z</time>
      </trkpt>
      <trkpt lat="48.39621" lon="2.59135">
        <ele>68.390869140625</ele>
        <time>2012-03-25T07:42:32Z</time>
      </trkpt>
      <trkpt lat="48.39626" lon="2.59082">
        <ele>66.948974609375</ele>
        <time>2012-03-25T07:42:39Z</time>
      </trkpt>
      <trkpt lat="48.39631" lon="2.59032">
        <ele>65.987670898438</ele>
        <time>2012-03-25T07:42:46Z</time>
      </trkpt>
      <trkpt lat="48.39635" lon="2.58986">
        <ele>66.46826171875</ele>
        <time>2012-03-25T07:42:53Z</time>
      </trkpt>
      <trkpt lat="48.39637" lon="2.58973">
        <ele>65.987670898438</ele>
        <time>2012-03-25T07:42:55Z</time>
      </trkpt>
      <trkpt lat="48.39639" lon="2.58928">
        <ele>65.987670898438</ele>
        <time>2012-03-25T07:43:02Z</time>
      </trkpt>
      <trkpt lat="48.3964" lon="2.58922">
        <ele>65.507080078125</ele>
        <time>2012-03-25T07:43:03Z</time>
      </trkpt>
      <trkpt lat="48.39649" lon="2.58882">
        <ele>65.987670898438</ele>
        <time>2012-03-25T07:43:10Z</time>
      </trkpt>
      <trkpt lat="48.39659" lon="2.58868">
        <ele>66.46826171875</ele>
        <time>2012-03-25T07:43:14Z</time>
      </trkpt>
      <trkpt lat="48.39671" lon="2.58861">
        <ele>67.4296875</ele>
        <time>2012-03-25T07:43:19Z</time>
      </trkpt>
      <trkpt lat="48.39688" lon="2.58855">
        <ele>68.390869140625</ele>
        <time>2012-03-25T07:43:26Z</time>
      </trkpt>
      <trkpt lat="48.39701" lon="2.58853">
        <ele>70.3134765625</ele>
        <time>2012-03-25T07:43:31Z</time>
      </trkpt>
      <trkpt lat="48.39711" lon="2.5885">
        <ele>71.755493164062</ele>
        <time>2012-03-25T07:43:36Z</time>
      </trkpt>
      <trkpt lat="48.39725" lon="2.58845">
        <ele>73.67822265625</ele>
        <time>2012-03-25T07:43:42Z</time>
      </trkpt>
      <trkpt lat="48.3973" lon="2.58845">
        <ele>74.639526367188</ele>
        <time>2012-03-25T07:43:44Z</time>
      </trkpt>
      <trkpt lat="48.39745" lon="2.58852">
        <ele>75.120239257812</ele>
        <time>2012-03-25T07:43:50Z</time>
      </trkpt>
      <trkpt lat="48.39759" lon="2.58864">
        <ele>77.042846679688</ele>
        <time>2012-03-25T07:43:57Z</time>
      </trkpt>
      <trkpt lat="48.39769" lon="2.58874">
        <ele>78.484741210938</ele>
        <time>2012-03-25T07:44:02Z</time>
      </trkpt>
      <trkpt lat="48.39783" lon="2.58875">
        <ele>79.926635742188</ele>
        <time>2012-03-25T07:44:08Z</time>
      </trkpt>
      <trkpt lat="48.39788" lon="2.58878">
        <ele>80.88818359375</ele>
        <time>2012-03-25T07:44:10Z</time>
      </trkpt>
      <trkpt lat="48.39797" lon="2.58883">
        <ele>82.330078125</ele>
        <time>2012-03-25T07:44:14Z</time>
      </trkpt>
      <trkpt lat="48.39807" lon="2.58887">
        <ele>83.291381835938</ele>
        <time>2012-03-25T07:44:18Z</time>
      </trkpt>
      <trkpt lat="48.39823" lon="2.58892">
        <ele>85.213989257812</ele>
        <time>2012-03-25T07:44:25Z</time>
      </trkpt>
      <trkpt lat="48.39828" lon="2.58907">
        <ele>85.694580078125</ele>
        <time>2012-03-25T07:44:31Z</time>
      </trkpt>
      <trkpt lat="48.39832" lon="2.58925">
        <ele>86.656005859375</ele>
        <time>2012-03-25T07:44:38Z</time>
      </trkpt>
      <trkpt lat="48.39834" lon="2.58946">
        <ele>88.098022460938</ele>
        <time>2012-03-25T07:44:46Z</time>
      </trkpt>
      <trkpt lat="48.39837" lon="2.58967">
        <ele>89.539916992188</ele>
        <time>2012-03-25T07:44:55Z</time>
      </trkpt>
      <trkpt lat="48.39838" lon="2.58978">
        <ele>91.462524414062</ele>
        <time>2012-03-25T07:45:00Z</time>
      </trkpt>
      <trkpt lat="48.39841" lon="2.58991">
        <ele>93.385131835938</ele>
        <time>2012-03-25T07:45:07Z</time>
      </trkpt>
      <trkpt lat="48.3985" lon="2.59">
        <ele>94.8271484375</ele>
        <time>2012-03-25T07:45:14Z</time>
      </trkpt>
      <trkpt lat="48.39859" lon="2.58996">
        <ele>95.307739257812</ele>
        <time>2012-03-25T07:45:21Z</time>
      </trkpt>
      <trkpt lat="48.3987" lon="2.58991">
        <ele>96.269287109375</ele>
        <time>2012-03-25T07:45:29Z</time>
      </trkpt>
      <trkpt lat="48.3988" lon="2.58988">
        <ele>96.269287109375</ele>
        <time>2012-03-25T07:45:35Z</time>
      </trkpt>
      <trkpt lat="48.39893" lon="2.58983">
        <ele>96.749877929688</ele>
        <time>2012-03-25T07:45:42Z</time>
      </trkpt>
      <trkpt lat="48.39902" lon="2.58991">
        <ele>97.23046875</ele>
        <time>2012-03-25T07:45:46Z</time>
      </trkpt>
      <trkpt lat="48.39907" lon="2.59001">
        <ele>96.749877929688</ele>
        <time>2012-03-25T07:45:48Z</time>
      </trkpt>
      <trkpt lat="48.39924" lon="2.59042">
        <ele>94.346557617188</ele>
        <time>2012-03-25T07:45:54Z</time>
      </trkpt>
      <trkpt lat="48.39927" lon="2.59051">
        <ele>92.423950195312</ele>
        <time>2012-03-25T07:45:55Z</time>
      </trkpt>
      <trkpt lat="48.3993" lon="2.5909">
        <ele>92.904541015625</ele>
        <time>2012-03-25T07:45:59Z</time>
      </trkpt>
      <trkpt lat="48.39922" lon="2.59119">
        <ele>94.346557617188</ele>
        <time>2012-03-25T07:46:03Z</time>
      </trkpt>
      <trkpt lat="48.39921" lon="2.59149">
        <ele>95.307739257812</ele>
        <time>2012-03-25T07:46:08Z</time>
      </trkpt>
      <trkpt lat="48.39922" lon="2.59174">
        <ele>95.788452148438</ele>
        <time>2012-03-25T07:46:14Z</time>
      </trkpt>
      <trkpt lat="48.39928" lon="2.59191">
        <ele>96.269287109375</ele>
        <time>2012-03-25T07:46:19Z</time>
      </trkpt>
      <trkpt lat="48.39931" lon="2.59214">
        <ele>97.23046875</ele>
        <time>2012-03-25T07:46:25Z</time>
      </trkpt>
      <trkpt lat="48.39934" lon="2.59233">
        <ele>98.19189453125</ele>
        <time>2012-03-25T07:46:31Z</time>
      </trkpt>
      <trkpt lat="48.39936" lon="2.59249">
        <ele>100.11450195312</ele>
        <time>2012-03-25T07:46:37Z</time>
      </trkpt>
      <trkpt lat="48.39937" lon="2.59257">
        <ele>101.55639648438</ele>
        <time>2012-03-25T07:46:40Z</time>
      </trkpt>
      <trkpt lat="48.39939" lon="2.59269">
        <ele>102.99829101562</ele>
        <time>2012-03-25T07:46:44Z</time>
      </trkpt>
      <trkpt lat="48.39939" lon="2.59288">
        <ele>104.92102050781</ele>
        <time>2012-03-25T07:46:50Z</time>
      </trkpt>
      <trkpt lat="48.39931" lon="2.59307">
        <ele>106.36303710938</ele>
        <time>2012-03-25T07:46:56Z</time>
      </trkpt>
      <trkpt lat="48.39927" lon="2.59329">
        <ele>106.84362792969</ele>
        <time>2012-03-25T07:47:02Z</time>
      </trkpt>
      <trkpt lat="48.39928" lon="2.59348">
        <ele>106.84362792969</ele>
        <time>2012-03-25T07:47:08Z</time>
      </trkpt>
      <trkpt lat="48.3993" lon="2.5935">
        <ele>104.92102050781</ele>
        <time>2012-03-25T07:47:12Z</time>
      </trkpt>
      <trkpt lat="48.39935" lon="2.59351">
        <ele>105.40173339844</ele>
        <time>2012-03-25T07:48:40Z</time>
      </trkpt>
      <trkpt lat="48.39933" lon="2.59367">
        <ele>105.40173339844</ele>
        <time>2012-03-25T07:48:45Z</time>
      </trkpt>
      <trkpt lat="48.39939" lon="2.59388">
        <ele>105.88244628906</ele>
        <time>2012-03-25T07:48:49Z</time>
      </trkpt>
      <trkpt lat="48.39943" lon="2.59396">
        <ele>105.40173339844</ele>
        <time>2012-03-25T07:48:51Z</time>
      </trkpt>
      <trkpt lat="48.39949" lon="2.59423">
        <ele>102.037109375</ele>
        <time>2012-03-25T07:48:55Z</time>
      </trkpt>
      <trkpt lat="48.39936" lon="2.59449">
        <ele>100.11450195312</ele>
        <time>2012-03-25T07:48:59Z</time>
      </trkpt>
      <trkpt lat="48.39928" lon="2.59452">
        <ele>99.153076171875</ele>
        <time>2012-03-25T07:49:00Z</time>
      </trkpt>
      <trkpt lat="48.39916" lon="2.59455">
        <ele>98.19189453125</ele>
        <time>2012-03-25T07:49:02Z</time>
      </trkpt>
      <trkpt lat="48.39902" lon="2.59456">
        <ele>97.23046875</ele>
        <time>2012-03-25T07:49:04Z</time>
      </trkpt>
      <trkpt lat="48.39881" lon="2.59476">
        <ele>95.788452148438</ele>
        <time>2012-03-25T07:49:08Z</time>
      </trkpt>
      <trkpt lat="48.3988" lon="2.59498">
        <ele>96.269287109375</ele>
        <time>2012-03-25T07:49:11Z</time>
      </trkpt>
      <trkpt lat="48.39882" lon="2.59569">
        <ele>97.23046875</ele>
        <time>2012-03-25T07:49:19Z</time>
      </trkpt>
      <trkpt lat="48.39882" lon="2.59576">
        <ele>97.23046875</ele>
        <time>2012-03-25T07:49:20Z</time>
      </trkpt>
      <trkpt lat="48.39882" lon="2.59583">
        <ele>96.749877929688</ele>
        <time>2012-03-25T07:49:21Z</time>
      </trkpt>
      <trkpt lat="48.39885" lon="2.59635">
        <ele>97.711181640625</ele>
        <time>2012-03-25T07:49:28Z</time>
      </trkpt>
      <trkpt lat="48.39888" lon="2.59685">
        <ele>98.672485351562</ele>
        <time>2012-03-25T07:49:35Z</time>
      </trkpt>
      <trkpt lat="48.3989" lon="2.59719">
        <ele>98.672485351562</ele>
        <time>2012-03-25T07:49:40Z</time>
      </trkpt>
      <trkpt lat="48.39891" lon="2.59733">
        <ele>99.153076171875</ele>
        <time>2012-03-25T07:49:42Z</time>
      </trkpt>
      <trkpt lat="48.39897" lon="2.59785">
        <ele>100.11450195312</ele>
        <time>2012-03-25T07:49:50Z</time>
      </trkpt>
      <trkpt lat="48.39905" lon="2.59818">
        <ele>100.11450195312</ele>
        <time>2012-03-25T07:49:56Z</time>
      </trkpt>
      <trkpt lat="48.39907" lon="2.59835">
        <ele>100.59509277344</ele>
        <time>2012-03-25T07:49:59Z</time>
      </trkpt>
      <trkpt lat="48.39902" lon="2.59867">
        <ele>100.11450195312</ele>
        <time>2012-03-25T07:50:04Z</time>
      </trkpt>
      <trkpt lat="48.39894" lon="2.59883">
        <ele>100.59509277344</ele>
        <time>2012-03-25T07:50:07Z</time>
      </trkpt>
      <trkpt lat="48.39881" lon="2.59907">
        <ele>99.153076171875</ele>
        <time>2012-03-25T07:50:12Z</time>
      </trkpt>
      <trkpt lat="48.39861" lon="2.59945">
        <ele>99.153076171875</ele>
        <time>2012-03-25T07:50:19Z</time>
      </trkpt>
      <trkpt lat="48.39841" lon="2.59986">
        <ele>98.672485351562</ele>
        <time>2012-03-25T07:50:26Z</time>
      </trkpt>
      <trkpt lat="48.39835" lon="2.59997">
        <ele>99.153076171875</ele>
        <time>2012-03-25T07:50:28Z</time>
      </trkpt>
      <trkpt lat="48.39824" lon="2.60046">
        <ele>98.672485351562</ele>
        <time>2012-03-25T07:50:35Z</time>
      </trkpt>
      <trkpt lat="48.39823" lon="2.60053">
        <ele>98.672485351562</ele>
        <time>2012-03-25T07:50:36Z</time>
      </trkpt>
      <trkpt lat="48.39817" lon="2.60088">
        <ele>98.672485351562</ele>
        <time>2012-03-25T07:50:41Z</time>
      </trkpt>
      <trkpt lat="48.39814" lon="2.60108">
        <ele>98.19189453125</ele>
        <time>2012-03-25T07:50:44Z</time>
      </trkpt>
      <trkpt lat="48.39807" lon="2.60145">
        <ele>98.19189453125</ele>
        <time>2012-03-25T07:50:49Z</time>
      </trkpt>
      <trkpt lat="48.39795" lon="2.60203">
        <ele>98.19189453125</ele>
        <time>2012-03-25T07:50:57Z</time>
      </trkpt>
      <trkpt lat="48.39793" lon="2.60217">
        <ele>98.19189453125</ele>
        <time>2012-03-25T07:50:59Z</time>
      </trkpt>
      <trkpt lat="48.39796" lon="2.60244">
        <ele>98.672485351562</ele>
        <time>2012-03-25T07:51:04Z</time>
      </trkpt>
      <trkpt lat="48.39806" lon="2.60261">
        <ele>100.11450195312</ele>
        <time>2012-03-25T07:51:08Z</time>
      </trkpt>
      <trkpt lat="48.39817" lon="2.60283">
        <ele>99.6337890625</ele>
        <time>2012-03-25T07:51:13Z</time>
      </trkpt>
      <trkpt lat="48.39837" lon="2.60334">
        <ele>100.11450195312</ele>
        <time>2012-03-25T07:51:21Z</time>
      </trkpt>
      <trkpt lat="48.39856" lon="2.60384">
        <ele>100.59509277344</ele>
        <time>2012-03-25T07:51:29Z</time>
      </trkpt>
      <trkpt lat="48.39859" lon="2.6039">
        <ele>99.6337890625</ele>
        <time>2012-03-25T07:51:30Z</time>
      </trkpt>
      <trkpt lat="48.39873" lon="2.60404">
        <ele>100.59509277344</ele>
        <time>2012-03-25T07:51:34Z</time>
      </trkpt>
      <trkpt lat="48.39877" lon="2.60403">
        <ele>100.59509277344</ele>
        <time>2012-03-25T07:51:35Z</time>
      </trkpt>
      <trkpt lat="48.39901" lon="2.60404">
        <ele>101.07568359375</ele>
        <time>2012-03-25T07:51:41Z</time>
      </trkpt>
      <trkpt lat="48.39906" lon="2.60407">
        <ele>101.07568359375</ele>
        <time>2012-03-25T07:51:42Z</time>
      </trkpt>
      <trkpt lat="48.39941" lon="2.60432">
        <ele>100.59509277344</ele>
        <time>2012-03-25T07:51:50Z</time>
      </trkpt>
      <trkpt lat="48.39964" lon="2.60451">
        <ele>100.59509277344</ele>
        <time>2012-03-25T07:51:56Z</time>
      </trkpt>
      <trkpt lat="48.39974" lon="2.6044">
        <ele>101.55639648438</ele>
        <time>2012-03-25T07:52:00Z</time>
      </trkpt>
      <trkpt lat="48.39985" lon="2.604">
        <ele>103.47900390625</ele>
        <time>2012-03-25T07:52:08Z</time>
      </trkpt>
      <trkpt lat="48.39991" lon="2.60379">
        <ele>102.99829101562</ele>
        <time>2012-03-25T07:52:13Z</time>
      </trkpt>
      <trkpt lat="48.39992" lon="2.60372">
        <ele>104.4404296875</ele>
        <time>2012-03-25T07:52:15Z</time>
      </trkpt>
      <trkpt lat="48.4" lon="2.60345">
        <ele>104.92102050781</ele>
        <time>2012-03-25T07:52:21Z</time>
      </trkpt>
      <trkpt lat="48.40002" lon="2.60337">
        <ele>104.92102050781</ele>
        <time>2012-03-25T07:52:23Z</time>
      </trkpt>
      <trkpt lat="48.40015" lon="2.60317">
        <ele>105.40173339844</ele>
        <time>2012-03-25T07:52:30Z</time>
      </trkpt>
      <trkpt lat="48.40026" lon="2.60302">
        <ele>106.84362792969</ele>
        <time>2012-03-25T07:52:36Z</time>
      </trkpt>
      <trkpt lat="48.40034" lon="2.60298">
        <ele>107.80505371094</ele>
        <time>2012-03-25T07:52:40Z</time>
      </trkpt>
      <trkpt lat="48.40045" lon="2.60285">
        <ele>108.76623535156</ele>
        <time>2012-03-25T07:52:47Z</time>
      </trkpt>
      <trkpt lat="48.40047" lon="2.60281">
        <ele>109.24694824219</ele>
        <time>2012-03-25T07:52:49Z</time>
      </trkpt>
      <trkpt lat="48.4005" lon="2.60277">
        <ele>109.24694824219</ele>
        <time>2012-03-25T07:52:52Z</time>
      </trkpt>
      <trkpt lat="48.40054" lon="2.60274">
        <ele>110.68884277344</ele>
        <time>2012-03-25T07:52:55Z</time>
      </trkpt>
      <trkpt lat="48.40069" lon="2.60267">
        <ele>113.09228515625</ele>
        <time>2012-03-25T07:53:02Z</time>
      </trkpt>
      <trkpt lat="48.40092" lon="2.60261">
        <ele>113.09228515625</ele>
        <time>2012-03-25T07:53:09Z</time>
      </trkpt>
      <trkpt lat="48.40099" lon="2.60257">
        <ele>113.09228515625</ele>
        <time>2012-03-25T07:53:13Z</time>
      </trkpt>
      <trkpt lat="48.40106" lon="2.60254">
        <ele>113.09228515625</ele>
        <time>2012-03-25T07:53:18Z</time>
      </trkpt>
      <trkpt lat="48.4011" lon="2.60252">
        <ele>113.09228515625</ele>
        <time>2012-03-25T07:53:23Z</time>
      </trkpt>
      <trkpt lat="48.40121" lon="2.6025">
        <ele>113.57299804688</ele>
        <time>2012-03-25T07:53:29Z</time>
      </trkpt>
      <trkpt lat="48.40132" lon="2.60245">
        <ele>113.57299804688</ele>
        <time>2012-03-25T07:53:32Z</time>
      </trkpt>
      <trkpt lat="48.40155" lon="2.6024">
        <ele>115.01489257812</ele>
        <time>2012-03-25T07:53:37Z</time>
      </trkpt>
      <trkpt lat="48.40166" lon="2.60237">
        <ele>113.57299804688</ele>
        <time>2012-03-25T07:53:40Z</time>
      </trkpt>
      <trkpt lat="48.40184" lon="2.60229">
        <ele>112.61157226562</ele>
        <time>2012-03-25T07:53:45Z</time>
      </trkpt>
      <trkpt lat="48.40208" lon="2.6022">
        <ele>113.09228515625</ele>
        <time>2012-03-25T07:53:50Z</time>
      </trkpt>
      <trkpt lat="48.40224" lon="2.60209">
        <ele>112.61157226562</ele>
        <time>2012-03-25T07:53:54Z</time>
      </trkpt>
      <trkpt lat="48.40233" lon="2.60194">
        <ele>112.13098144531</ele>
        <time>2012-03-25T07:53:58Z</time>
      </trkpt>
      <trkpt lat="48.40233" lon="2.60189">
        <ele>112.13098144531</ele>
        <time>2012-03-25T07:53:59Z</time>
      </trkpt>
      <trkpt lat="48.40236" lon="2.60166">
        <ele>111.65026855469</ele>
        <time>2012-03-25T07:54:03Z</time>
      </trkpt>
      <trkpt lat="48.40234" lon="2.60135">
        <ele>110.68884277344</ele>
        <time>2012-03-25T07:54:08Z</time>
      </trkpt>
      <trkpt lat="48.40229" lon="2.60101">
        <ele>110.20825195312</ele>
        <time>2012-03-25T07:54:14Z</time>
      </trkpt>
      <trkpt lat="48.4023" lon="2.60081">
        <ele>109.24694824219</ele>
        <time>2012-03-25T07:54:17Z</time>
      </trkpt>
      <trkpt lat="48.40233" lon="2.60053">
        <ele>109.24694824219</ele>
        <time>2012-03-25T07:54:21Z</time>
      </trkpt>
      <trkpt lat="48.40237" lon="2.60023">
        <ele>108.76623535156</ele>
        <time>2012-03-25T07:54:25Z</time>
      </trkpt>
      <trkpt lat="48.40246" lon="2.59979">
        <ele>108.28564453125</ele>
        <time>2012-03-25T07:54:31Z</time>
      </trkpt>
      <trkpt lat="48.40251" lon="2.59939">
        <ele>106.84362792969</ele>
        <time>2012-03-25T07:54:36Z</time>
      </trkpt>
      <trkpt lat="48.40255" lon="2.59889">
        <ele>105.40173339844</ele>
        <time>2012-03-25T07:54:42Z</time>
      </trkpt>
      <trkpt lat="48.40255" lon="2.59871">
        <ele>105.40173339844</ele>
        <time>2012-03-25T07:54:44Z</time>
      </trkpt>
      <trkpt lat="48.40251" lon="2.59821">
        <ele>103.95971679688</ele>
        <time>2012-03-25T07:54:50Z</time>
      </trkpt>
      <trkpt lat="48.40258" lon="2.5978">
        <ele>102.99829101562</ele>
        <time>2012-03-25T07:54:55Z</time>
      </trkpt>
      <trkpt lat="48.40271" lon="2.59744">
        <ele>101.55639648438</ele>
        <time>2012-03-25T07:54:59Z</time>
      </trkpt>
      <trkpt lat="48.4028" lon="2.59689">
        <ele>100.11450195312</ele>
        <time>2012-03-25T07:55:04Z</time>
      </trkpt>
      <trkpt lat="48.40283" lon="2.59664">
        <ele>97.23046875</ele>
        <time>2012-03-25T07:55:06Z</time>
      </trkpt>
      <trkpt lat="48.40283" lon="2.59626">
        <ele>95.788452148438</ele>
        <time>2012-03-25T07:55:09Z</time>
      </trkpt>
      <trkpt lat="48.40281" lon="2.5957">
        <ele>92.423950195312</ele>
        <time>2012-03-25T07:55:13Z</time>
      </trkpt>
      <trkpt lat="48.40281" lon="2.59557">
        <ele>92.904541015625</ele>
        <time>2012-03-25T07:55:14Z</time>
      </trkpt>
      <trkpt lat="48.40284" lon="2.5953">
        <ele>90.98193359375</ele>
        <time>2012-03-25T07:55:16Z</time>
      </trkpt>
      <trkpt lat="48.40289" lon="2.59457">
        <ele>88.578735351562</ele>
        <time>2012-03-25T07:55:21Z</time>
      </trkpt>
      <trkpt lat="48.40292" lon="2.59442">
        <ele>87.136596679688</ele>
        <time>2012-03-25T07:55:22Z</time>
      </trkpt>
      <trkpt lat="48.40294" lon="2.594">
        <ele>83.291381835938</ele>
        <time>2012-03-25T07:55:25Z</time>
      </trkpt>
      <trkpt lat="48.40291" lon="2.59372">
        <ele>82.810791015625</ele>
        <time>2012-03-25T07:55:27Z</time>
      </trkpt>
      <trkpt lat="48.40281" lon="2.59295">
        <ele>80.88818359375</ele>
        <time>2012-03-25T07:55:32Z</time>
      </trkpt>
      <trkpt lat="48.40276" lon="2.59202">
        <ele>77.5234375</ele>
        <time>2012-03-25T07:55:38Z</time>
      </trkpt>
      <trkpt lat="48.40275" lon="2.59188">
        <ele>78.004028320312</ele>
        <time>2012-03-25T07:55:39Z</time>
      </trkpt>
      <trkpt lat="48.40271" lon="2.5916">
        <ele>76.081420898438</ele>
        <time>2012-03-25T07:55:41Z</time>
      </trkpt>
      <trkpt lat="48.40268" lon="2.59117">
        <ele>74.158813476562</ele>
        <time>2012-03-25T07:55:44Z</time>
      </trkpt>
      <trkpt lat="48.40261" lon="2.59049">
        <ele>72.716918945312</ele>
        <time>2012-03-25T07:55:49Z</time>
      </trkpt>
      <trkpt lat="48.40258" lon="2.59024">
        <ele>72.236206054688</ele>
        <time>2012-03-25T07:55:51Z</time>
      </trkpt>
      <trkpt lat="48.40252" lon="2.58939">
        <ele>70.3134765625</ele>
        <time>2012-03-25T07:55:58Z</time>
      </trkpt>
      <trkpt lat="48.40244" lon="2.58873">
        <ele>69.352294921875</ele>
        <time>2012-03-25T07:56:04Z</time>
      </trkpt>
      <trkpt lat="48.40241" lon="2.58821">
        <ele>66.948974609375</ele>
        <time>2012-03-25T07:56:09Z</time>
      </trkpt>
      <trkpt lat="48.40239" lon="2.588">
        <ele>66.46826171875</ele>
        <time>2012-03-25T07:56:11Z</time>
      </trkpt>
      <trkpt lat="48.40242" lon="2.5875">
        <ele>65.0263671875</ele>
        <time>2012-03-25T07:56:16Z</time>
      </trkpt>
      <trkpt lat="48.40246" lon="2.58693">
        <ele>64.545654296875</ele>
        <time>2012-03-25T07:56:22Z</time>
      </trkpt>
      <trkpt lat="48.4025" lon="2.58658">
        <ele>64.065063476562</ele>
        <time>2012-03-25T07:56:26Z</time>
      </trkpt>
      <trkpt lat="48.40252" lon="2.58642">
        <ele>64.545654296875</ele>
        <time>2012-03-25T07:56:28Z</time>
      </trkpt>
      <trkpt lat="48.40255" lon="2.58593">
        <ele>65.0263671875</ele>
        <time>2012-03-25T07:56:34Z</time>
      </trkpt>
      <trkpt lat="48.40258" lon="2.58563">
        <ele>65.0263671875</ele>
        <time>2012-03-25T07:56:38Z</time>
      </trkpt>
      <trkpt lat="48.40261" lon="2.58541">
        <ele>63.584350585938</ele>
        <time>2012-03-25T07:56:41Z</time>
      </trkpt>
      <trkpt lat="48.40257" lon="2.58509">
        <ele>62.622924804688</ele>
        <time>2012-03-25T07:56:45Z</time>
      </trkpt>
      <trkpt lat="48.40254" lon="2.58485">
        <ele>62.622924804688</ele>
        <time>2012-03-25T07:56:48Z</time>
      </trkpt>
      <trkpt lat="48.40257" lon="2.58447">
        <ele>62.142333984375</ele>
        <time>2012-03-25T07:56:53Z</time>
      </trkpt>
      <trkpt lat="48.40267" lon="2.58414">
        <ele>62.622924804688</ele>
        <time>2012-03-25T07:56:58Z</time>
      </trkpt>
      <trkpt lat="48.40275" lon="2.58417">
        <ele>63.584350585938</ele>
        <time>2012-03-25T07:57:01Z</time>
      </trkpt>
      <trkpt lat="48.40279" lon="2.5842">
        <ele>63.584350585938</ele>
        <time>2012-03-25T07:57:02Z</time>
      </trkpt>
      <trkpt lat="48.4031" lon="2.58442">
        <ele>63.584350585938</ele>
        <time>2012-03-25T07:57:09Z</time>
      </trkpt>
      <trkpt lat="48.40335" lon="2.58457">
        <ele>64.065063476562</ele>
        <time>2012-03-25T07:57:14Z</time>
      </trkpt>
      <trkpt lat="48.40367" lon="2.58478">
        <ele>64.545654296875</ele>
        <time>2012-03-25T07:57:20Z</time>
      </trkpt>
      <trkpt lat="48.40396" lon="2.58502">
        <ele>64.545654296875</ele>
        <time>2012-03-25T07:57:26Z</time>
      </trkpt>
      <trkpt lat="48.40425" lon="2.5852">
        <ele>64.065063476562</ele>
        <time>2012-03-25T07:57:31Z</time>
      </trkpt>
      <trkpt lat="48.40443" lon="2.58528">
        <ele>64.065063476562</ele>
        <time>2012-03-25T07:57:34Z</time>
      </trkpt>
      <trkpt lat="48.40467" lon="2.5853">
        <ele>64.545654296875</ele>
        <time>2012-03-25T07:57:38Z</time>
      </trkpt>
      <trkpt lat="48.40492" lon="2.58536">
        <ele>64.545654296875</ele>
        <time>2012-03-25T07:57:42Z</time>
      </trkpt>
      <trkpt lat="48.40516" lon="2.58551">
        <ele>65.0263671875</ele>
        <time>2012-03-25T07:57:46Z</time>
      </trkpt>
      <trkpt lat="48.40543" lon="2.58549">
        <ele>64.065063476562</ele>
        <time>2012-03-25T07:57:51Z</time>
      </trkpt>
      <trkpt lat="48.40548" lon="2.58543">
        <ele>64.065063476562</ele>
        <time>2012-03-25T07:57:52Z</time>
      </trkpt>
      <trkpt lat="48.40572" lon="2.58504">
        <ele>63.584350585938</ele>
        <time>2012-03-25T07:57:58Z</time>
      </trkpt>
      <trkpt lat="48.40582" lon="2.58476">
        <ele>64.065063476562</ele>
        <time>2012-03-25T07:58:02Z</time>
      </trkpt>
      <trkpt lat="48.40591" lon="2.58457">
        <ele>64.065063476562</ele>
        <time>2012-03-25T07:58:05Z</time>
      </trkpt>
      <trkpt lat="48.40603" lon="2.58431">
        <ele>64.065063476562</ele>
        <time>2012-03-25T07:58:09Z</time>
      </trkpt>
      <trkpt lat="48.40612" lon="2.58409">
        <ele>63.103637695312</ele>
        <time>2012-03-25T07:58:12Z</time>
      </trkpt>
      <trkpt lat="48.40619" lon="2.58371">
        <ele>62.622924804688</ele>
        <time>2012-03-25T07:58:17Z</time>
      </trkpt>
      <trkpt lat="48.40626" lon="2.58332">
        <ele>63.103637695312</ele>
        <time>2012-03-25T07:58:22Z</time>
      </trkpt>
      <trkpt lat="48.40637" lon="2.58285">
        <ele>62.622924804688</ele>
        <time>2012-03-25T07:58:28Z</time>
      </trkpt>
      <trkpt lat="48.40645" lon="2.58238">
        <ele>62.622924804688</ele>
        <time>2012-03-25T07:58:34Z</time>
      </trkpt>
      <trkpt lat="48.40652" lon="2.58201">
        <ele>63.103637695312</ele>
        <time>2012-03-25T07:58:39Z</time>
      </trkpt>
      <trkpt lat="48.40662" lon="2.58156">
        <ele>62.142333984375</ele>
        <time>2012-03-25T07:58:45Z</time>
      </trkpt>
      <trkpt lat="48.40664" lon="2.58148">
        <ele>62.142333984375</ele>
        <time>2012-03-25T07:58:46Z</time>
      </trkpt>
      <trkpt lat="48.40675" lon="2.58107">
        <ele>62.142333984375</ele>
        <time>2012-03-25T07:58:52Z</time>
      </trkpt>
      <trkpt lat="48.40681" lon="2.58079">
        <ele>62.622924804688</ele>
        <time>2012-03-25T07:58:56Z</time>
      </trkpt>
      <trkpt lat="48.40685" lon="2.58067">
        <ele>62.142333984375</ele>
        <time>2012-03-25T07:58:58Z</time>
      </trkpt>
      <trkpt lat="48.4069" lon="2.58046">
        <ele>62.142333984375</ele>
        <time>2012-03-25T07:59:01Z</time>
      </trkpt>
      <trkpt lat="48.40705" lon="2.58003">
        <ele>62.622924804688</ele>
        <time>2012-03-25T07:59:08Z</time>
      </trkpt>
      <trkpt lat="48.40715" lon="2.57973">
        <ele>62.622924804688</ele>
        <time>2012-03-25T07:59:13Z</time>
      </trkpt>
      <trkpt lat="48.40721" lon="2.57942">
        <ele>63.103637695312</ele>
        <time>2012-03-25T07:59:18Z</time>
      </trkpt>
      <trkpt lat="48.4073" lon="2.57924">
        <ele>62.622924804688</ele>
        <time>2012-03-25T07:59:22Z</time>
      </trkpt>
      <trkpt lat="48.40747" lon="2.57898">
        <ele>63.103637695312</ele>
        <time>2012-03-25T07:59:28Z</time>
      </trkpt>
      <trkpt lat="48.40761" lon="2.57893">
        <ele>64.545654296875</ele>
        <time>2012-03-25T07:59:32Z</time>
      </trkpt>
      <trkpt lat="48.40779" lon="2.57891">
        <ele>64.545654296875</ele>
        <time>2012-03-25T07:59:36Z</time>
      </trkpt>
      <trkpt lat="48.40796" lon="2.57881">
        <ele>64.065063476562</ele>
        <time>2012-03-25T07:59:40Z</time>
      </trkpt>
      <trkpt lat="48.40829" lon="2.57868">
        <ele>64.065063476562</ele>
        <time>2012-03-25T07:59:47Z</time>
      </trkpt>
      <trkpt lat="48.40851" lon="2.57863">
        <ele>64.545654296875</ele>
        <time>2012-03-25T07:59:53Z</time>
      </trkpt>
      <trkpt lat="48.4087" lon="2.57866">
        <ele>64.545654296875</ele>
        <time>2012-03-25T07:59:59Z</time>
      </trkpt>
      <trkpt lat="48.40889" lon="2.57875">
        <ele>64.545654296875</ele>
        <time>2012-03-25T08:00:04Z</time>
      </trkpt>
      <trkpt lat="48.40906" lon="2.57882">
        <ele>64.065063476562</ele>
        <time>2012-03-25T08:00:08Z</time>
      </trkpt>
      <trkpt lat="48.40926" lon="2.57895">
        <ele>64.065063476562</ele>
        <time>2012-03-25T08:00:13Z</time>
      </trkpt>
      <trkpt lat="48.40949" lon="2.57915">
        <ele>63.584350585938</ele>
        <time>2012-03-25T08:00:19Z</time>
      </trkpt>
      <trkpt lat="48.40957" lon="2.5792">
        <ele>64.065063476562</ele>
        <time>2012-03-25T08:00:21Z</time>
      </trkpt>
      <trkpt lat="48.40979" lon="2.57924">
        <ele>63.584350585938</ele>
        <time>2012-03-25T08:00:25Z</time>
      </trkpt>
      <trkpt lat="48.41008" lon="2.5792">
        <ele>63.103637695312</ele>
        <time>2012-03-25T08:00:31Z</time>
      </trkpt>
      <trkpt lat="48.4101" lon="2.57922">
        <ele>62.622924804688</ele>
        <time>2012-03-25T08:00:32Z</time>
      </trkpt>
      <trkpt lat="48.41019" lon="2.57954">
        <ele>63.103637695312</ele>
        <time>2012-03-25T08:00:37Z</time>
      </trkpt>
      <trkpt lat="48.41019" lon="2.57962">
        <ele>63.103637695312</ele>
        <time>2012-03-25T08:00:38Z</time>
      </trkpt>
      <trkpt lat="48.41021" lon="2.57986">
        <ele>63.103637695312</ele>
        <time>2012-03-25T08:00:41Z</time>
      </trkpt>
      <trkpt lat="48.41027" lon="2.58025">
        <ele>63.584350585938</ele>
        <time>2012-03-25T08:00:46Z</time>
      </trkpt>
      <trkpt lat="48.41031" lon="2.58093">
        <ele>63.584350585938</ele>
        <time>2012-03-25T08:00:54Z</time>
      </trkpt>
      <trkpt lat="48.41032" lon="2.58143">
        <ele>63.584350585938</ele>
        <time>2012-03-25T08:01:01Z</time>
      </trkpt>
      <trkpt lat="48.41033" lon="2.58159">
        <ele>63.584350585938</ele>
        <time>2012-03-25T08:01:03Z</time>
      </trkpt>
      <trkpt lat="48.41039" lon="2.58203">
        <ele>64.065063476562</ele>
        <time>2012-03-25T08:01:09Z</time>
      </trkpt>
      <trkpt lat="48.4105" lon="2.58257">
        <ele>64.065063476562</ele>
        <time>2012-03-25T08:01:16Z</time>
      </trkpt>
      <trkpt lat="48.41061" lon="2.58294">
        <ele>64.065063476562</ele>
        <time>2012-03-25T08:01:22Z</time>
      </trkpt>
      <trkpt lat="48.41071" lon="2.58315">
        <ele>63.103637695312</ele>
        <time>2012-03-25T08:01:26Z</time>
      </trkpt>
      <trkpt lat="48.41095" lon="2.58371">
        <ele>63.103637695312</ele>
        <time>2012-03-25T08:01:35Z</time>
      </trkpt>
      <trkpt lat="48.41109" lon="2.5841">
        <ele>62.142333984375</ele>
        <time>2012-03-25T08:01:41Z</time>
      </trkpt>
      <trkpt lat="48.41127" lon="2.58463">
        <ele>62.142333984375</ele>
        <time>2012-03-25T08:01:49Z</time>
      </trkpt>
      <trkpt lat="48.41132" lon="2.58475">
        <ele>62.622924804688</ele>
        <time>2012-03-25T08:01:51Z</time>
      </trkpt>
      <trkpt lat="48.41138" lon="2.58501">
        <ele>62.142333984375</ele>
        <time>2012-03-25T08:01:55Z</time>
      </trkpt>
      <trkpt lat="48.41153" lon="2.58553">
        <ele>63.584350585938</ele>
        <time>2012-03-25T08:02:03Z</time>
      </trkpt>
      <trkpt lat="48.41157" lon="2.58566">
        <ele>63.584350585938</ele>
        <time>2012-03-25T08:02:05Z</time>
      </trkpt>
      <trkpt lat="48.41169" lon="2.5861">
        <ele>64.545654296875</ele>
        <time>2012-03-25T08:02:12Z</time>
      </trkpt>
      <trkpt lat="48.41183" lon="2.58662">
        <ele>64.545654296875</ele>
        <time>2012-03-25T08:02:20Z</time>
      </trkpt>
      <trkpt lat="48.41187" lon="2.58676">
        <ele>63.584350585938</ele>
        <time>2012-03-25T08:02:22Z</time>
      </trkpt>
      <trkpt lat="48.41191" lon="2.58695">
        <ele>63.584350585938</ele>
        <time>2012-03-25T08:02:25Z</time>
      </trkpt>
      <trkpt lat="48.41212" lon="2.58766">
        <ele>64.545654296875</ele>
        <time>2012-03-25T08:02:36Z</time>
      </trkpt>
      <trkpt lat="48.41228" lon="2.58816">
        <ele>63.584350585938</ele>
        <time>2012-03-25T08:02:44Z</time>
      </trkpt>
      <trkpt lat="48.41246" lon="2.58884">
        <ele>64.065063476562</ele>
        <time>2012-03-25T08:02:54Z</time>
      </trkpt>
      <trkpt lat="48.41261" lon="2.58945">
        <ele>64.545654296875</ele>
        <time>2012-03-25T08:03:03Z</time>
      </trkpt>
      <trkpt lat="48.41272" lon="2.58996">
        <ele>65.507080078125</ele>
        <time>2012-03-25T08:03:11Z</time>
      </trkpt>
      <trkpt lat="48.41282" lon="2.59037">
        <ele>64.545654296875</ele>
        <time>2012-03-25T08:03:18Z</time>
      </trkpt>
      <trkpt lat="48.41286" lon="2.59054">
        <ele>65.987670898438</ele>
        <time>2012-03-25T08:03:21Z</time>
      </trkpt>
      <trkpt lat="48.41299" lon="2.59108">
        <ele>65.987670898438</ele>
        <time>2012-03-25T08:03:30Z</time>
      </trkpt>
      <trkpt lat="48.41312" lon="2.59156">
        <ele>66.46826171875</ele>
        <time>2012-03-25T08:03:38Z</time>
      </trkpt>
      <trkpt lat="48.41326" lon="2.59199">
        <ele>66.46826171875</ele>
        <time>2012-03-25T08:03:45Z</time>
      </trkpt>
      <trkpt lat="48.4133" lon="2.59211">
        <ele>66.46826171875</ele>
        <time>2012-03-25T08:03:47Z</time>
      </trkpt>
      <trkpt lat="48.41335" lon="2.5923">
        <ele>65.987670898438</ele>
        <time>2012-03-25T08:03:50Z</time>
      </trkpt>
      <trkpt lat="48.41342" lon="2.5926">
        <ele>66.46826171875</ele>
        <time>2012-03-25T08:03:55Z</time>
      </trkpt>
      <trkpt lat="48.41349" lon="2.59285">
        <ele>66.46826171875</ele>
        <time>2012-03-25T08:03:59Z</time>
      </trkpt>
      <trkpt lat="48.4136" lon="2.59328">
        <ele>66.948974609375</ele>
        <time>2012-03-25T08:04:06Z</time>
      </trkpt>
      <trkpt lat="48.41352" lon="2.59335">
        <ele>66.46826171875</ele>
        <time>2012-03-25T08:04:09Z</time>
      </trkpt>
      <trkpt lat="48.41348" lon="2.59334">
        <ele>66.948974609375</ele>
        <time>2012-03-25T08:04:10Z</time>
      </trkpt>
      <trkpt lat="48.41312" lon="2.59316">
        <ele>66.46826171875</ele>
        <time>2012-03-25T08:04:19Z</time>
      </trkpt>
      <trkpt lat="48.41286" lon="2.59305">
        <ele>66.948974609375</ele>
        <time>2012-03-25T08:04:26Z</time>
      </trkpt>
      <trkpt lat="48.41249" lon="2.5929">
        <ele>66.948974609375</ele>
        <time>2012-03-25T08:04:34Z</time>
      </trkpt>
      <trkpt lat="48.41219" lon="2.59278">
        <ele>66.46826171875</ele>
        <time>2012-03-25T08:04:41Z</time>
      </trkpt>
      <trkpt lat="48.41181" lon="2.59262">
        <ele>65.987670898438</ele>
        <time>2012-03-25T08:04:50Z</time>
      </trkpt>
      <trkpt lat="48.41145" lon="2.59246">
        <ele>66.46826171875</ele>
        <time>2012-03-25T08:04:58Z</time>
      </trkpt>
      <trkpt lat="48.41136" lon="2.59242">
        <ele>66.46826171875</ele>
        <time>2012-03-25T08:05:00Z</time>
      </trkpt>
      <trkpt lat="48.41104" lon="2.59227">
        <ele>65.507080078125</ele>
        <time>2012-03-25T08:05:07Z</time>
      </trkpt>
      <trkpt lat="48.41074" lon="2.59215">
        <ele>65.0263671875</ele>
        <time>2012-03-25T08:05:13Z</time>
      </trkpt>
      <trkpt lat="48.4104" lon="2.59202">
        <ele>65.507080078125</ele>
        <time>2012-03-25T08:05:20Z</time>
      </trkpt>
      <trkpt lat="48.41005" lon="2.59185">
        <ele>66.948974609375</ele>
        <time>2012-03-25T08:05:28Z</time>
      </trkpt>
      <trkpt lat="48.40997" lon="2.59184">
        <ele>67.910278320312</ele>
        <time>2012-03-25T08:05:30Z</time>
      </trkpt>
      <trkpt lat="48.40989" lon="2.59199">
        <ele>67.910278320312</ele>
        <time>2012-03-25T08:05:34Z</time>
      </trkpt>
      <trkpt lat="48.40988" lon="2.5922">
        <ele>68.390869140625</ele>
        <time>2012-03-25T08:05:37Z</time>
      </trkpt>
      <trkpt lat="48.40985" lon="2.59243">
        <ele>66.948974609375</ele>
        <time>2012-03-25T08:05:40Z</time>
      </trkpt>
      <trkpt lat="48.40981" lon="2.59297">
        <ele>67.910278320312</ele>
        <time>2012-03-25T08:05:48Z</time>
      </trkpt>
      <trkpt lat="48.40976" lon="2.59349">
        <ele>68.87158203125</ele>
        <time>2012-03-25T08:05:56Z</time>
      </trkpt>
      <trkpt lat="48.40972" lon="2.59404">
        <ele>68.390869140625</ele>
        <time>2012-03-25T08:06:04Z</time>
      </trkpt>
      <trkpt lat="48.40966" lon="2.59468">
        <ele>67.910278320312</ele>
        <time>2012-03-25T08:06:12Z</time>
      </trkpt>
      <trkpt lat="48.40965" lon="2.59483">
        <ele>68.390869140625</ele>
        <time>2012-03-25T08:06:14Z</time>
      </trkpt>
      <trkpt lat="48.40961" lon="2.59545">
        <ele>68.390869140625</ele>
        <time>2012-03-25T08:06:22Z</time>
      </trkpt>
      <trkpt lat="48.40966" lon="2.59581">
        <ele>68.87158203125</ele>
        <time>2012-03-25T08:06:27Z</time>
      </trkpt>
      <trkpt lat="48.40993" lon="2.59629">
        <ele>68.390869140625</ele>
        <time>2012-03-25T08:06:35Z</time>
      </trkpt>
      <trkpt lat="48.41021" lon="2.59675">
        <ele>67.910278320312</ele>
        <time>2012-03-25T08:06:42Z</time>
      </trkpt>
      <trkpt lat="48.41048" lon="2.59724">
        <ele>67.910278320312</ele>
        <time>2012-03-25T08:06:49Z</time>
      </trkpt>
      <trkpt lat="48.41072" lon="2.59768">
        <ele>67.910278320312</ele>
        <time>2012-03-25T08:06:56Z</time>
      </trkpt>
      <trkpt lat="48.4109" lon="2.59801">
        <ele>67.910278320312</ele>
        <time>2012-03-25T08:07:02Z</time>
      </trkpt>
      <trkpt lat="48.41093" lon="2.59807">
        <ele>67.910278320312</ele>
        <time>2012-03-25T08:07:03Z</time>
      </trkpt>
      <trkpt lat="48.41101" lon="2.59827">
        <ele>68.390869140625</ele>
        <time>2012-03-25T08:07:08Z</time>
      </trkpt>
      <trkpt lat="48.41106" lon="2.59833">
        <ele>68.390869140625</ele>
        <time>2012-03-25T08:07:13Z</time>
      </trkpt>
      <trkpt lat="48.41106" lon="2.59836">
        <ele>68.87158203125</ele>
        <time>2012-03-25T08:07:21Z</time>
      </trkpt>
      <trkpt lat="48.41106" lon="2.59839">
        <ele>68.87158203125</ele>
        <time>2012-03-25T08:07:25Z</time>
      </trkpt>
      <trkpt lat="48.41102" lon="2.59845">
        <ele>68.390869140625</ele>
        <time>2012-03-25T08:07:29Z</time>
      </trkpt>
      <trkpt lat="48.41105" lon="2.5985">
        <ele>68.87158203125</ele>
        <time>2012-03-25T08:07:35Z</time>
      </trkpt>
      <trkpt lat="48.41105" lon="2.59849">
        <ele>67.910278320312</ele>
        <time>2012-03-25T08:07:38Z</time>
      </trkpt>
      <trkpt lat="48.41099" lon="2.59849">
        <ele>68.390869140625</ele>
        <time>2012-03-25T08:09:48Z</time>
      </trkpt>
      <trkpt lat="48.41103" lon="2.59849">
        <ele>69.832885742188</ele>
        <time>2012-03-25T08:11:20Z</time>
      </trkpt>
      <trkpt lat="48.41104" lon="2.59843">
        <ele>70.794189453125</ele>
        <time>2012-03-25T08:11:38Z</time>
      </trkpt>
      <trkpt lat="48.41103" lon="2.59846">
        <ele>71.755493164062</ele>
        <time>2012-03-25T08:12:57Z</time>
      </trkpt>
      <trkpt lat="48.41101" lon="2.59845">
        <ele>73.197631835938</ele>
        <time>2012-03-25T08:13:51Z</time>
      </trkpt>
      <trkpt lat="48.41105" lon="2.59844">
        <ele>73.197631835938</ele>
        <time>2012-03-25T08:16:43Z</time>
      </trkpt>
      <trkpt lat="48.41109" lon="2.59845">
        <ele>73.67822265625</ele>
        <time>2012-03-25T08:16:52Z</time>
      </trkpt>
      <trkpt lat="48.41111" lon="2.59845">
        <ele>73.197631835938</ele>
        <time>2012-03-25T08:16:53Z</time>
      </trkpt>
      <trkpt lat="48.41115" lon="2.59849">
        <ele>74.158813476562</ele>
        <time>2012-03-25T08:16:57Z</time>
      </trkpt>
      <trkpt lat="48.41124" lon="2.59865">
        <ele>73.67822265625</ele>
        <time>2012-03-25T08:17:04Z</time>
      </trkpt>
      <trkpt lat="48.41133" lon="2.59879">
        <ele>73.67822265625</ele>
        <time>2012-03-25T08:17:09Z</time>
      </trkpt>
      <trkpt lat="48.41145" lon="2.59899">
        <ele>73.67822265625</ele>
        <time>2012-03-25T08:17:14Z</time>
      </trkpt>
      <trkpt lat="48.41163" lon="2.59932">
        <ele>73.197631835938</ele>
        <time>2012-03-25T08:17:21Z</time>
      </trkpt>
      <trkpt lat="48.41182" lon="2.59966">
        <ele>73.197631835938</ele>
        <time>2012-03-25T08:17:29Z</time>
      </trkpt>
      <trkpt lat="48.41195" lon="2.5999">
        <ele>73.67822265625</ele>
        <time>2012-03-25T08:17:34Z</time>
      </trkpt>
      <trkpt lat="48.41214" lon="2.60022">
        <ele>74.158813476562</ele>
        <time>2012-03-25T08:17:41Z</time>
      </trkpt>
      <trkpt lat="48.4123" lon="2.60051">
        <ele>73.67822265625</ele>
        <time>2012-03-25T08:17:47Z</time>
      </trkpt>
      <trkpt lat="48.41249" lon="2.60086">
        <ele>74.158813476562</ele>
        <time>2012-03-25T08:17:54Z</time>
      </trkpt>
      <trkpt lat="48.41272" lon="2.60127">
        <ele>75.120239257812</ele>
        <time>2012-03-25T08:18:02Z</time>
      </trkpt>
      <trkpt lat="48.41297" lon="2.60173">
        <ele>75.600830078125</ele>
        <time>2012-03-25T08:18:11Z</time>
      </trkpt>
      <trkpt lat="48.41322" lon="2.60219">
        <ele>75.120239257812</ele>
        <time>2012-03-25T08:18:20Z</time>
      </trkpt>
      <trkpt lat="48.41345" lon="2.60261">
        <ele>75.600830078125</ele>
        <time>2012-03-25T08:18:28Z</time>
      </trkpt>
      <trkpt lat="48.41371" lon="2.60307">
        <ele>74.639526367188</ele>
        <time>2012-03-25T08:18:37Z</time>
      </trkpt>
      <trkpt lat="48.41388" lon="2.60338">
        <ele>75.600830078125</ele>
        <time>2012-03-25T08:18:43Z</time>
      </trkpt>
      <trkpt lat="48.41404" lon="2.60369">
        <ele>76.081420898438</ele>
        <time>2012-03-25T08:18:49Z</time>
      </trkpt>
      <trkpt lat="48.41427" lon="2.60409">
        <ele>76.081420898438</ele>
        <time>2012-03-25T08:18:57Z</time>
      </trkpt>
      <trkpt lat="48.41449" lon="2.60448">
        <ele>77.042846679688</ele>
        <time>2012-03-25T08:19:05Z</time>
      </trkpt>
      <trkpt lat="48.41471" lon="2.60489">
        <ele>76.562133789062</ele>
        <time>2012-03-25T08:19:13Z</time>
      </trkpt>
      <trkpt lat="48.41487" lon="2.60519">
        <ele>77.042846679688</ele>
        <time>2012-03-25T08:19:19Z</time>
      </trkpt>
      <trkpt lat="48.41515" lon="2.60572">
        <ele>76.081420898438</ele>
        <time>2012-03-25T08:19:29Z</time>
      </trkpt>
      <trkpt lat="48.41544" lon="2.60622">
        <ele>76.562133789062</ele>
        <time>2012-03-25T08:19:39Z</time>
      </trkpt>
      <trkpt lat="48.41564" lon="2.60656">
        <ele>77.042846679688</ele>
        <time>2012-03-25T08:19:46Z</time>
      </trkpt>
      <trkpt lat="48.41586" lon="2.60698">
        <ele>77.5234375</ele>
        <time>2012-03-25T08:19:54Z</time>
      </trkpt>
      <trkpt lat="48.416" lon="2.60723">
        <ele>77.5234375</ele>
        <time>2012-03-25T08:20:00Z</time>
      </trkpt>
      <trkpt lat="48.41609" lon="2.60737">
        <ele>78.004028320312</ele>
        <time>2012-03-25T08:20:04Z</time>
      </trkpt>
      <trkpt lat="48.41619" lon="2.60761">
        <ele>78.004028320312</ele>
        <time>2012-03-25T08:20:10Z</time>
      </trkpt>
      <trkpt lat="48.41627" lon="2.60792">
        <ele>78.965454101562</ele>
        <time>2012-03-25T08:20:16Z</time>
      </trkpt>
      <trkpt lat="48.4163" lon="2.60831">
        <ele>78.965454101562</ele>
        <time>2012-03-25T08:20:22Z</time>
      </trkpt>
      <trkpt lat="48.41633" lon="2.60881">
        <ele>79.926635742188</ele>
        <time>2012-03-25T08:20:29Z</time>
      </trkpt>
      <trkpt lat="48.41639" lon="2.60916">
        <ele>81.368774414062</ele>
        <time>2012-03-25T08:20:36Z</time>
      </trkpt>
      <trkpt lat="48.41646" lon="2.60957">
        <ele>83.77197265625</ele>
        <time>2012-03-25T08:20:45Z</time>
      </trkpt>
      <trkpt lat="48.4165" lon="2.60983">
        <ele>84.7333984375</ele>
        <time>2012-03-25T08:20:51Z</time>
      </trkpt>
      <trkpt lat="48.41655" lon="2.61014">
        <ele>85.694580078125</ele>
        <time>2012-03-25T08:20:59Z</time>
      </trkpt>
      <trkpt lat="48.41658" lon="2.61038">
        <ele>87.6171875</ele>
        <time>2012-03-25T08:21:06Z</time>
      </trkpt>
      <trkpt lat="48.41661" lon="2.61068">
        <ele>89.539916992188</ele>
        <time>2012-03-25T08:21:15Z</time>
      </trkpt>
      <trkpt lat="48.41661" lon="2.61091">
        <ele>90.98193359375</ele>
        <time>2012-03-25T08:21:21Z</time>
      </trkpt>
      <trkpt lat="48.41661" lon="2.61115">
        <ele>92.423950195312</ele>
        <time>2012-03-25T08:21:28Z</time>
      </trkpt>
      <trkpt lat="48.41663" lon="2.61143">
        <ele>92.423950195312</ele>
        <time>2012-03-25T08:21:34Z</time>
      </trkpt>
      <trkpt lat="48.41665" lon="2.61193">
        <ele>91.943237304688</ele>
        <time>2012-03-25T08:21:43Z</time>
      </trkpt>
      <trkpt lat="48.41668" lon="2.61246">
        <ele>91.943237304688</ele>
        <time>2012-03-25T08:21:51Z</time>
      </trkpt>
      <trkpt lat="48.41671" lon="2.61307">
        <ele>90.98193359375</ele>
        <time>2012-03-25T08:21:59Z</time>
      </trkpt>
      <trkpt lat="48.41669" lon="2.61354">
        <ele>90.020629882812</ele>
        <time>2012-03-25T08:22:05Z</time>
      </trkpt>
      <trkpt lat="48.41667" lon="2.61408">
        <ele>89.539916992188</ele>
        <time>2012-03-25T08:22:12Z</time>
      </trkpt>
      <trkpt lat="48.41665" lon="2.61462">
        <ele>89.539916992188</ele>
        <time>2012-03-25T08:22:19Z</time>
      </trkpt>
      <trkpt lat="48.41661" lon="2.61511">
        <ele>89.539916992188</ele>
        <time>2012-03-25T08:22:26Z</time>
      </trkpt>
      <trkpt lat="48.41658" lon="2.61547">
        <ele>90.501342773438</ele>
        <time>2012-03-25T08:22:32Z</time>
      </trkpt>
      <trkpt lat="48.41652" lon="2.61594">
        <ele>90.98193359375</ele>
        <time>2012-03-25T08:22:39Z</time>
      </trkpt>
      <trkpt lat="48.41648" lon="2.61632">
        <ele>91.943237304688</ele>
        <time>2012-03-25T08:22:46Z</time>
      </trkpt>
      <trkpt lat="48.41644" lon="2.61666">
        <ele>92.423950195312</ele>
        <time>2012-03-25T08:22:52Z</time>
      </trkpt>
      <trkpt lat="48.4164" lon="2.61713">
        <ele>93.865844726562</ele>
        <time>2012-03-25T08:23:01Z</time>
      </trkpt>
      <trkpt lat="48.41638" lon="2.61751">
        <ele>94.346557617188</ele>
        <time>2012-03-25T08:23:08Z</time>
      </trkpt>
      <trkpt lat="48.41635" lon="2.61783">
        <ele>94.8271484375</ele>
        <time>2012-03-25T08:23:14Z</time>
      </trkpt>
      <trkpt lat="48.41633" lon="2.61819">
        <ele>95.788452148438</ele>
        <time>2012-03-25T08:23:21Z</time>
      </trkpt>
      <trkpt lat="48.4163" lon="2.61858">
        <ele>96.749877929688</ele>
        <time>2012-03-25T08:23:29Z</time>
      </trkpt>
      <trkpt lat="48.41626" lon="2.61901">
        <ele>97.23046875</ele>
        <time>2012-03-25T08:23:38Z</time>
      </trkpt>
      <trkpt lat="48.41624" lon="2.61931">
        <ele>98.19189453125</ele>
        <time>2012-03-25T08:23:45Z</time>
      </trkpt>
      <trkpt lat="48.41621" lon="2.61965">
        <ele>98.672485351562</ele>
        <time>2012-03-25T08:23:51Z</time>
      </trkpt>
      <trkpt lat="48.41618" lon="2.61992">
        <ele>98.19189453125</ele>
        <time>2012-03-25T08:23:56Z</time>
      </trkpt>
      <trkpt lat="48.41615" lon="2.62029">
        <ele>97.711181640625</ele>
        <time>2012-03-25T08:24:02Z</time>
      </trkpt>
      <trkpt lat="48.41612" lon="2.62066">
        <ele>97.711181640625</ele>
        <time>2012-03-25T08:24:08Z</time>
      </trkpt>
      <trkpt lat="48.4161" lon="2.62091">
        <ele>97.711181640625</ele>
        <time>2012-03-25T08:24:12Z</time>
      </trkpt>
      <trkpt lat="48.41606" lon="2.62119">
        <ele>97.711181640625</ele>
        <time>2012-03-25T08:24:16Z</time>
      </trkpt>
      <trkpt lat="48.41601" lon="2.62192">
        <ele>97.23046875</ele>
        <time>2012-03-25T08:24:26Z</time>
      </trkpt>
      <trkpt lat="48.41598" lon="2.62238">
        <ele>97.23046875</ele>
        <time>2012-03-25T08:24:32Z</time>
      </trkpt>
      <trkpt lat="48.41593" lon="2.62294">
        <ele>96.749877929688</ele>
        <time>2012-03-25T08:24:40Z</time>
      </trkpt>
      <trkpt lat="48.41586" lon="2.62355">
        <ele>96.269287109375</ele>
        <time>2012-03-25T08:24:49Z</time>
      </trkpt>
      <trkpt lat="48.41581" lon="2.62404">
        <ele>97.23046875</ele>
        <time>2012-03-25T08:24:56Z</time>
      </trkpt>
      <trkpt lat="48.41578" lon="2.62456">
        <ele>95.788452148438</ele>
        <time>2012-03-25T08:25:04Z</time>
      </trkpt>
      <trkpt lat="48.41574" lon="2.62477">
        <ele>96.269287109375</ele>
        <time>2012-03-25T08:25:08Z</time>
      </trkpt>
      <trkpt lat="48.41583" lon="2.62489">
        <ele>96.269287109375</ele>
        <time>2012-03-25T08:25:13Z</time>
      </trkpt>
      <trkpt lat="48.41602" lon="2.6249">
        <ele>95.788452148438</ele>
        <time>2012-03-25T08:25:18Z</time>
      </trkpt>
      <trkpt lat="48.41632" lon="2.62472">
        <ele>95.307739257812</ele>
        <time>2012-03-25T08:25:24Z</time>
      </trkpt>
      <trkpt lat="48.41649" lon="2.62461">
        <ele>93.865844726562</ele>
        <time>2012-03-25T08:25:27Z</time>
      </trkpt>
      <trkpt lat="48.41674" lon="2.62445">
        <ele>93.385131835938</ele>
        <time>2012-03-25T08:25:32Z</time>
      </trkpt>
      <trkpt lat="48.41704" lon="2.62425">
        <ele>92.904541015625</ele>
        <time>2012-03-25T08:25:38Z</time>
      </trkpt>
      <trkpt lat="48.41728" lon="2.62408">
        <ele>91.943237304688</ele>
        <time>2012-03-25T08:25:43Z</time>
      </trkpt>
      <trkpt lat="48.4175" lon="2.62393">
        <ele>91.943237304688</ele>
        <time>2012-03-25T08:25:47Z</time>
      </trkpt>
      <trkpt lat="48.41778" lon="2.62377">
        <ele>91.943237304688</ele>
        <time>2012-03-25T08:25:52Z</time>
      </trkpt>
      <trkpt lat="48.41817" lon="2.62355">
        <ele>91.462524414062</ele>
        <time>2012-03-25T08:25:59Z</time>
      </trkpt>
      <trkpt lat="48.41827" lon="2.62349">
        <ele>91.462524414062</ele>
        <time>2012-03-25T08:26:01Z</time>
      </trkpt>
      <trkpt lat="48.41857" lon="2.62333">
        <ele>90.98193359375</ele>
        <time>2012-03-25T08:26:06Z</time>
      </trkpt>
      <trkpt lat="48.41882" lon="2.62319">
        <ele>90.020629882812</ele>
        <time>2012-03-25T08:26:10Z</time>
      </trkpt>
      <trkpt lat="48.41912" lon="2.62302">
        <ele>88.578735351562</ele>
        <time>2012-03-25T08:26:15Z</time>
      </trkpt>
      <trkpt lat="48.41924" lon="2.62295">
        <ele>88.098022460938</ele>
        <time>2012-03-25T08:26:17Z</time>
      </trkpt>
      <trkpt lat="48.41946" lon="2.62279">
        <ele>87.6171875</ele>
        <time>2012-03-25T08:26:21Z</time>
      </trkpt>
      <trkpt lat="48.41977" lon="2.62262">
        <ele>87.6171875</ele>
        <time>2012-03-25T08:26:26Z</time>
      </trkpt>
      <trkpt lat="48.42009" lon="2.62242">
        <ele>87.136596679688</ele>
        <time>2012-03-25T08:26:32Z</time>
      </trkpt>
      <trkpt lat="48.42033" lon="2.62231">
        <ele>86.656005859375</ele>
        <time>2012-03-25T08:26:36Z</time>
      </trkpt>
      <trkpt lat="48.42069" lon="2.62209">
        <ele>86.17529296875</ele>
        <time>2012-03-25T08:26:42Z</time>
      </trkpt>
      <trkpt lat="48.42097" lon="2.62193">
        <ele>86.17529296875</ele>
        <time>2012-03-25T08:26:47Z</time>
      </trkpt>
      <trkpt lat="48.4212" lon="2.62178">
        <ele>87.136596679688</ele>
        <time>2012-03-25T08:26:52Z</time>
      </trkpt>
      <trkpt lat="48.42141" lon="2.62165">
        <ele>87.136596679688</ele>
        <time>2012-03-25T08:26:57Z</time>
      </trkpt>
      <trkpt lat="48.42159" lon="2.62152">
        <ele>88.098022460938</ele>
        <time>2012-03-25T08:27:02Z</time>
      </trkpt>
      <trkpt lat="48.42183" lon="2.62138">
        <ele>89.059326171875</ele>
        <time>2012-03-25T08:27:08Z</time>
      </trkpt>
      <trkpt lat="48.42202" lon="2.62127">
        <ele>89.059326171875</ele>
        <time>2012-03-25T08:27:13Z</time>
      </trkpt>
      <trkpt lat="48.4222" lon="2.62116">
        <ele>89.539916992188</ele>
        <time>2012-03-25T08:27:18Z</time>
      </trkpt>
      <trkpt lat="48.4223" lon="2.6211">
        <ele>90.020629882812</ele>
        <time>2012-03-25T08:27:22Z</time>
      </trkpt>
      <trkpt lat="48.42254" lon="2.62094">
        <ele>90.020629882812</ele>
        <time>2012-03-25T08:27:30Z</time>
      </trkpt>
      <trkpt lat="48.42267" lon="2.62085">
        <ele>90.020629882812</ele>
        <time>2012-03-25T08:27:35Z</time>
      </trkpt>
      <trkpt lat="48.42282" lon="2.62076">
        <ele>90.98193359375</ele>
        <time>2012-03-25T08:27:40Z</time>
      </trkpt>
      <trkpt lat="48.42295" lon="2.62068">
        <ele>91.462524414062</ele>
        <time>2012-03-25T08:27:45Z</time>
      </trkpt>
      <trkpt lat="48.42318" lon="2.62052">
        <ele>90.98193359375</ele>
        <time>2012-03-25T08:27:49Z</time>
      </trkpt>
      <trkpt lat="48.42355" lon="2.62022">
        <ele>90.98193359375</ele>
        <time>2012-03-25T08:27:55Z</time>
      </trkpt>
      <trkpt lat="48.42377" lon="2.62002">
        <ele>91.943237304688</ele>
        <time>2012-03-25T08:28:00Z</time>
      </trkpt>
      <trkpt lat="48.42404" lon="2.61976">
        <ele>91.943237304688</ele>
        <time>2012-03-25T08:28:07Z</time>
      </trkpt>
      <trkpt lat="48.4242" lon="2.6196">
        <ele>91.462524414062</ele>
        <time>2012-03-25T08:28:12Z</time>
      </trkpt>
      <trkpt lat="48.42435" lon="2.61941">
        <ele>92.423950195312</ele>
        <time>2012-03-25T08:28:17Z</time>
      </trkpt>
      <trkpt lat="48.42447" lon="2.61929">
        <ele>92.423950195312</ele>
        <time>2012-03-25T08:28:21Z</time>
      </trkpt>
      <trkpt lat="48.42463" lon="2.6191">
        <ele>92.904541015625</ele>
        <time>2012-03-25T08:28:27Z</time>
      </trkpt>
      <trkpt lat="48.42474" lon="2.61899">
        <ele>93.385131835938</ele>
        <time>2012-03-25T08:28:32Z</time>
      </trkpt>
      <trkpt lat="48.42487" lon="2.61883">
        <ele>94.346557617188</ele>
        <time>2012-03-25T08:28:38Z</time>
      </trkpt>
      <trkpt lat="48.42498" lon="2.61872">
        <ele>95.307739257812</ele>
        <time>2012-03-25T08:28:43Z</time>
      </trkpt>
      <trkpt lat="48.42508" lon="2.6186">
        <ele>96.269287109375</ele>
        <time>2012-03-25T08:28:49Z</time>
      </trkpt>
      <trkpt lat="48.42521" lon="2.61846">
        <ele>97.711181640625</ele>
        <time>2012-03-25T08:28:55Z</time>
      </trkpt>
      <trkpt lat="48.42532" lon="2.61835">
        <ele>98.19189453125</ele>
        <time>2012-03-25T08:29:00Z</time>
      </trkpt>
      <trkpt lat="48.42537" lon="2.61828">
        <ele>98.672485351562</ele>
        <time>2012-03-25T08:29:03Z</time>
      </trkpt>
      <trkpt lat="48.42552" lon="2.61813">
        <ele>99.6337890625</ele>
        <time>2012-03-25T08:29:10Z</time>
      </trkpt>
      <trkpt lat="48.42564" lon="2.618">
        <ele>101.07568359375</ele>
        <time>2012-03-25T08:29:16Z</time>
      </trkpt>
      <trkpt lat="48.42575" lon="2.61788">
        <ele>101.55639648438</ele>
        <time>2012-03-25T08:29:21Z</time>
      </trkpt>
      <trkpt lat="48.42588" lon="2.61774">
        <ele>102.037109375</ele>
        <time>2012-03-25T08:29:27Z</time>
      </trkpt>
      <trkpt lat="48.42602" lon="2.61759">
        <ele>102.51770019531</ele>
        <time>2012-03-25T08:29:32Z</time>
      </trkpt>
      <trkpt lat="48.42615" lon="2.61738">
        <ele>102.99829101562</ele>
        <time>2012-03-25T08:29:38Z</time>
      </trkpt>
      <trkpt lat="48.42627" lon="2.61716">
        <ele>103.47900390625</ele>
        <time>2012-03-25T08:29:44Z</time>
      </trkpt>
      <trkpt lat="48.42636" lon="2.61694">
        <ele>103.95971679688</ele>
        <time>2012-03-25T08:29:49Z</time>
      </trkpt>
      <trkpt lat="48.42643" lon="2.61672">
        <ele>104.4404296875</ele>
        <time>2012-03-25T08:29:53Z</time>
      </trkpt>
      <trkpt lat="48.42652" lon="2.61644">
        <ele>103.95971679688</ele>
        <time>2012-03-25T08:29:58Z</time>
      </trkpt>
      <trkpt lat="48.42659" lon="2.6162">
        <ele>104.4404296875</ele>
        <time>2012-03-25T08:30:03Z</time>
      </trkpt>
      <trkpt lat="48.42666" lon="2.61589">
        <ele>104.4404296875</ele>
        <time>2012-03-25T08:30:08Z</time>
      </trkpt>
      <trkpt lat="48.42672" lon="2.61561">
        <ele>104.4404296875</ele>
        <time>2012-03-25T08:30:12Z</time>
      </trkpt>
      <trkpt lat="48.42675" lon="2.61547">
        <ele>103.95971679688</ele>
        <time>2012-03-25T08:30:14Z</time>
      </trkpt>
      <trkpt lat="48.42679" lon="2.61519">
        <ele>104.4404296875</ele>
        <time>2012-03-25T08:30:18Z</time>
      </trkpt>
      <trkpt lat="48.4268" lon="2.61491">
        <ele>104.4404296875</ele>
        <time>2012-03-25T08:30:22Z</time>
      </trkpt>
      <trkpt lat="48.42682" lon="2.61452">
        <ele>103.95971679688</ele>
        <time>2012-03-25T08:30:28Z</time>
      </trkpt>
      <trkpt lat="48.42686" lon="2.614">
        <ele>104.92102050781</ele>
        <time>2012-03-25T08:30:36Z</time>
      </trkpt>
      <trkpt lat="48.42687" lon="2.61393">
        <ele>104.4404296875</ele>
        <time>2012-03-25T08:30:37Z</time>
      </trkpt>
      <trkpt lat="48.42695" lon="2.61356">
        <ele>104.92102050781</ele>
        <time>2012-03-25T08:30:43Z</time>
      </trkpt>
      <trkpt lat="48.42709" lon="2.61325">
        <ele>105.88244628906</ele>
        <time>2012-03-25T08:30:49Z</time>
      </trkpt>
      <trkpt lat="48.4271" lon="2.61321">
        <ele>106.84362792969</ele>
        <time>2012-03-25T08:30:50Z</time>
      </trkpt>
      <trkpt lat="48.42722" lon="2.61287">
        <ele>106.84362792969</ele>
        <time>2012-03-25T08:30:58Z</time>
      </trkpt>
      <trkpt lat="48.4273" lon="2.61257">
        <ele>107.80505371094</ele>
        <time>2012-03-25T08:31:06Z</time>
      </trkpt>
      <trkpt lat="48.42735" lon="2.61236">
        <ele>110.20825195312</ele>
        <time>2012-03-25T08:31:13Z</time>
      </trkpt>
      <trkpt lat="48.42742" lon="2.61216">
        <ele>112.61157226562</ele>
        <time>2012-03-25T08:31:20Z</time>
      </trkpt>
      <trkpt lat="48.42746" lon="2.61197">
        <ele>113.57299804688</ele>
        <time>2012-03-25T08:31:26Z</time>
      </trkpt>
      <trkpt lat="48.42748" lon="2.6118">
        <ele>114.5341796875</ele>
        <time>2012-03-25T08:31:32Z</time>
      </trkpt>
      <trkpt lat="48.42751" lon="2.6116">
        <ele>115.01489257812</ele>
        <time>2012-03-25T08:31:38Z</time>
      </trkpt>
      <trkpt lat="48.42754" lon="2.61134">
        <ele>116.9375</ele>
        <time>2012-03-25T08:31:45Z</time>
      </trkpt>
      <trkpt lat="48.42758" lon="2.61106">
        <ele>116.45678710938</ele>
        <time>2012-03-25T08:31:52Z</time>
      </trkpt>
      <trkpt lat="48.42763" lon="2.6108">
        <ele>116.45678710938</ele>
        <time>2012-03-25T08:31:59Z</time>
      </trkpt>
      <trkpt lat="48.42763" lon="2.61073">
        <ele>116.9375</ele>
        <time>2012-03-25T08:32:03Z</time>
      </trkpt>
      <trkpt lat="48.42762" lon="2.6107">
        <ele>116.9375</ele>
        <time>2012-03-25T08:32:11Z</time>
      </trkpt>
      <trkpt lat="48.4276" lon="2.61049">
        <ele>116.9375</ele>
        <time>2012-03-25T08:32:18Z</time>
      </trkpt>
      <trkpt lat="48.42759" lon="2.61023">
        <ele>117.41821289062</ele>
        <time>2012-03-25T08:32:24Z</time>
      </trkpt>
      <trkpt lat="48.42761" lon="2.61">
        <ele>117.89880371094</ele>
        <time>2012-03-25T08:32:29Z</time>
      </trkpt>
      <trkpt lat="48.42763" lon="2.60987">
        <ele>119.3408203125</ele>
        <time>2012-03-25T08:32:32Z</time>
      </trkpt>
      <trkpt lat="48.42767" lon="2.60967">
        <ele>120.30212402344</ele>
        <time>2012-03-25T08:32:38Z</time>
      </trkpt>
      <trkpt lat="48.42776" lon="2.60953">
        <ele>121.744140625</ele>
        <time>2012-03-25T08:32:44Z</time>
      </trkpt>
      <trkpt lat="48.42785" lon="2.60933">
        <ele>122.22473144531</ele>
        <time>2012-03-25T08:32:50Z</time>
      </trkpt>
      <trkpt lat="48.42794" lon="2.60904">
        <ele>121.744140625</ele>
        <time>2012-03-25T08:32:56Z</time>
      </trkpt>
      <trkpt lat="48.42802" lon="2.60871">
        <ele>120.78283691406</ele>
        <time>2012-03-25T08:33:02Z</time>
      </trkpt>
      <trkpt lat="48.42805" lon="2.60842">
        <ele>122.70544433594</ele>
        <time>2012-03-25T08:33:07Z</time>
      </trkpt>
      <trkpt lat="48.42806" lon="2.60806">
        <ele>122.22473144531</ele>
        <time>2012-03-25T08:33:13Z</time>
      </trkpt>
      <trkpt lat="48.428" lon="2.60771">
        <ele>122.70544433594</ele>
        <time>2012-03-25T08:33:18Z</time>
      </trkpt>
      <trkpt lat="48.42794" lon="2.60727">
        <ele>122.22473144531</ele>
        <time>2012-03-25T08:33:24Z</time>
      </trkpt>
      <trkpt lat="48.42793" lon="2.6072">
        <ele>122.70544433594</ele>
        <time>2012-03-25T08:33:25Z</time>
      </trkpt>
      <trkpt lat="48.42788" lon="2.60681">
        <ele>122.22473144531</ele>
        <time>2012-03-25T08:33:30Z</time>
      </trkpt>
      <trkpt lat="48.42782" lon="2.60631">
        <ele>121.744140625</ele>
        <time>2012-03-25T08:33:36Z</time>
      </trkpt>
      <trkpt lat="48.42775" lon="2.60571">
        <ele>121.26354980469</ele>
        <time>2012-03-25T08:33:43Z</time>
      </trkpt>
      <trkpt lat="48.42782" lon="2.60545">
        <ele>121.26354980469</ele>
        <time>2012-03-25T08:33:47Z</time>
      </trkpt>
      <trkpt lat="48.42793" lon="2.60539">
        <ele>120.78283691406</ele>
        <time>2012-03-25T08:33:50Z</time>
      </trkpt>
      <trkpt lat="48.42819" lon="2.60525">
        <ele>121.26354980469</ele>
        <time>2012-03-25T08:33:56Z</time>
      </trkpt>
      <trkpt lat="48.42838" lon="2.60516">
        <ele>120.78283691406</ele>
        <time>2012-03-25T08:34:00Z</time>
      </trkpt>
      <trkpt lat="48.42868" lon="2.60501">
        <ele>118.37939453125</ele>
        <time>2012-03-25T08:34:05Z</time>
      </trkpt>
      <trkpt lat="48.42895" lon="2.60486">
        <ele>117.41821289062</ele>
        <time>2012-03-25T08:34:09Z</time>
      </trkpt>
      <trkpt lat="48.42937" lon="2.60466">
        <ele>117.41821289062</ele>
        <time>2012-03-25T08:34:15Z</time>
      </trkpt>
      <trkpt lat="48.4296" lon="2.60452">
        <ele>115.49560546875</ele>
        <time>2012-03-25T08:34:19Z</time>
      </trkpt>
      <trkpt lat="48.42994" lon="2.60433">
        <ele>115.97619628906</ele>
        <time>2012-03-25T08:34:25Z</time>
      </trkpt>
      <trkpt lat="48.4302" lon="2.6042">
        <ele>116.45678710938</ele>
        <time>2012-03-25T08:34:30Z</time>
      </trkpt>
      <trkpt lat="48.43055" lon="2.60407">
        <ele>115.49560546875</ele>
        <time>2012-03-25T08:34:36Z</time>
      </trkpt>
      <trkpt lat="48.43092" lon="2.60408">
        <ele>112.61157226562</ele>
        <time>2012-03-25T08:34:41Z</time>
      </trkpt>
      <trkpt lat="48.431" lon="2.60409">
        <ele>112.61157226562</ele>
        <time>2012-03-25T08:34:42Z</time>
      </trkpt>
      <trkpt lat="48.43125" lon="2.60413">
        <ele>108.76623535156</ele>
        <time>2012-03-25T08:34:45Z</time>
      </trkpt>
      <trkpt lat="48.43145" lon="2.60417">
        <ele>103.95971679688</ele>
        <time>2012-03-25T08:34:47Z</time>
      </trkpt>
      <trkpt lat="48.43168" lon="2.60421">
        <ele>101.07568359375</ele>
        <time>2012-03-25T08:34:49Z</time>
      </trkpt>
      <trkpt lat="48.43217" lon="2.6043">
        <ele>98.672485351562</ele>
        <time>2012-03-25T08:34:53Z</time>
      </trkpt>
      <trkpt lat="48.43238" lon="2.60438">
        <ele>95.307739257812</ele>
        <time>2012-03-25T08:34:56Z</time>
      </trkpt>
      <trkpt lat="48.43237" lon="2.60442">
        <ele>95.307739257812</ele>
        <time>2012-03-25T08:34:57Z</time>
      </trkpt>
      <trkpt lat="48.4323" lon="2.60446">
        <ele>95.307739257812</ele>
        <time>2012-03-25T08:35:00Z</time>
      </trkpt>
      <trkpt lat="48.43222" lon="2.6045">
        <ele>96.749877929688</ele>
        <time>2012-03-25T08:35:04Z</time>
      </trkpt>
      <trkpt lat="48.43209" lon="2.60465">
        <ele>98.19189453125</ele>
        <time>2012-03-25T08:35:09Z</time>
      </trkpt>
      <trkpt lat="48.43195" lon="2.6048">
        <ele>98.672485351562</ele>
        <time>2012-03-25T08:35:15Z</time>
      </trkpt>
      <trkpt lat="48.43182" lon="2.60494">
        <ele>99.153076171875</ele>
        <time>2012-03-25T08:35:20Z</time>
      </trkpt>
      <trkpt lat="48.43166" lon="2.60513">
        <ele>102.037109375</ele>
        <time>2012-03-25T08:35:27Z</time>
      </trkpt>
      <trkpt lat="48.43164" lon="2.60516">
        <ele>102.037109375</ele>
        <time>2012-03-25T08:35:28Z</time>
      </trkpt>
      <trkpt lat="48.43145" lon="2.60537">
        <ele>103.95971679688</ele>
        <time>2012-03-25T08:35:37Z</time>
      </trkpt>
      <trkpt lat="48.43126" lon="2.60556">
        <ele>106.84362792969</ele>
        <time>2012-03-25T08:35:47Z</time>
      </trkpt>
      <trkpt lat="48.43116" lon="2.60568">
        <ele>109.72766113281</ele>
        <time>2012-03-25T08:35:54Z</time>
      </trkpt>
      <trkpt lat="48.43114" lon="2.6057">
        <ele>109.24694824219</ele>
        <time>2012-03-25T08:35:55Z</time>
      </trkpt>
      <trkpt lat="48.43108" lon="2.60587">
        <ele>111.65026855469</ele>
        <time>2012-03-25T08:36:03Z</time>
      </trkpt>
      <trkpt lat="48.43103" lon="2.60605">
        <ele>112.13098144531</ele>
        <time>2012-03-25T08:36:11Z</time>
      </trkpt>
      <trkpt lat="48.43101" lon="2.60618">
        <ele>114.05358886719</ele>
        <time>2012-03-25T08:36:16Z</time>
      </trkpt>
      <trkpt lat="48.43099" lon="2.60631">
        <ele>115.01489257812</ele>
        <time>2012-03-25T08:36:22Z</time>
      </trkpt>
      <trkpt lat="48.43097" lon="2.60645">
        <ele>115.97619628906</ele>
        <time>2012-03-25T08:36:28Z</time>
      </trkpt>
      <trkpt lat="48.43095" lon="2.60652">
        <ele>117.41821289062</ele>
        <time>2012-03-25T08:36:31Z</time>
      </trkpt>
      <trkpt lat="48.43093" lon="2.60672">
        <ele>118.86010742188</ele>
        <time>2012-03-25T08:36:37Z</time>
      </trkpt>
      <trkpt lat="48.43092" lon="2.60675">
        <ele>119.3408203125</ele>
        <time>2012-03-25T08:36:38Z</time>
      </trkpt>
      <trkpt lat="48.4309" lon="2.60692">
        <ele>119.82141113281</ele>
        <time>2012-03-25T08:36:44Z</time>
      </trkpt>
      <trkpt lat="48.43091" lon="2.60712">
        <ele>121.26354980469</ele>
        <time>2012-03-25T08:36:49Z</time>
      </trkpt>
      <trkpt lat="48.43096" lon="2.60726">
        <ele>121.26354980469</ele>
        <time>2012-03-25T08:36:53Z</time>
      </trkpt>
      <trkpt lat="48.43105" lon="2.60749">
        <ele>121.26354980469</ele>
        <time>2012-03-25T08:36:59Z</time>
      </trkpt>
      <trkpt lat="48.43113" lon="2.60765">
        <ele>121.744140625</ele>
        <time>2012-03-25T08:37:03Z</time>
      </trkpt>
      <trkpt lat="48.4312" lon="2.60783">
        <ele>122.22473144531</ele>
        <time>2012-03-25T08:37:07Z</time>
      </trkpt>
      <trkpt lat="48.43124" lon="2.60792">
        <ele>118.86010742188</ele>
        <time>2012-03-25T08:37:09Z</time>
      </trkpt>
      <trkpt lat="48.43127" lon="2.60797">
        <ele>119.3408203125</ele>
        <time>2012-03-25T08:37:10Z</time>
      </trkpt>
      <trkpt lat="48.43141" lon="2.60822">
        <ele>118.86010742188</ele>
        <time>2012-03-25T08:37:15Z</time>
      </trkpt>
      <trkpt lat="48.43159" lon="2.60853">
        <ele>119.3408203125</ele>
        <time>2012-03-25T08:37:21Z</time>
      </trkpt>
      <trkpt lat="48.43172" lon="2.60879">
        <ele>118.37939453125</ele>
        <time>2012-03-25T08:37:26Z</time>
      </trkpt>
      <trkpt lat="48.43174" lon="2.60885">
        <ele>118.86010742188</ele>
        <time>2012-03-25T08:37:27Z</time>
      </trkpt>
      <trkpt lat="48.4318" lon="2.60897">
        <ele>117.89880371094</ele>
        <time>2012-03-25T08:37:29Z</time>
      </trkpt>
      <trkpt lat="48.43194" lon="2.60938">
        <ele>116.9375</ele>
        <time>2012-03-25T08:37:34Z</time>
      </trkpt>
      <trkpt lat="48.43206" lon="2.60983">
        <ele>115.97619628906</ele>
        <time>2012-03-25T08:37:39Z</time>
      </trkpt>
      <trkpt lat="48.43208" lon="2.61008">
        <ele>117.41821289062</ele>
        <time>2012-03-25T08:37:43Z</time>
      </trkpt>
      <trkpt lat="48.43211" lon="2.61048">
        <ele>118.86010742188</ele>
        <time>2012-03-25T08:37:50Z</time>
      </trkpt>
      <trkpt lat="48.43214" lon="2.61092">
        <ele>119.3408203125</ele>
        <time>2012-03-25T08:37:58Z</time>
      </trkpt>
      <trkpt lat="48.43217" lon="2.61124">
        <ele>119.3408203125</ele>
        <time>2012-03-25T08:38:04Z</time>
      </trkpt>
      <trkpt lat="48.4322" lon="2.61165">
        <ele>119.3408203125</ele>
        <time>2012-03-25T08:38:11Z</time>
      </trkpt>
      <trkpt lat="48.43223" lon="2.61204">
        <ele>119.82141113281</ele>
        <time>2012-03-25T08:38:18Z</time>
      </trkpt>
      <trkpt lat="48.43227" lon="2.61235">
        <ele>120.78283691406</ele>
        <time>2012-03-25T08:38:24Z</time>
      </trkpt>
      <trkpt lat="48.43229" lon="2.6128">
        <ele>121.26354980469</ele>
        <time>2012-03-25T08:38:31Z</time>
      </trkpt>
      <trkpt lat="48.4323" lon="2.61316">
        <ele>120.78283691406</ele>
        <time>2012-03-25T08:38:36Z</time>
      </trkpt>
      <trkpt lat="48.4323" lon="2.61323">
        <ele>120.78283691406</ele>
        <time>2012-03-25T08:38:37Z</time>
      </trkpt>
      <trkpt lat="48.43235" lon="2.61372">
        <ele>120.78283691406</ele>
        <time>2012-03-25T08:38:44Z</time>
      </trkpt>
      <trkpt lat="48.4324" lon="2.61427">
        <ele>120.78283691406</ele>
        <time>2012-03-25T08:38:52Z</time>
      </trkpt>
      <trkpt lat="48.43243" lon="2.61481">
        <ele>120.30212402344</ele>
        <time>2012-03-25T08:38:59Z</time>
      </trkpt>
      <trkpt lat="48.43244" lon="2.61488">
        <ele>120.30212402344</ele>
        <time>2012-03-25T08:39:00Z</time>
      </trkpt>
      <trkpt lat="48.43248" lon="2.61535">
        <ele>119.82141113281</ele>
        <time>2012-03-25T08:39:06Z</time>
      </trkpt>
      <trkpt lat="48.43252" lon="2.61584">
        <ele>119.82141113281</ele>
        <time>2012-03-25T08:39:12Z</time>
      </trkpt>
      <trkpt lat="48.43254" lon="2.61626">
        <ele>120.30212402344</ele>
        <time>2012-03-25T08:39:17Z</time>
      </trkpt>
      <trkpt lat="48.43259" lon="2.61679">
        <ele>119.82141113281</ele>
        <time>2012-03-25T08:39:24Z</time>
      </trkpt>
      <trkpt lat="48.43265" lon="2.61744">
        <ele>118.86010742188</ele>
        <time>2012-03-25T08:39:32Z</time>
      </trkpt>
      <trkpt lat="48.43266" lon="2.61752">
        <ele>118.37939453125</ele>
        <time>2012-03-25T08:39:33Z</time>
      </trkpt>
      <trkpt lat="48.4327" lon="2.61806">
        <ele>119.3408203125</ele>
        <time>2012-03-25T08:39:40Z</time>
      </trkpt>
      <trkpt lat="48.43273" lon="2.6185">
        <ele>118.37939453125</ele>
        <time>2012-03-25T08:39:46Z</time>
      </trkpt>
      <trkpt lat="48.43277" lon="2.61882">
        <ele>118.86010742188</ele>
        <time>2012-03-25T08:39:51Z</time>
      </trkpt>
      <trkpt lat="48.43279" lon="2.61918">
        <ele>120.30212402344</ele>
        <time>2012-03-25T08:39:58Z</time>
      </trkpt>
      <trkpt lat="48.43282" lon="2.61954">
        <ele>122.22473144531</ele>
        <time>2012-03-25T08:40:06Z</time>
      </trkpt>
      <trkpt lat="48.43285" lon="2.61995">
        <ele>122.70544433594</ele>
        <time>2012-03-25T08:40:14Z</time>
      </trkpt>
      <trkpt lat="48.43286" lon="2.62031">
        <ele>123.18615722656</ele>
        <time>2012-03-25T08:40:21Z</time>
      </trkpt>
      <trkpt lat="48.43283" lon="2.62063">
        <ele>122.70544433594</ele>
        <time>2012-03-25T08:40:26Z</time>
      </trkpt>
      <trkpt lat="48.43279" lon="2.62085">
        <ele>123.18615722656</ele>
        <time>2012-03-25T08:40:29Z</time>
      </trkpt>
      <trkpt lat="48.43273" lon="2.62124">
        <ele>121.26354980469</ele>
        <time>2012-03-25T08:40:34Z</time>
      </trkpt>
      <trkpt lat="48.43265" lon="2.62183">
        <ele>119.3408203125</ele>
        <time>2012-03-25T08:40:40Z</time>
      </trkpt>
      <trkpt lat="48.43254" lon="2.6225">
        <ele>116.9375</ele>
        <time>2012-03-25T08:40:46Z</time>
      </trkpt>
      <trkpt lat="48.43246" lon="2.62293">
        <ele>112.13098144531</ele>
        <time>2012-03-25T08:40:49Z</time>
      </trkpt>
      <trkpt lat="48.43242" lon="2.62321">
        <ele>110.68884277344</ele>
        <time>2012-03-25T08:40:51Z</time>
      </trkpt>
      <trkpt lat="48.43238" lon="2.62341">
        <ele>110.20825195312</ele>
        <time>2012-03-25T08:40:53Z</time>
      </trkpt>
      <trkpt lat="48.43234" lon="2.62342">
        <ele>109.24694824219</ele>
        <time>2012-03-25T08:40:56Z</time>
      </trkpt>
      <trkpt lat="48.43231" lon="2.62337">
        <ele>109.24694824219</ele>
        <time>2012-03-25T08:40:58Z</time>
      </trkpt>
      <trkpt lat="48.43222" lon="2.6232">
        <ele>110.68884277344</ele>
        <time>2012-03-25T08:41:03Z</time>
      </trkpt>
      <trkpt lat="48.43208" lon="2.62302">
        <ele>111.65026855469</ele>
        <time>2012-03-25T08:41:09Z</time>
      </trkpt>
      <trkpt lat="48.43193" lon="2.62285">
        <ele>114.05358886719</ele>
        <time>2012-03-25T08:41:17Z</time>
      </trkpt>
      <trkpt lat="48.43181" lon="2.62276">
        <ele>116.45678710938</ele>
        <time>2012-03-25T08:41:24Z</time>
      </trkpt>
      <trkpt lat="48.43174" lon="2.62274">
        <ele>118.37939453125</ele>
        <time>2012-03-25T08:41:29Z</time>
      </trkpt>
      <trkpt lat="48.43171" lon="2.62274">
        <ele>118.86010742188</ele>
        <time>2012-03-25T08:41:31Z</time>
      </trkpt>
      <trkpt lat="48.43156" lon="2.6227">
        <ele>122.22473144531</ele>
        <time>2012-03-25T08:41:39Z</time>
      </trkpt>
      <trkpt lat="48.43155" lon="2.62269">
        <ele>122.22473144531</ele>
        <time>2012-03-25T08:41:40Z</time>
      </trkpt>
      <trkpt lat="48.43139" lon="2.62257">
        <ele>123.18615722656</ele>
        <time>2012-03-25T08:41:46Z</time>
      </trkpt>
      <trkpt lat="48.43117" lon="2.62236">
        <ele>124.62805175781</ele>
        <time>2012-03-25T08:41:54Z</time>
      </trkpt>
      <trkpt lat="48.43103" lon="2.62222">
        <ele>125.10876464844</ele>
        <time>2012-03-25T08:41:59Z</time>
      </trkpt>
      <trkpt lat="48.43083" lon="2.62204">
        <ele>125.10876464844</ele>
        <time>2012-03-25T08:42:05Z</time>
      </trkpt>
      <trkpt lat="48.43059" lon="2.62179">
        <ele>124.62805175781</ele>
        <time>2012-03-25T08:42:12Z</time>
      </trkpt>
      <trkpt lat="48.43028" lon="2.62148">
        <ele>125.10876464844</ele>
        <time>2012-03-25T08:42:20Z</time>
      </trkpt>
      <trkpt lat="48.42994" lon="2.62113">
        <ele>124.62805175781</ele>
        <time>2012-03-25T08:42:28Z</time>
      </trkpt>
      <trkpt lat="48.42962" lon="2.62084">
        <ele>124.62805175781</ele>
        <time>2012-03-25T08:42:35Z</time>
      </trkpt>
      <trkpt lat="48.42936" lon="2.62057">
        <ele>124.62805175781</ele>
        <time>2012-03-25T08:42:41Z</time>
      </trkpt>
      <trkpt lat="48.42927" lon="2.62048">
        <ele>124.14733886719</ele>
        <time>2012-03-25T08:42:43Z</time>
      </trkpt>
      <trkpt lat="48.42911" lon="2.62043">
        <ele>124.62805175781</ele>
        <time>2012-03-25T08:42:47Z</time>
      </trkpt>
      <trkpt lat="48.42905" lon="2.62059">
        <ele>124.62805175781</ele>
        <time>2012-03-25T08:42:50Z</time>
      </trkpt>
      <trkpt lat="48.429" lon="2.62103">
        <ele>124.62805175781</ele>
        <time>2012-03-25T08:42:56Z</time>
      </trkpt>
      <trkpt lat="48.42891" lon="2.62178">
        <ele>125.10876464844</ele>
        <time>2012-03-25T08:43:05Z</time>
      </trkpt>
      <trkpt lat="48.42884" lon="2.62232">
        <ele>124.62805175781</ele>
        <time>2012-03-25T08:43:11Z</time>
      </trkpt>
      <trkpt lat="48.4288" lon="2.62267">
        <ele>124.62805175781</ele>
        <time>2012-03-25T08:43:15Z</time>
      </trkpt>
      <trkpt lat="48.42878" lon="2.623">
        <ele>124.62805175781</ele>
        <time>2012-03-25T08:43:19Z</time>
      </trkpt>
      <trkpt lat="48.42869" lon="2.62365">
        <ele>124.14733886719</ele>
        <time>2012-03-25T08:43:26Z</time>
      </trkpt>
      <trkpt lat="48.42866" lon="2.62394">
        <ele>125.10876464844</ele>
        <time>2012-03-25T08:43:29Z</time>
      </trkpt>
      <trkpt lat="48.42859" lon="2.62462">
        <ele>124.14733886719</ele>
        <time>2012-03-25T08:43:36Z</time>
      </trkpt>
      <trkpt lat="48.42851" lon="2.62516">
        <ele>124.14733886719</ele>
        <time>2012-03-25T08:43:42Z</time>
      </trkpt>
      <trkpt lat="48.42842" lon="2.62579">
        <ele>124.14733886719</ele>
        <time>2012-03-25T08:43:49Z</time>
      </trkpt>
      <trkpt lat="48.42834" lon="2.62642">
        <ele>125.10876464844</ele>
        <time>2012-03-25T08:43:56Z</time>
      </trkpt>
      <trkpt lat="48.42828" lon="2.62691">
        <ele>126.55065917969</ele>
        <time>2012-03-25T08:44:02Z</time>
      </trkpt>
      <trkpt lat="48.42817" lon="2.62769">
        <ele>126.06994628906</ele>
        <time>2012-03-25T08:44:11Z</time>
      </trkpt>
      <trkpt lat="48.42809" lon="2.62828">
        <ele>126.06994628906</ele>
        <time>2012-03-25T08:44:18Z</time>
      </trkpt>
      <trkpt lat="48.42805" lon="2.62876">
        <ele>126.55065917969</ele>
        <time>2012-03-25T08:44:24Z</time>
      </trkpt>
      <trkpt lat="48.42798" lon="2.62927">
        <ele>126.55065917969</ele>
        <time>2012-03-25T08:44:30Z</time>
      </trkpt>
      <trkpt lat="48.42789" lon="2.63">
        <ele>127.03137207031</ele>
        <time>2012-03-25T08:44:38Z</time>
      </trkpt>
      <trkpt lat="48.42788" lon="2.63008">
        <ele>127.03137207031</ele>
        <time>2012-03-25T08:44:39Z</time>
      </trkpt>
      <trkpt lat="48.42781" lon="2.63062">
        <ele>127.03137207031</ele>
        <time>2012-03-25T08:44:45Z</time>
      </trkpt>
      <trkpt lat="48.42775" lon="2.63118">
        <ele>126.06994628906</ele>
        <time>2012-03-25T08:44:51Z</time>
      </trkpt>
      <trkpt lat="48.42769" lon="2.63165">
        <ele>126.06994628906</ele>
        <time>2012-03-25T08:44:56Z</time>
      </trkpt>
      <trkpt lat="48.42762" lon="2.63222">
        <ele>125.58935546875</ele>
        <time>2012-03-25T08:45:02Z</time>
      </trkpt>
      <trkpt lat="48.42754" lon="2.63298">
        <ele>126.06994628906</ele>
        <time>2012-03-25T08:45:10Z</time>
      </trkpt>
      <trkpt lat="48.42747" lon="2.63355">
        <ele>126.55065917969</ele>
        <time>2012-03-25T08:45:16Z</time>
      </trkpt>
      <trkpt lat="48.42737" lon="2.6344">
        <ele>126.55065917969</ele>
        <time>2012-03-25T08:45:25Z</time>
      </trkpt>
      <trkpt lat="48.42725" lon="2.63526">
        <ele>126.55065917969</ele>
        <time>2012-03-25T08:45:34Z</time>
      </trkpt>
      <trkpt lat="48.42718" lon="2.63581">
        <ele>126.55065917969</ele>
        <time>2012-03-25T08:45:40Z</time>
      </trkpt>
      <trkpt lat="48.42711" lon="2.63635">
        <ele>126.55065917969</ele>
        <time>2012-03-25T08:45:46Z</time>
      </trkpt>
      <trkpt lat="48.42705" lon="2.63684">
        <ele>126.55065917969</ele>
        <time>2012-03-25T08:45:52Z</time>
      </trkpt>
      <trkpt lat="48.42698" lon="2.63742">
        <ele>126.55065917969</ele>
        <time>2012-03-25T08:45:59Z</time>
      </trkpt>
      <trkpt lat="48.42698" lon="2.63748">
        <ele>126.06994628906</ele>
        <time>2012-03-25T08:46:00Z</time>
      </trkpt>
      <trkpt lat="48.42695" lon="2.6378">
        <ele>126.55065917969</ele>
        <time>2012-03-25T08:46:04Z</time>
      </trkpt>
      <trkpt lat="48.42687" lon="2.63847">
        <ele>126.06994628906</ele>
        <time>2012-03-25T08:46:12Z</time>
      </trkpt>
      <trkpt lat="48.4268" lon="2.63893">
        <ele>125.58935546875</ele>
        <time>2012-03-25T08:46:17Z</time>
      </trkpt>
      <trkpt lat="48.42676" lon="2.63928">
        <ele>125.58935546875</ele>
        <time>2012-03-25T08:46:21Z</time>
      </trkpt>
      <trkpt lat="48.4267" lon="2.63989">
        <ele>125.58935546875</ele>
        <time>2012-03-25T08:46:28Z</time>
      </trkpt>
      <trkpt lat="48.42662" lon="2.64044">
        <ele>125.10876464844</ele>
        <time>2012-03-25T08:46:34Z</time>
      </trkpt>
      <trkpt lat="48.42657" lon="2.64073">
        <ele>126.06994628906</ele>
        <time>2012-03-25T08:46:37Z</time>
      </trkpt>
      <trkpt lat="48.42651" lon="2.64123">
        <ele>126.06994628906</ele>
        <time>2012-03-25T08:46:43Z</time>
      </trkpt>
      <trkpt lat="48.42647" lon="2.64169">
        <ele>125.58935546875</ele>
        <time>2012-03-25T08:46:49Z</time>
      </trkpt>
      <trkpt lat="48.4264" lon="2.6423">
        <ele>126.06994628906</ele>
        <time>2012-03-25T08:46:56Z</time>
      </trkpt>
      <trkpt lat="48.42633" lon="2.64276">
        <ele>126.06994628906</ele>
        <time>2012-03-25T08:47:01Z</time>
      </trkpt>
      <trkpt lat="48.42626" lon="2.64317">
        <ele>125.58935546875</ele>
        <time>2012-03-25T08:47:06Z</time>
      </trkpt>
      <trkpt lat="48.42625" lon="2.64324">
        <ele>125.58935546875</ele>
        <time>2012-03-25T08:47:07Z</time>
      </trkpt>
      <trkpt lat="48.42618" lon="2.64379">
        <ele>126.06994628906</ele>
        <time>2012-03-25T08:47:14Z</time>
      </trkpt>
      <trkpt lat="48.42616" lon="2.64407">
        <ele>125.58935546875</ele>
        <time>2012-03-25T08:47:18Z</time>
      </trkpt>
      <trkpt lat="48.42609" lon="2.64465">
        <ele>123.18615722656</ele>
        <time>2012-03-25T08:47:25Z</time>
      </trkpt>
      <trkpt lat="48.42606" lon="2.64496">
        <ele>121.744140625</ele>
        <time>2012-03-25T08:47:28Z</time>
      </trkpt>
      <trkpt lat="48.42604" lon="2.64507">
        <ele>120.78283691406</ele>
        <time>2012-03-25T08:47:29Z</time>
      </trkpt>
      <trkpt lat="48.42601" lon="2.64529">
        <ele>120.30212402344</ele>
        <time>2012-03-25T08:47:31Z</time>
      </trkpt>
      <trkpt lat="48.42595" lon="2.6458">
        <ele>117.89880371094</ele>
        <time>2012-03-25T08:47:36Z</time>
      </trkpt>
      <trkpt lat="48.4259" lon="2.64618">
        <ele>115.97619628906</ele>
        <time>2012-03-25T08:47:39Z</time>
      </trkpt>
      <trkpt lat="48.42585" lon="2.64654">
        <ele>114.05358886719</ele>
        <time>2012-03-25T08:47:42Z</time>
      </trkpt>
      <trkpt lat="48.42577" lon="2.64718">
        <ele>111.16955566406</ele>
        <time>2012-03-25T08:47:48Z</time>
      </trkpt>
      <trkpt lat="48.42567" lon="2.64718">
        <ele>110.20825195312</ele>
        <time>2012-03-25T08:47:51Z</time>
      </trkpt>
      <trkpt lat="48.42558" lon="2.64702">
        <ele>109.24694824219</ele>
        <time>2012-03-25T08:47:54Z</time>
      </trkpt>
      <trkpt lat="48.42529" lon="2.64645">
        <ele>107.80505371094</ele>
        <time>2012-03-25T08:48:01Z</time>
      </trkpt>
      <trkpt lat="48.42518" lon="2.64623">
        <ele>107.32434082031</ele>
        <time>2012-03-25T08:48:04Z</time>
      </trkpt>
      <trkpt lat="48.42494" lon="2.64579">
        <ele>107.32434082031</ele>
        <time>2012-03-25T08:48:10Z</time>
      </trkpt>
      <trkpt lat="48.42464" lon="2.64527">
        <ele>105.88244628906</ele>
        <time>2012-03-25T08:48:17Z</time>
      </trkpt>
      <trkpt lat="48.42441" lon="2.64475">
        <ele>104.92102050781</ele>
        <time>2012-03-25T08:48:23Z</time>
      </trkpt>
      <trkpt lat="48.42421" lon="2.64449">
        <ele>104.92102050781</ele>
        <time>2012-03-25T08:48:27Z</time>
      </trkpt>
      <trkpt lat="48.42392" lon="2.64425">
        <ele>105.88244628906</ele>
        <time>2012-03-25T08:48:33Z</time>
      </trkpt>
      <trkpt lat="48.42373" lon="2.64407">
        <ele>106.36303710938</ele>
        <time>2012-03-25T08:48:38Z</time>
      </trkpt>
      <trkpt lat="48.42349" lon="2.64391">
        <ele>107.32434082031</ele>
        <time>2012-03-25T08:48:45Z</time>
      </trkpt>
      <trkpt lat="48.42338" lon="2.64381">
        <ele>108.28564453125</ele>
        <time>2012-03-25T08:48:49Z</time>
      </trkpt>
      <trkpt lat="48.42326" lon="2.64371">
        <ele>109.24694824219</ele>
        <time>2012-03-25T08:48:54Z</time>
      </trkpt>
      <trkpt lat="48.42311" lon="2.6436">
        <ele>110.68884277344</ele>
        <time>2012-03-25T08:49:00Z</time>
      </trkpt>
      <trkpt lat="48.42299" lon="2.6435">
        <ele>112.13098144531</ele>
        <time>2012-03-25T08:49:07Z</time>
      </trkpt>
      <trkpt lat="48.42287" lon="2.64345">
        <ele>114.05358886719</ele>
        <time>2012-03-25T08:49:13Z</time>
      </trkpt>
      <trkpt lat="48.4228" lon="2.64337">
        <ele>115.01489257812</ele>
        <time>2012-03-25T08:49:19Z</time>
      </trkpt>
      <trkpt lat="48.42275" lon="2.64333">
        <ele>115.97619628906</ele>
        <time>2012-03-25T08:49:23Z</time>
      </trkpt>
      <trkpt lat="48.4227" lon="2.64328">
        <ele>117.89880371094</ele>
        <time>2012-03-25T08:49:27Z</time>
      </trkpt>
      <trkpt lat="48.42258" lon="2.64317">
        <ele>120.30212402344</ele>
        <time>2012-03-25T08:49:36Z</time>
      </trkpt>
      <trkpt lat="48.42247" lon="2.64308">
        <ele>120.78283691406</ele>
        <time>2012-03-25T08:49:43Z</time>
      </trkpt>
      <trkpt lat="48.42235" lon="2.643">
        <ele>121.26354980469</ele>
        <time>2012-03-25T08:49:49Z</time>
      </trkpt>
      <trkpt lat="48.42219" lon="2.64289">
        <ele>121.744140625</ele>
        <time>2012-03-25T08:49:57Z</time>
      </trkpt>
      <trkpt lat="48.42205" lon="2.64276">
        <ele>122.70544433594</ele>
        <time>2012-03-25T08:50:04Z</time>
      </trkpt>
      <trkpt lat="48.42188" lon="2.64262">
        <ele>123.66674804688</ele>
        <time>2012-03-25T08:50:11Z</time>
      </trkpt>
      <trkpt lat="48.42164" lon="2.64244">
        <ele>124.14733886719</ele>
        <time>2012-03-25T08:50:19Z</time>
      </trkpt>
      <trkpt lat="48.42145" lon="2.64228">
        <ele>125.10876464844</ele>
        <time>2012-03-25T08:50:25Z</time>
      </trkpt>
      <trkpt lat="48.42126" lon="2.64212">
        <ele>126.06994628906</ele>
        <time>2012-03-25T08:50:31Z</time>
      </trkpt>
      <trkpt lat="48.42109" lon="2.64198">
        <ele>125.58935546875</ele>
        <time>2012-03-25T08:50:37Z</time>
      </trkpt>
      <trkpt lat="48.42091" lon="2.64183">
        <ele>125.58935546875</ele>
        <time>2012-03-25T08:50:43Z</time>
      </trkpt>
      <trkpt lat="48.42073" lon="2.64168">
        <ele>126.55065917969</ele>
        <time>2012-03-25T08:50:49Z</time>
      </trkpt>
      <trkpt lat="48.42047" lon="2.6415">
        <ele>126.55065917969</ele>
        <time>2012-03-25T08:50:56Z</time>
      </trkpt>
      <trkpt lat="48.42044" lon="2.64147">
        <ele>126.55065917969</ele>
        <time>2012-03-25T08:50:57Z</time>
      </trkpt>
      <trkpt lat="48.42047" lon="2.64135">
        <ele>126.06994628906</ele>
        <time>2012-03-25T08:51:01Z</time>
      </trkpt>
      <trkpt lat="48.42061" lon="2.64125">
        <ele>125.58935546875</ele>
        <time>2012-03-25T08:51:05Z</time>
      </trkpt>
      <trkpt lat="48.42069" lon="2.6412">
        <ele>125.58935546875</ele>
        <time>2012-03-25T08:51:07Z</time>
      </trkpt>
      <trkpt lat="48.42097" lon="2.64104">
        <ele>125.58935546875</ele>
        <time>2012-03-25T08:51:12Z</time>
      </trkpt>
      <trkpt lat="48.4213" lon="2.64084">
        <ele>124.14733886719</ele>
        <time>2012-03-25T08:51:17Z</time>
      </trkpt>
      <trkpt lat="48.42163" lon="2.64065">
        <ele>123.18615722656</ele>
        <time>2012-03-25T08:51:22Z</time>
      </trkpt>
      <trkpt lat="48.42196" lon="2.64044">
        <ele>118.37939453125</ele>
        <time>2012-03-25T08:51:26Z</time>
      </trkpt>
      <trkpt lat="48.42205" lon="2.64038">
        <ele>116.45678710938</ele>
        <time>2012-03-25T08:51:27Z</time>
      </trkpt>
      <trkpt lat="48.42223" lon="2.64026">
        <ele>115.01489257812</ele>
        <time>2012-03-25T08:51:29Z</time>
      </trkpt>
      <trkpt lat="48.42243" lon="2.64014">
        <ele>114.05358886719</ele>
        <time>2012-03-25T08:51:31Z</time>
      </trkpt>
      <trkpt lat="48.42266" lon="2.64">
        <ele>109.72766113281</ele>
        <time>2012-03-25T08:51:33Z</time>
      </trkpt>
      <trkpt lat="48.42276" lon="2.63994">
        <ele>106.84362792969</ele>
        <time>2012-03-25T08:51:34Z</time>
      </trkpt>
      <trkpt lat="48.42296" lon="2.63981">
        <ele>102.99829101562</ele>
        <time>2012-03-25T08:51:36Z</time>
      </trkpt>
      <trkpt lat="48.42305" lon="2.63976">
        <ele>103.47900390625</ele>
        <time>2012-03-25T08:51:37Z</time>
      </trkpt>
      <trkpt lat="48.42329" lon="2.63959">
        <ele>102.51770019531</ele>
        <time>2012-03-25T08:51:40Z</time>
      </trkpt>
      <trkpt lat="48.42337" lon="2.63944">
        <ele>101.55639648438</ele>
        <time>2012-03-25T08:51:42Z</time>
      </trkpt>
      <trkpt lat="48.4236" lon="2.63914">
        <ele>102.51770019531</ele>
        <time>2012-03-25T08:51:46Z</time>
      </trkpt>
      <trkpt lat="48.42391" lon="2.63881">
        <ele>103.95971679688</ele>
        <time>2012-03-25T08:51:52Z</time>
      </trkpt>
      <trkpt lat="48.4241" lon="2.63863">
        <ele>104.4404296875</ele>
        <time>2012-03-25T08:51:57Z</time>
      </trkpt>
      <trkpt lat="48.42419" lon="2.63853">
        <ele>105.88244628906</ele>
        <time>2012-03-25T08:52:00Z</time>
      </trkpt>
      <trkpt lat="48.42435" lon="2.63836">
        <ele>107.32434082031</ele>
        <time>2012-03-25T08:52:07Z</time>
      </trkpt>
      <trkpt lat="48.4244" lon="2.63828">
        <ele>109.24694824219</ele>
        <time>2012-03-25T08:52:12Z</time>
      </trkpt>
      <trkpt lat="48.42445" lon="2.63814">
        <ele>109.72766113281</ele>
        <time>2012-03-25T08:52:19Z</time>
      </trkpt>
      <trkpt lat="48.42448" lon="2.638">
        <ele>112.61157226562</ele>
        <time>2012-03-25T08:52:26Z</time>
      </trkpt>
      <trkpt lat="48.42451" lon="2.63788">
        <ele>114.05358886719</ele>
        <time>2012-03-25T08:52:32Z</time>
      </trkpt>
      <trkpt lat="48.42451" lon="2.63784">
        <ele>114.5341796875</ele>
        <time>2012-03-25T08:52:34Z</time>
      </trkpt>
      <trkpt lat="48.42452" lon="2.63768">
        <ele>115.49560546875</ele>
        <time>2012-03-25T08:52:40Z</time>
      </trkpt>
      <trkpt lat="48.42453" lon="2.63766">
        <ele>115.97619628906</ele>
        <time>2012-03-25T08:52:41Z</time>
      </trkpt>
      <trkpt lat="48.42458" lon="2.63743">
        <ele>118.37939453125</ele>
        <time>2012-03-25T08:52:50Z</time>
      </trkpt>
      <trkpt lat="48.4246" lon="2.63726">
        <ele>118.86010742188</ele>
        <time>2012-03-25T08:52:56Z</time>
      </trkpt>
      <trkpt lat="48.42463" lon="2.63709">
        <ele>120.78283691406</ele>
        <time>2012-03-25T08:53:02Z</time>
      </trkpt>
      <trkpt lat="48.42465" lon="2.63695">
        <ele>121.744140625</ele>
        <time>2012-03-25T08:53:08Z</time>
      </trkpt>
      <trkpt lat="48.4247" lon="2.63678">
        <ele>122.22473144531</ele>
        <time>2012-03-25T08:53:15Z</time>
      </trkpt>
      <trkpt lat="48.42471" lon="2.63661">
        <ele>123.18615722656</ele>
        <time>2012-03-25T08:53:21Z</time>
      </trkpt>
      <trkpt lat="48.42475" lon="2.63639">
        <ele>123.66674804688</ele>
        <time>2012-03-25T08:53:28Z</time>
      </trkpt>
      <trkpt lat="48.42476" lon="2.63633">
        <ele>123.18615722656</ele>
        <time>2012-03-25T08:53:30Z</time>
      </trkpt>
      <trkpt lat="48.42476" lon="2.63627">
        <ele>123.66674804688</ele>
        <time>2012-03-25T08:53:32Z</time>
      </trkpt>
      <trkpt lat="48.42479" lon="2.63605">
        <ele>124.14733886719</ele>
        <time>2012-03-25T08:53:39Z</time>
      </trkpt>
      <trkpt lat="48.4248" lon="2.63588">
        <ele>124.14733886719</ele>
        <time>2012-03-25T08:53:43Z</time>
      </trkpt>
      <trkpt lat="48.42484" lon="2.63569">
        <ele>123.66674804688</ele>
        <time>2012-03-25T08:53:47Z</time>
      </trkpt>
      <trkpt lat="48.42485" lon="2.63549">
        <ele>124.14733886719</ele>
        <time>2012-03-25T08:53:51Z</time>
      </trkpt>
      <trkpt lat="48.42492" lon="2.63519">
        <ele>124.14733886719</ele>
        <time>2012-03-25T08:53:56Z</time>
      </trkpt>
      <trkpt lat="48.42499" lon="2.63482">
        <ele>124.14733886719</ele>
        <time>2012-03-25T08:54:02Z</time>
      </trkpt>
      <trkpt lat="48.42502" lon="2.63457">
        <ele>124.14733886719</ele>
        <time>2012-03-25T08:54:06Z</time>
      </trkpt>
      <trkpt lat="48.42508" lon="2.63414">
        <ele>124.14733886719</ele>
        <time>2012-03-25T08:54:13Z</time>
      </trkpt>
      <trkpt lat="48.42512" lon="2.63392">
        <ele>124.62805175781</ele>
        <time>2012-03-25T08:54:17Z</time>
      </trkpt>
      <trkpt lat="48.42511" lon="2.6335">
        <ele>125.10876464844</ele>
        <time>2012-03-25T08:54:24Z</time>
      </trkpt>
      <trkpt lat="48.42511" lon="2.6333">
        <ele>125.10876464844</ele>
        <time>2012-03-25T08:54:27Z</time>
      </trkpt>
      <trkpt lat="48.4251" lon="2.63285">
        <ele>125.10876464844</ele>
        <time>2012-03-25T08:54:33Z</time>
      </trkpt>
      <trkpt lat="48.42508" lon="2.63267">
        <ele>125.10876464844</ele>
        <time>2012-03-25T08:54:35Z</time>
      </trkpt>
      <trkpt lat="48.42506" lon="2.63234">
        <ele>123.18615722656</ele>
        <time>2012-03-25T08:54:39Z</time>
      </trkpt>
      <trkpt lat="48.42502" lon="2.63185">
        <ele>121.26354980469</ele>
        <time>2012-03-25T08:54:44Z</time>
      </trkpt>
      <trkpt lat="48.42501" lon="2.63173">
        <ele>119.82141113281</ele>
        <time>2012-03-25T08:54:45Z</time>
      </trkpt>
      <trkpt lat="48.42501" lon="2.6314">
        <ele>117.89880371094</ele>
        <time>2012-03-25T08:54:47Z</time>
      </trkpt>
      <trkpt lat="48.42505" lon="2.63085">
        <ele>120.78283691406</ele>
        <time>2012-03-25T08:54:51Z</time>
      </trkpt>
      <trkpt lat="48.42506" lon="2.6306">
        <ele>121.26354980469</ele>
        <time>2012-03-25T08:54:54Z</time>
      </trkpt>
      <trkpt lat="48.42504" lon="2.63041">
        <ele>121.26354980469</ele>
        <time>2012-03-25T08:54:57Z</time>
      </trkpt>
      <trkpt lat="48.42501" lon="2.63013">
        <ele>121.26354980469</ele>
        <time>2012-03-25T08:55:02Z</time>
      </trkpt>
      <trkpt lat="48.42484" lon="2.63019">
        <ele>119.3408203125</ele>
        <time>2012-03-25T08:55:05Z</time>
      </trkpt>
      <trkpt lat="48.42379" lon="2.63036">
        <ele>14.557006835938</ele>
        <time>2012-03-25T08:55:14Z</time>
      </trkpt>
      <trkpt lat="48.42358" lon="2.63045">
        <ele>11.192504882812</ele>
        <time>2012-03-25T08:55:16Z</time>
      </trkpt>
      <trkpt lat="48.42321" lon="2.63052">
        <ele>8.7891845703125</ele>
        <time>2012-03-25T08:55:19Z</time>
      </trkpt>
      <trkpt lat="48.42274" lon="2.63063">
        <ele>6.3858642578125</ele>
        <time>2012-03-25T08:55:23Z</time>
      </trkpt>
      <trkpt lat="48.42252" lon="2.63064">
        <ele>2.5406494140625</ele>
        <time>2012-03-25T08:55:25Z</time>
      </trkpt>
      <trkpt lat="48.4223" lon="2.63063">
        <ele>1.0986328125</ele>
        <time>2012-03-25T08:55:27Z</time>
      </trkpt>
      <trkpt lat="48.42214" lon="2.63056">
        <ele>1.0986328125</ele>
        <time>2012-03-25T08:55:29Z</time>
      </trkpt>
      <trkpt lat="48.42194" lon="2.63035">
        <ele>2.06005859375</ele>
        <time>2012-03-25T08:55:33Z</time>
      </trkpt>
      <trkpt lat="48.42177" lon="2.63019">
        <ele>1.579345703125</ele>
        <time>2012-03-25T08:55:37Z</time>
      </trkpt>
      <trkpt lat="48.42146" lon="2.62995">
        <ele>2.06005859375</ele>
        <time>2012-03-25T08:55:43Z</time>
      </trkpt>
      <trkpt lat="48.4212" lon="2.62974">
        <ele>3.501953125</ele>
        <time>2012-03-25T08:55:48Z</time>
      </trkpt>
      <trkpt lat="48.42107" lon="2.62962">
        <ele>3.501953125</ele>
        <time>2012-03-25T08:55:51Z</time>
      </trkpt>
      <trkpt lat="48.42086" lon="2.62947">
        <ele>3.982666015625</ele>
        <time>2012-03-25T08:55:57Z</time>
      </trkpt>
      <trkpt lat="48.42067" lon="2.62931">
        <ele>6.3858642578125</ele>
        <time>2012-03-25T08:56:04Z</time>
      </trkpt>
      <trkpt lat="48.42052" lon="2.62919">
        <ele>6.866455078125</ele>
        <time>2012-03-25T08:56:09Z</time>
      </trkpt>
      <trkpt lat="48.42035" lon="2.62904">
        <ele>8.7891845703125</ele>
        <time>2012-03-25T08:56:16Z</time>
      </trkpt>
      <trkpt lat="48.42014" lon="2.6289">
        <ele>10.711791992188</ele>
        <time>2012-03-25T08:56:24Z</time>
      </trkpt>
      <trkpt lat="48.42" lon="2.62881">
        <ele>11.673217773438</ele>
        <time>2012-03-25T08:56:31Z</time>
      </trkpt>
      <trkpt lat="48.4199" lon="2.62871">
        <ele>12.634399414062</ele>
        <time>2012-03-25T08:56:38Z</time>
      </trkpt>
      <trkpt lat="48.4198" lon="2.62864">
        <ele>14.557006835938</ele>
        <time>2012-03-25T08:56:45Z</time>
      </trkpt>
      <trkpt lat="48.41978" lon="2.62861">
        <ele>15.9990234375</ele>
        <time>2012-03-25T08:56:47Z</time>
      </trkpt>
      <trkpt lat="48.41974" lon="2.62858">
        <ele>15.9990234375</ele>
        <time>2012-03-25T08:56:49Z</time>
      </trkpt>
      <trkpt lat="48.41967" lon="2.62854">
        <ele>17.441162109375</ele>
        <time>2012-03-25T08:56:54Z</time>
      </trkpt>
      <trkpt lat="48.4196" lon="2.62861">
        <ele>19.36376953125</ele>
        <time>2012-03-25T08:57:02Z</time>
      </trkpt>
      <trkpt lat="48.41956" lon="2.62874">
        <ele>20.8056640625</ele>
        <time>2012-03-25T08:57:10Z</time>
      </trkpt>
      <trkpt lat="48.4195" lon="2.62885">
        <ele>23.208984375</ele>
        <time>2012-03-25T08:57:18Z</time>
      </trkpt>
      <trkpt lat="48.4194" lon="2.62898">
        <ele>25.131713867188</ele>
        <time>2012-03-25T08:57:27Z</time>
      </trkpt>
      <trkpt lat="48.41933" lon="2.62906">
        <ele>28.015502929688</ele>
        <time>2012-03-25T08:57:33Z</time>
      </trkpt>
      <trkpt lat="48.41927" lon="2.62912">
        <ele>28.976928710938</ele>
        <time>2012-03-25T08:57:39Z</time>
      </trkpt>
      <trkpt lat="48.41916" lon="2.62916">
        <ele>30.418823242188</ele>
        <time>2012-03-25T08:57:48Z</time>
      </trkpt>
      <trkpt lat="48.41905" lon="2.62914">
        <ele>32.341552734375</ele>
        <time>2012-03-25T08:57:57Z</time>
      </trkpt>
      <trkpt lat="48.41894" lon="2.62907">
        <ele>34.744873046875</ele>
        <time>2012-03-25T08:58:05Z</time>
      </trkpt>
      <trkpt lat="48.41885" lon="2.62897">
        <ele>35.225463867188</ele>
        <time>2012-03-25T08:58:12Z</time>
      </trkpt>
      <trkpt lat="48.41882" lon="2.62892">
        <ele>36.66748046875</ele>
        <time>2012-03-25T08:58:15Z</time>
      </trkpt>
      <trkpt lat="48.41873" lon="2.62883">
        <ele>37.148071289062</ele>
        <time>2012-03-25T08:58:21Z</time>
      </trkpt>
      <trkpt lat="48.41861" lon="2.62877">
        <ele>38.109375</ele>
        <time>2012-03-25T08:58:27Z</time>
      </trkpt>
      <trkpt lat="48.41846" lon="2.6287">
        <ele>39.070678710938</ele>
        <time>2012-03-25T08:58:34Z</time>
      </trkpt>
      <trkpt lat="48.41831" lon="2.62861">
        <ele>39.55126953125</ele>
        <time>2012-03-25T08:58:41Z</time>
      </trkpt>
      <trkpt lat="48.41813" lon="2.62853">
        <ele>40.512817382812</ele>
        <time>2012-03-25T08:58:48Z</time>
      </trkpt>
      <trkpt lat="48.41795" lon="2.62844">
        <ele>41.473999023438</ele>
        <time>2012-03-25T08:58:54Z</time>
      </trkpt>
      <trkpt lat="48.41776" lon="2.62834">
        <ele>41.954711914062</ele>
        <time>2012-03-25T08:59:00Z</time>
      </trkpt>
      <trkpt lat="48.41751" lon="2.62824">
        <ele>42.435424804688</ele>
        <time>2012-03-25T08:59:07Z</time>
      </trkpt>
      <trkpt lat="48.41743" lon="2.62821">
        <ele>42.435424804688</ele>
        <time>2012-03-25T08:59:09Z</time>
      </trkpt>
      <trkpt lat="48.4171" lon="2.62807">
        <ele>40.993408203125</ele>
        <time>2012-03-25T08:59:16Z</time>
      </trkpt>
      <trkpt lat="48.41668" lon="2.6279">
        <ele>39.55126953125</ele>
        <time>2012-03-25T08:59:23Z</time>
      </trkpt>
      <trkpt lat="48.41661" lon="2.62787">
        <ele>38.109375</ele>
        <time>2012-03-25T08:59:24Z</time>
      </trkpt>
      <trkpt lat="48.4163" lon="2.62762">
        <ele>35.7060546875</ele>
        <time>2012-03-25T08:59:28Z</time>
      </trkpt>
      <trkpt lat="48.41614" lon="2.62744">
        <ele>31.380126953125</ele>
        <time>2012-03-25T08:59:30Z</time>
      </trkpt>
      <trkpt lat="48.41606" lon="2.62735">
        <ele>28.496215820312</ele>
        <time>2012-03-25T08:59:31Z</time>
      </trkpt>
      <trkpt lat="48.41598" lon="2.62724">
        <ele>27.534912109375</ele>
        <time>2012-03-25T08:59:32Z</time>
      </trkpt>
      <trkpt lat="48.41581" lon="2.62682">
        <ele>21.286376953125</ele>
        <time>2012-03-25T08:59:35Z</time>
      </trkpt>
      <trkpt lat="48.41577" lon="2.62668">
        <ele>20.324951171875</ele>
        <time>2012-03-25T08:59:36Z</time>
      </trkpt>
      <trkpt lat="48.41591" lon="2.62607">
        <ele>15.037719726562</ele>
        <time>2012-03-25T08:59:41Z</time>
      </trkpt>
      <trkpt lat="48.41597" lon="2.62596">
        <ele>14.557006835938</ele>
        <time>2012-03-25T08:59:42Z</time>
      </trkpt>
      <trkpt lat="48.41598" lon="2.62546">
        <ele>12.15380859375</ele>
        <time>2012-03-25T08:59:47Z</time>
      </trkpt>
      <trkpt lat="48.41588" lon="2.62519">
        <ele>10.711791992188</ele>
        <time>2012-03-25T08:59:50Z</time>
      </trkpt>
      <trkpt lat="48.41586" lon="2.62514">
        <ele>10.711791992188</ele>
        <time>2012-03-25T08:59:51Z</time>
      </trkpt>
      <trkpt lat="48.41579" lon="2.62487">
        <ele>11.673217773438</ele>
        <time>2012-03-25T08:59:56Z</time>
      </trkpt>
      <trkpt lat="48.41564" lon="2.6247">
        <ele>12.634399414062</ele>
        <time>2012-03-25T09:00:00Z</time>
      </trkpt>
      <trkpt lat="48.41543" lon="2.62454">
        <ele>14.557006835938</ele>
        <time>2012-03-25T09:00:07Z</time>
      </trkpt>
      <trkpt lat="48.41529" lon="2.62443">
        <ele>15.518432617188</ele>
        <time>2012-03-25T09:00:13Z</time>
      </trkpt>
      <trkpt lat="48.41515" lon="2.62431">
        <ele>16.479736328125</ele>
        <time>2012-03-25T09:00:19Z</time>
      </trkpt>
      <trkpt lat="48.41498" lon="2.62419">
        <ele>16.96044921875</ele>
        <time>2012-03-25T09:00:26Z</time>
      </trkpt>
      <trkpt lat="48.41491" lon="2.62413">
        <ele>18.40234375</ele>
        <time>2012-03-25T09:00:30Z</time>
      </trkpt>
      <trkpt lat="48.41481" lon="2.62403">
        <ele>19.844360351562</ele>
        <time>2012-03-25T09:00:37Z</time>
      </trkpt>
      <trkpt lat="48.41475" lon="2.62394">
        <ele>22.24755859375</ele>
        <time>2012-03-25T09:00:43Z</time>
      </trkpt>
      <trkpt lat="48.41469" lon="2.62388">
        <ele>23.208984375</ele>
        <time>2012-03-25T09:00:49Z</time>
      </trkpt>
      <trkpt lat="48.41461" lon="2.62379">
        <ele>25.131713867188</ele>
        <time>2012-03-25T09:00:56Z</time>
      </trkpt>
      <trkpt lat="48.41451" lon="2.6237">
        <ele>27.054321289062</ele>
        <time>2012-03-25T09:01:04Z</time>
      </trkpt>
      <trkpt lat="48.41448" lon="2.62368">
        <ele>28.015502929688</ele>
        <time>2012-03-25T09:01:06Z</time>
      </trkpt>
      <trkpt lat="48.41438" lon="2.62357">
        <ele>29.45751953125</ele>
        <time>2012-03-25T09:01:15Z</time>
      </trkpt>
      <trkpt lat="48.4143" lon="2.62349">
        <ele>30.418823242188</ele>
        <time>2012-03-25T09:01:22Z</time>
      </trkpt>
      <trkpt lat="48.41426" lon="2.62346">
        <ele>30.418823242188</ele>
        <time>2012-03-25T09:01:25Z</time>
      </trkpt>
      <trkpt lat="48.41417" lon="2.62332">
        <ele>33.783447265625</ele>
        <time>2012-03-25T09:01:35Z</time>
      </trkpt>
      <trkpt lat="48.41404" lon="2.62322">
        <ele>34.744873046875</ele>
        <time>2012-03-25T09:01:43Z</time>
      </trkpt>
      <trkpt lat="48.41393" lon="2.62313">
        <ele>35.7060546875</ele>
        <time>2012-03-25T09:01:50Z</time>
      </trkpt>
      <trkpt lat="48.41383" lon="2.62307">
        <ele>36.186767578125</ele>
        <time>2012-03-25T09:01:56Z</time>
      </trkpt>
      <trkpt lat="48.4137" lon="2.62291">
        <ele>37.148071289062</ele>
        <time>2012-03-25T09:02:04Z</time>
      </trkpt>
      <trkpt lat="48.41357" lon="2.62279">
        <ele>37.148071289062</ele>
        <time>2012-03-25T09:02:10Z</time>
      </trkpt>
      <trkpt lat="48.41341" lon="2.62264">
        <ele>38.109375</ele>
        <time>2012-03-25T09:02:17Z</time>
      </trkpt>
      <trkpt lat="48.41328" lon="2.62249">
        <ele>39.070678710938</ele>
        <time>2012-03-25T09:02:23Z</time>
      </trkpt>
      <trkpt lat="48.41308" lon="2.62235">
        <ele>40.993408203125</ele>
        <time>2012-03-25T09:02:30Z</time>
      </trkpt>
      <trkpt lat="48.41292" lon="2.62218">
        <ele>40.993408203125</ele>
        <time>2012-03-25T09:02:36Z</time>
      </trkpt>
      <trkpt lat="48.41278" lon="2.62203">
        <ele>40.993408203125</ele>
        <time>2012-03-25T09:02:41Z</time>
      </trkpt>
      <trkpt lat="48.41262" lon="2.62178">
        <ele>40.512817382812</ele>
        <time>2012-03-25T09:02:47Z</time>
      </trkpt>
      <trkpt lat="48.41245" lon="2.62149">
        <ele>37.148071289062</ele>
        <time>2012-03-25T09:02:51Z</time>
      </trkpt>
      <trkpt lat="48.41233" lon="2.62128">
        <ele>30.418823242188</ele>
        <time>2012-03-25T09:02:53Z</time>
      </trkpt>
      <trkpt lat="48.41226" lon="2.62118">
        <ele>28.976928710938</ele>
        <time>2012-03-25T09:02:54Z</time>
      </trkpt>
      <trkpt lat="48.4119" lon="2.62073">
        <ele>25.6123046875</ele>
        <time>2012-03-25T09:02:58Z</time>
      </trkpt>
      <trkpt lat="48.41174" lon="2.62011">
        <ele>21.286376953125</ele>
        <time>2012-03-25T09:03:02Z</time>
      </trkpt>
      <trkpt lat="48.41161" lon="2.61965">
        <ele>18.40234375</ele>
        <time>2012-03-25T09:03:05Z</time>
      </trkpt>
      <trkpt lat="48.41148" lon="2.61916">
        <ele>15.037719726562</ele>
        <time>2012-03-25T09:03:08Z</time>
      </trkpt>
      <trkpt lat="48.41135" lon="2.61869">
        <ele>13.595825195312</ele>
        <time>2012-03-25T09:03:11Z</time>
      </trkpt>
      <trkpt lat="48.41117" lon="2.61817">
        <ele>10.231201171875</ele>
        <time>2012-03-25T09:03:15Z</time>
      </trkpt>
      <trkpt lat="48.41114" lon="2.61803">
        <ele>9.7506103515625</ele>
        <time>2012-03-25T09:03:16Z</time>
      </trkpt>
      <trkpt lat="48.41111" lon="2.61754">
        <ele>9.2698974609375</ele>
        <time>2012-03-25T09:03:20Z</time>
      </trkpt>
      <trkpt lat="48.41116" lon="2.6173">
        <ele>8.7891845703125</ele>
        <time>2012-03-25T09:03:22Z</time>
      </trkpt>
      <trkpt lat="48.41134" lon="2.6165">
        <ele>5.9052734375</ele>
        <time>2012-03-25T09:03:29Z</time>
      </trkpt>
      <trkpt lat="48.41145" lon="2.61595">
        <ele>5.424560546875</ele>
        <time>2012-03-25T09:03:34Z</time>
      </trkpt>
      <trkpt lat="48.41154" lon="2.61537">
        <ele>5.424560546875</ele>
        <time>2012-03-25T09:03:40Z</time>
      </trkpt>
      <trkpt lat="48.41156" lon="2.61527">
        <ele>4.4632568359375</ele>
        <time>2012-03-25T09:03:41Z</time>
      </trkpt>
      <trkpt lat="48.41159" lon="2.61508">
        <ele>4.4632568359375</ele>
        <time>2012-03-25T09:03:43Z</time>
      </trkpt>
      <trkpt lat="48.4116" lon="2.6144">
        <ele>3.982666015625</ele>
        <time>2012-03-25T09:03:50Z</time>
      </trkpt>
      <trkpt lat="48.41154" lon="2.61356">
        <ele>2.06005859375</ele>
        <time>2012-03-25T09:03:59Z</time>
      </trkpt>
      <trkpt lat="48.41151" lon="2.61302">
        <ele>1.579345703125</ele>
        <time>2012-03-25T09:04:05Z</time>
      </trkpt>
      <trkpt lat="48.41147" lon="2.61272">
        <ele>2.5406494140625</ele>
        <time>2012-03-25T09:04:09Z</time>
      </trkpt>
      <trkpt lat="48.41142" lon="2.61235">
        <ele>2.06005859375</ele>
        <time>2012-03-25T09:04:14Z</time>
      </trkpt>
      <trkpt lat="48.41138" lon="2.61211">
        <ele>1.579345703125</ele>
        <time>2012-03-25T09:04:17Z</time>
      </trkpt>
      <trkpt lat="48.41133" lon="2.61153">
        <ele>1.0986328125</ele>
        <time>2012-03-25T09:04:24Z</time>
      </trkpt>
      <trkpt lat="48.41132" lon="2.61134">
        <ele>0.6180419921875</ele>
        <time>2012-03-25T09:04:26Z</time>
      </trkpt>
      <trkpt lat="48.41125" lon="2.61072">
        <ele>-0.3433837890625</ele>
        <time>2012-03-25T09:04:33Z</time>
      </trkpt>
      <trkpt lat="48.41122" lon="2.61054">
        <ele>-0.8240966796875</ele>
        <time>2012-03-25T09:04:35Z</time>
      </trkpt>
      <trkpt lat="48.41119" lon="2.61021">
        <ele>-0.3433837890625</ele>
        <time>2012-03-25T09:04:39Z</time>
      </trkpt>
      <trkpt lat="48.41119" lon="2.60988">
        <ele>0.137451171875</ele>
        <time>2012-03-25T09:04:43Z</time>
      </trkpt>
      <trkpt lat="48.41121" lon="2.60972">
        <ele>0.137451171875</ele>
        <time>2012-03-25T09:04:45Z</time>
      </trkpt>
      <trkpt lat="48.4113" lon="2.60946">
        <ele>0.137451171875</ele>
        <time>2012-03-25T09:04:49Z</time>
      </trkpt>
      <trkpt lat="48.41134" lon="2.60944">
        <ele>0.137451171875</ele>
        <time>2012-03-25T09:04:50Z</time>
      </trkpt>
      <trkpt lat="48.41177" lon="2.60926">
        <ele>-0.3433837890625</ele>
        <time>2012-03-25T09:04:58Z</time>
      </trkpt>
      <trkpt lat="48.41215" lon="2.60913">
        <ele>-1.3046875</ele>
        <time>2012-03-25T09:05:04Z</time>
      </trkpt>
      <trkpt lat="48.41244" lon="2.60899">
        <ele>-0.8240966796875</ele>
        <time>2012-03-25T09:05:09Z</time>
      </trkpt>
      <trkpt lat="48.41266" lon="2.60886">
        <ele>-0.8240966796875</ele>
        <time>2012-03-25T09:05:13Z</time>
      </trkpt>
      <trkpt lat="48.41279" lon="2.6086">
        <ele>-0.8240966796875</ele>
        <time>2012-03-25T09:05:17Z</time>
      </trkpt>
      <trkpt lat="48.41278" lon="2.60837">
        <ele>-1.3046875</ele>
        <time>2012-03-25T09:05:20Z</time>
      </trkpt>
      <trkpt lat="48.41274" lon="2.60823">
        <ele>-1.7852783203125</ele>
        <time>2012-03-25T09:05:22Z</time>
      </trkpt>
      <trkpt lat="48.41263" lon="2.60754">
        <ele>-0.3433837890625</ele>
        <time>2012-03-25T09:05:31Z</time>
      </trkpt>
      <trkpt lat="48.41259" lon="2.60733">
        <ele>-0.8240966796875</ele>
        <time>2012-03-25T09:05:34Z</time>
      </trkpt>
      <trkpt lat="48.41248" lon="2.6068">
        <ele>-0.8240966796875</ele>
        <time>2012-03-25T09:05:42Z</time>
      </trkpt>
      <trkpt lat="48.41239" lon="2.6063">
        <ele>-0.8240966796875</ele>
        <time>2012-03-25T09:05:49Z</time>
      </trkpt>
      <trkpt lat="48.4123" lon="2.60577">
        <ele>-0.3433837890625</ele>
        <time>2012-03-25T09:05:56Z</time>
      </trkpt>
      <trkpt lat="48.41226" lon="2.60562">
        <ele>0.137451171875</ele>
        <time>2012-03-25T09:05:58Z</time>
      </trkpt>
      <trkpt lat="48.41216" lon="2.60502">
        <ele>-0.3433837890625</ele>
        <time>2012-03-25T09:06:05Z</time>
      </trkpt>
      <trkpt lat="48.41209" lon="2.60452">
        <ele>-1.3046875</ele>
        <time>2012-03-25T09:06:11Z</time>
      </trkpt>
      <trkpt lat="48.41206" lon="2.60425">
        <ele>-0.8240966796875</ele>
        <time>2012-03-25T09:06:14Z</time>
      </trkpt>
      <trkpt lat="48.41197" lon="2.60377">
        <ele>-1.3046875</ele>
        <time>2012-03-25T09:06:20Z</time>
      </trkpt>
      <trkpt lat="48.41188" lon="2.60322">
        <ele>-0.3433837890625</ele>
        <time>2012-03-25T09:06:27Z</time>
      </trkpt>
      <trkpt lat="48.4118" lon="2.60274">
        <ele>0.137451171875</ele>
        <time>2012-03-25T09:06:33Z</time>
      </trkpt>
      <trkpt lat="48.4117" lon="2.60213">
        <ele>-1.3046875</ele>
        <time>2012-03-25T09:06:41Z</time>
      </trkpt>
      <trkpt lat="48.41162" lon="2.60165">
        <ele>-1.3046875</ele>
        <time>2012-03-25T09:06:47Z</time>
      </trkpt>
      <trkpt lat="48.41154" lon="2.60127">
        <ele>-0.3433837890625</ele>
        <time>2012-03-25T09:06:52Z</time>
      </trkpt>
      <trkpt lat="48.41145" lon="2.60062">
        <ele>-0.8240966796875</ele>
        <time>2012-03-25T09:07:00Z</time>
      </trkpt>
      <trkpt lat="48.41137" lon="2.60011">
        <ele>-1.3046875</ele>
        <time>2012-03-25T09:07:06Z</time>
      </trkpt>
      <trkpt lat="48.41137" lon="2.60003">
        <ele>-0.8240966796875</ele>
        <time>2012-03-25T09:07:07Z</time>
      </trkpt>
      <trkpt lat="48.41129" lon="2.59952">
        <ele>-1.3046875</ele>
        <time>2012-03-25T09:07:13Z</time>
      </trkpt>
      <trkpt lat="48.41126" lon="2.59936">
        <ele>-1.7852783203125</ele>
        <time>2012-03-25T09:07:15Z</time>
      </trkpt>
      <trkpt lat="48.41117" lon="2.59898">
        <ele>-2.7467041015625</ele>
        <time>2012-03-25T09:07:20Z</time>
      </trkpt>
      <trkpt lat="48.41117" lon="2.5989">
        <ele>-1.7852783203125</ele>
        <time>2012-03-25T09:07:21Z</time>
      </trkpt>
      <trkpt lat="48.4111" lon="2.59861">
        <ele>-1.3046875</ele>
        <time>2012-03-25T09:07:26Z</time>
      </trkpt>
      <trkpt lat="48.41105" lon="2.59846">
        <ele>-0.8240966796875</ele>
        <time>2012-03-25T09:07:30Z</time>
      </trkpt>
      <trkpt lat="48.41106" lon="2.59835">
        <ele>-1.3046875</ele>
        <time>2012-03-25T09:07:36Z</time>
      </trkpt>
      <trkpt lat="48.4111" lon="2.59842">
        <ele>12.634399414062</ele>
        <time>2012-03-25T09:13:09Z</time>
      </trkpt>
      <trkpt lat="48.4111" lon="2.59842">
        <ele>12.634399414062</ele>
        <time>2012-03-25T09:13:10Z</time>
      </trkpt>
      <trkpt lat="48.4111" lon="2.59842">
        <ele>13.115112304688</ele>
        <time>2012-03-25T09:13:11Z</time>
      </trkpt>
      <trkpt lat="48.41098" lon="2.59842">
        <ele>13.115112304688</ele>
        <time>2012-03-25T09:13:18Z</time>
      </trkpt>
      <trkpt lat="48.41092" lon="2.5984">
        <ele>12.634399414062</ele>
        <time>2012-03-25T09:13:21Z</time>
      </trkpt>
      <trkpt lat="48.41082" lon="2.59838">
        <ele>13.115112304688</ele>
        <time>2012-03-25T09:13:26Z</time>
      </trkpt>
      <trkpt lat="48.41061" lon="2.59829">
        <ele>13.595825195312</ele>
        <time>2012-03-25T09:13:33Z</time>
      </trkpt>
      <trkpt lat="48.41031" lon="2.59816">
        <ele>14.076416015625</ele>
        <time>2012-03-25T09:13:41Z</time>
      </trkpt>
      <trkpt lat="48.41005" lon="2.59806">
        <ele>15.037719726562</ele>
        <time>2012-03-25T09:13:48Z</time>
      </trkpt>
      <trkpt lat="48.40989" lon="2.598">
        <ele>15.518432617188</ele>
        <time>2012-03-25T09:13:53Z</time>
      </trkpt>
      <trkpt lat="48.40971" lon="2.59796">
        <ele>16.479736328125</ele>
        <time>2012-03-25T09:13:59Z</time>
      </trkpt>
      <trkpt lat="48.40954" lon="2.59791">
        <ele>16.96044921875</ele>
        <time>2012-03-25T09:14:04Z</time>
      </trkpt>
      <trkpt lat="48.40939" lon="2.59787">
        <ele>16.96044921875</ele>
        <time>2012-03-25T09:14:09Z</time>
      </trkpt>
      <trkpt lat="48.40937" lon="2.59786">
        <ele>17.921752929688</ele>
        <time>2012-03-25T09:14:10Z</time>
      </trkpt>
      <trkpt lat="48.40929" lon="2.59795">
        <ele>17.921752929688</ele>
        <time>2012-03-25T09:14:14Z</time>
      </trkpt>
      <trkpt lat="48.40925" lon="2.59827">
        <ele>18.40234375</ele>
        <time>2012-03-25T09:14:21Z</time>
      </trkpt>
      <trkpt lat="48.40922" lon="2.59854">
        <ele>18.883056640625</ele>
        <time>2012-03-25T09:14:27Z</time>
      </trkpt>
      <trkpt lat="48.40919" lon="2.59871">
        <ele>18.883056640625</ele>
        <time>2012-03-25T09:14:31Z</time>
      </trkpt>
      <trkpt lat="48.40911" lon="2.59898">
        <ele>19.844360351562</ele>
        <time>2012-03-25T09:14:38Z</time>
      </trkpt>
      <trkpt lat="48.40903" lon="2.59925">
        <ele>21.286376953125</ele>
        <time>2012-03-25T09:14:44Z</time>
      </trkpt>
      <trkpt lat="48.40893" lon="2.59954">
        <ele>22.24755859375</ele>
        <time>2012-03-25T09:14:50Z</time>
      </trkpt>
      <trkpt lat="48.40885" lon="2.59977">
        <ele>22.24755859375</ele>
        <time>2012-03-25T09:14:55Z</time>
      </trkpt>
      <trkpt lat="48.40874" lon="2.60006">
        <ele>22.728271484375</ele>
        <time>2012-03-25T09:15:01Z</time>
      </trkpt>
      <trkpt lat="48.40871" lon="2.60027">
        <ele>23.689575195312</ele>
        <time>2012-03-25T09:15:06Z</time>
      </trkpt>
      <trkpt lat="48.40866" lon="2.60046">
        <ele>23.689575195312</ele>
        <time>2012-03-25T09:15:11Z</time>
      </trkpt>
      <trkpt lat="48.4086" lon="2.60074">
        <ele>24.651000976562</ele>
        <time>2012-03-25T09:15:17Z</time>
      </trkpt>
      <trkpt lat="48.40855" lon="2.60099">
        <ele>25.131713867188</ele>
        <time>2012-03-25T09:15:23Z</time>
      </trkpt>
      <trkpt lat="48.40848" lon="2.60129">
        <ele>26.092895507812</ele>
        <time>2012-03-25T09:15:30Z</time>
      </trkpt>
      <trkpt lat="48.40841" lon="2.60166">
        <ele>27.054321289062</ele>
        <time>2012-03-25T09:15:37Z</time>
      </trkpt>
      <trkpt lat="48.40837" lon="2.60195">
        <ele>28.015502929688</ele>
        <time>2012-03-25T09:15:43Z</time>
      </trkpt>
      <trkpt lat="48.40834" lon="2.60222">
        <ele>29.45751953125</ele>
        <time>2012-03-25T09:15:49Z</time>
      </trkpt>
      <trkpt lat="48.40831" lon="2.6024">
        <ele>29.938110351562</ele>
        <time>2012-03-25T09:15:54Z</time>
      </trkpt>
      <trkpt lat="48.40829" lon="2.60267">
        <ele>29.938110351562</ele>
        <time>2012-03-25T09:16:00Z</time>
      </trkpt>
      <trkpt lat="48.40829" lon="2.60297">
        <ele>30.899536132812</ele>
        <time>2012-03-25T09:16:06Z</time>
      </trkpt>
      <trkpt lat="48.40826" lon="2.60333">
        <ele>30.899536132812</ele>
        <time>2012-03-25T09:16:13Z</time>
      </trkpt>
      <trkpt lat="48.40823" lon="2.60358">
        <ele>31.860717773438</ele>
        <time>2012-03-25T09:16:18Z</time>
      </trkpt>
      <trkpt lat="48.40821" lon="2.6037">
        <ele>31.860717773438</ele>
        <time>2012-03-25T09:16:23Z</time>
      </trkpt>
      <trkpt lat="48.40821" lon="2.6037">
        <ele>32.822265625</ele>
        <time>2012-03-25T09:16:31Z</time>
      </trkpt>
      <trkpt lat="48.40819" lon="2.60375">
        <ele>34.26416015625</ele>
        <time>2012-03-25T09:17:13Z</time>
      </trkpt>
      <trkpt lat="48.40824" lon="2.60376">
        <ele>34.26416015625</ele>
        <time>2012-03-25T09:17:32Z</time>
      </trkpt>
      <trkpt lat="48.40821" lon="2.60385">
        <ele>35.225463867188</ele>
        <time>2012-03-25T09:17:41Z</time>
      </trkpt>
      <trkpt lat="48.40818" lon="2.60404">
        <ele>35.7060546875</ele>
        <time>2012-03-25T09:17:46Z</time>
      </trkpt>
      <trkpt lat="48.40815" lon="2.6043">
        <ele>36.66748046875</ele>
        <time>2012-03-25T09:17:52Z</time>
      </trkpt>
      <trkpt lat="48.40812" lon="2.60453">
        <ele>37.628662109375</ele>
        <time>2012-03-25T09:17:58Z</time>
      </trkpt>
      <trkpt lat="48.4081" lon="2.60488">
        <ele>38.109375</ele>
        <time>2012-03-25T09:18:06Z</time>
      </trkpt>
      <trkpt lat="48.40804" lon="2.60518">
        <ele>40.032104492188</ele>
        <time>2012-03-25T09:18:12Z</time>
      </trkpt>
      <trkpt lat="48.408" lon="2.60542">
        <ele>40.512817382812</ele>
        <time>2012-03-25T09:18:17Z</time>
      </trkpt>
      <trkpt lat="48.40797" lon="2.60568">
        <ele>42.435424804688</ele>
        <time>2012-03-25T09:18:23Z</time>
      </trkpt>
      <trkpt lat="48.40794" lon="2.60595">
        <ele>41.954711914062</ele>
        <time>2012-03-25T09:18:29Z</time>
      </trkpt>
      <trkpt lat="48.40791" lon="2.60622">
        <ele>42.916015625</ele>
        <time>2012-03-25T09:18:35Z</time>
      </trkpt>
      <trkpt lat="48.40789" lon="2.60646">
        <ele>44.838623046875</ele>
        <time>2012-03-25T09:18:41Z</time>
      </trkpt>
      <trkpt lat="48.40788" lon="2.60669">
        <ele>45.319213867188</ele>
        <time>2012-03-25T09:18:47Z</time>
      </trkpt>
      <trkpt lat="48.40783" lon="2.60695">
        <ele>45.799926757812</ele>
        <time>2012-03-25T09:18:54Z</time>
      </trkpt>
      <trkpt lat="48.4078" lon="2.6071">
        <ele>47.722534179688</ele>
        <time>2012-03-25T09:18:58Z</time>
      </trkpt>
      <trkpt lat="48.40777" lon="2.60735">
        <ele>47.722534179688</ele>
        <time>2012-03-25T09:19:05Z</time>
      </trkpt>
      <trkpt lat="48.40776" lon="2.6076">
        <ele>46.76123046875</ele>
        <time>2012-03-25T09:19:10Z</time>
      </trkpt>
      <trkpt lat="48.40776" lon="2.60778">
        <ele>46.76123046875</ele>
        <time>2012-03-25T09:19:13Z</time>
      </trkpt>
      <trkpt lat="48.40772" lon="2.60824">
        <ele>45.319213867188</ele>
        <time>2012-03-25T09:19:19Z</time>
      </trkpt>
      <trkpt lat="48.40769" lon="2.60865">
        <ele>45.319213867188</ele>
        <time>2012-03-25T09:19:25Z</time>
      </trkpt>
      <trkpt lat="48.40768" lon="2.60894">
        <ele>46.280639648438</ele>
        <time>2012-03-25T09:19:30Z</time>
      </trkpt>
      <trkpt lat="48.40764" lon="2.60935">
        <ele>47.722534179688</ele>
        <time>2012-03-25T09:19:37Z</time>
      </trkpt>
      <trkpt lat="48.40761" lon="2.6097">
        <ele>47.241821289062</ele>
        <time>2012-03-25T09:19:44Z</time>
      </trkpt>
      <trkpt lat="48.4076" lon="2.60991">
        <ele>49.645263671875</ele>
        <time>2012-03-25T09:19:49Z</time>
      </trkpt>
      <trkpt lat="48.4076" lon="2.6102">
        <ele>51.087158203125</ele>
        <time>2012-03-25T09:19:56Z</time>
      </trkpt>
      <trkpt lat="48.40757" lon="2.61048">
        <ele>52.048583984375</ele>
        <time>2012-03-25T09:20:03Z</time>
      </trkpt>
      <trkpt lat="48.40756" lon="2.61077">
        <ele>53.009765625</ele>
        <time>2012-03-25T09:20:10Z</time>
      </trkpt>
      <trkpt lat="48.40754" lon="2.61105">
        <ele>53.490478515625</ele>
        <time>2012-03-25T09:20:17Z</time>
      </trkpt>
      <trkpt lat="48.40753" lon="2.61128">
        <ele>53.97119140625</ele>
        <time>2012-03-25T09:20:23Z</time>
      </trkpt>
      <trkpt lat="48.40752" lon="2.61148">
        <ele>54.451782226562</ele>
        <time>2012-03-25T09:20:28Z</time>
      </trkpt>
      <trkpt lat="48.4075" lon="2.61176">
        <ele>54.932373046875</ele>
        <time>2012-03-25T09:20:35Z</time>
      </trkpt>
      <trkpt lat="48.40747" lon="2.612">
        <ele>55.893798828125</ele>
        <time>2012-03-25T09:20:41Z</time>
      </trkpt>
      <trkpt lat="48.40744" lon="2.61219">
        <ele>57.335815429688</ele>
        <time>2012-03-25T09:20:46Z</time>
      </trkpt>
      <trkpt lat="48.40742" lon="2.61233">
        <ele>57.335815429688</ele>
        <time>2012-03-25T09:20:50Z</time>
      </trkpt>
      <trkpt lat="48.4074" lon="2.61248">
        <ele>57.816528320312</ele>
        <time>2012-03-25T09:20:56Z</time>
      </trkpt>
      <trkpt lat="48.40737" lon="2.61262">
        <ele>58.777709960938</ele>
        <time>2012-03-25T09:21:00Z</time>
      </trkpt>
      <trkpt lat="48.40734" lon="2.61284">
        <ele>58.777709960938</ele>
        <time>2012-03-25T09:21:06Z</time>
      </trkpt>
      <trkpt lat="48.40731" lon="2.61302">
        <ele>61.181030273438</ele>
        <time>2012-03-25T09:21:10Z</time>
      </trkpt>
      <trkpt lat="48.40728" lon="2.61322">
        <ele>61.661743164062</ele>
        <time>2012-03-25T09:21:16Z</time>
      </trkpt>
      <trkpt lat="48.40727" lon="2.61331">
        <ele>62.142333984375</ele>
        <time>2012-03-25T09:21:18Z</time>
      </trkpt>
      <trkpt lat="48.40721" lon="2.61357">
        <ele>62.622924804688</ele>
        <time>2012-03-25T09:21:24Z</time>
      </trkpt>
      <trkpt lat="48.40714" lon="2.61385">
        <ele>64.065063476562</ele>
        <time>2012-03-25T09:21:31Z</time>
      </trkpt>
      <trkpt lat="48.4071" lon="2.61403">
        <ele>64.065063476562</ele>
        <time>2012-03-25T09:21:36Z</time>
      </trkpt>
      <trkpt lat="48.40707" lon="2.61428">
        <ele>65.987670898438</ele>
        <time>2012-03-25T09:21:43Z</time>
      </trkpt>
      <trkpt lat="48.40699" lon="2.61448">
        <ele>66.46826171875</ele>
        <time>2012-03-25T09:21:49Z</time>
      </trkpt>
      <trkpt lat="48.40689" lon="2.61465">
        <ele>67.4296875</ele>
        <time>2012-03-25T09:21:55Z</time>
      </trkpt>
      <trkpt lat="48.40678" lon="2.61479">
        <ele>69.352294921875</ele>
        <time>2012-03-25T09:22:01Z</time>
      </trkpt>
      <trkpt lat="48.40664" lon="2.61487">
        <ele>69.832885742188</ele>
        <time>2012-03-25T09:22:07Z</time>
      </trkpt>
      <trkpt lat="48.4065" lon="2.6149">
        <ele>72.236206054688</ele>
        <time>2012-03-25T09:22:14Z</time>
      </trkpt>
      <trkpt lat="48.40644" lon="2.61492">
        <ele>73.197631835938</ele>
        <time>2012-03-25T09:22:17Z</time>
      </trkpt>
      <trkpt lat="48.4063" lon="2.61495">
        <ele>75.600830078125</ele>
        <time>2012-03-25T09:22:24Z</time>
      </trkpt>
      <trkpt lat="48.40614" lon="2.61493">
        <ele>77.042846679688</ele>
        <time>2012-03-25T09:22:31Z</time>
      </trkpt>
      <trkpt lat="48.40598" lon="2.61493">
        <ele>78.484741210938</ele>
        <time>2012-03-25T09:22:38Z</time>
      </trkpt>
      <trkpt lat="48.40583" lon="2.61493">
        <ele>79.446044921875</ele>
        <time>2012-03-25T09:22:44Z</time>
      </trkpt>
      <trkpt lat="48.40565" lon="2.61486">
        <ele>79.926635742188</ele>
        <time>2012-03-25T09:22:52Z</time>
      </trkpt>
      <trkpt lat="48.40548" lon="2.61479">
        <ele>81.368774414062</ele>
        <time>2012-03-25T09:22:59Z</time>
      </trkpt>
      <trkpt lat="48.40531" lon="2.61469">
        <ele>82.330078125</ele>
        <time>2012-03-25T09:23:05Z</time>
      </trkpt>
      <trkpt lat="48.40512" lon="2.61459">
        <ele>83.291381835938</ele>
        <time>2012-03-25T09:23:11Z</time>
      </trkpt>
      <trkpt lat="48.40492" lon="2.61449">
        <ele>82.810791015625</ele>
        <time>2012-03-25T09:23:17Z</time>
      </trkpt>
      <trkpt lat="48.40471" lon="2.61439">
        <ele>82.810791015625</ele>
        <time>2012-03-25T09:23:23Z</time>
      </trkpt>
      <trkpt lat="48.40448" lon="2.61427">
        <ele>83.77197265625</ele>
        <time>2012-03-25T09:23:30Z</time>
      </trkpt>
      <trkpt lat="48.40437" lon="2.61423">
        <ele>83.77197265625</ele>
        <time>2012-03-25T09:23:33Z</time>
      </trkpt>
      <trkpt lat="48.40419" lon="2.61417">
        <ele>83.77197265625</ele>
        <time>2012-03-25T09:23:37Z</time>
      </trkpt>
      <trkpt lat="48.40378" lon="2.61409">
        <ele>84.252685546875</ele>
        <time>2012-03-25T09:23:45Z</time>
      </trkpt>
      <trkpt lat="48.40329" lon="2.61399">
        <ele>83.77197265625</ele>
        <time>2012-03-25T09:23:54Z</time>
      </trkpt>
      <trkpt lat="48.40292" lon="2.61392">
        <ele>82.330078125</ele>
        <time>2012-03-25T09:24:00Z</time>
      </trkpt>
      <trkpt lat="48.40285" lon="2.6139">
        <ele>82.330078125</ele>
        <time>2012-03-25T09:24:01Z</time>
      </trkpt>
      <trkpt lat="48.40265" lon="2.61373">
        <ele>80.88818359375</ele>
        <time>2012-03-25T09:24:05Z</time>
      </trkpt>
      <trkpt lat="48.40255" lon="2.61365">
        <ele>80.407470703125</ele>
        <time>2012-03-25T09:24:07Z</time>
      </trkpt>
      <trkpt lat="48.40238" lon="2.61367">
        <ele>79.446044921875</ele>
        <time>2012-03-25T09:24:10Z</time>
      </trkpt>
      <trkpt lat="48.40207" lon="2.6138">
        <ele>78.484741210938</ele>
        <time>2012-03-25T09:24:15Z</time>
      </trkpt>
      <trkpt lat="48.40171" lon="2.61381">
        <ele>79.446044921875</ele>
        <time>2012-03-25T09:24:21Z</time>
      </trkpt>
      <trkpt lat="48.40154" lon="2.61382">
        <ele>80.407470703125</ele>
        <time>2012-03-25T09:24:26Z</time>
      </trkpt>
      <trkpt lat="48.40139" lon="2.61384">
        <ele>82.810791015625</ele>
        <time>2012-03-25T09:24:32Z</time>
      </trkpt>
      <trkpt lat="48.40134" lon="2.61385">
        <ele>83.291381835938</ele>
        <time>2012-03-25T09:24:34Z</time>
      </trkpt>
      <trkpt lat="48.40126" lon="2.61387">
        <ele>84.7333984375</ele>
        <time>2012-03-25T09:24:38Z</time>
      </trkpt>
      <trkpt lat="48.40105" lon="2.61396">
        <ele>85.694580078125</ele>
        <time>2012-03-25T09:24:44Z</time>
      </trkpt>
      <trkpt lat="48.40097" lon="2.61397">
        <ele>85.694580078125</ele>
        <time>2012-03-25T09:24:46Z</time>
      </trkpt>
      <trkpt lat="48.40079" lon="2.61412">
        <ele>84.7333984375</ele>
        <time>2012-03-25T09:24:51Z</time>
      </trkpt>
      <trkpt lat="48.40052" lon="2.61431">
        <ele>82.810791015625</ele>
        <time>2012-03-25T09:24:57Z</time>
      </trkpt>
      <trkpt lat="48.40025" lon="2.61434">
        <ele>81.849365234375</ele>
        <time>2012-03-25T09:25:01Z</time>
      </trkpt>
      <trkpt lat="48.40004" lon="2.61441">
        <ele>81.368774414062</ele>
        <time>2012-03-25T09:25:04Z</time>
      </trkpt>
      <trkpt lat="48.39987" lon="2.61443">
        <ele>82.330078125</ele>
        <time>2012-03-25T09:25:07Z</time>
      </trkpt>
      <trkpt lat="48.39964" lon="2.61442">
        <ele>82.810791015625</ele>
        <time>2012-03-25T09:25:12Z</time>
      </trkpt>
      <trkpt lat="48.39931" lon="2.61437">
        <ele>84.7333984375</ele>
        <time>2012-03-25T09:25:20Z</time>
      </trkpt>
      <trkpt lat="48.39904" lon="2.61432">
        <ele>84.252685546875</ele>
        <time>2012-03-25T09:25:27Z</time>
      </trkpt>
      <trkpt lat="48.39879" lon="2.61428">
        <ele>85.694580078125</ele>
        <time>2012-03-25T09:25:33Z</time>
      </trkpt>
      <trkpt lat="48.39862" lon="2.61424">
        <ele>85.213989257812</ele>
        <time>2012-03-25T09:25:37Z</time>
      </trkpt>
      <trkpt lat="48.39832" lon="2.6142">
        <ele>85.694580078125</ele>
        <time>2012-03-25T09:25:44Z</time>
      </trkpt>
      <trkpt lat="48.39803" lon="2.61415">
        <ele>86.17529296875</ele>
        <time>2012-03-25T09:25:51Z</time>
      </trkpt>
      <trkpt lat="48.39774" lon="2.61409">
        <ele>86.17529296875</ele>
        <time>2012-03-25T09:25:58Z</time>
      </trkpt>
      <trkpt lat="48.39746" lon="2.61409">
        <ele>86.17529296875</ele>
        <time>2012-03-25T09:26:05Z</time>
      </trkpt>
      <trkpt lat="48.39734" lon="2.61422">
        <ele>86.656005859375</ele>
        <time>2012-03-25T09:26:09Z</time>
      </trkpt>
      <trkpt lat="48.39725" lon="2.61464">
        <ele>87.136596679688</ele>
        <time>2012-03-25T09:26:16Z</time>
      </trkpt>
      <trkpt lat="48.39713" lon="2.61509">
        <ele>87.6171875</ele>
        <time>2012-03-25T09:26:23Z</time>
      </trkpt>
      <trkpt lat="48.39703" lon="2.61548">
        <ele>88.098022460938</ele>
        <time>2012-03-25T09:26:29Z</time>
      </trkpt>
      <trkpt lat="48.39692" lon="2.61587">
        <ele>88.098022460938</ele>
        <time>2012-03-25T09:26:35Z</time>
      </trkpt>
      <trkpt lat="48.39682" lon="2.61621">
        <ele>88.578735351562</ele>
        <time>2012-03-25T09:26:40Z</time>
      </trkpt>
      <trkpt lat="48.39669" lon="2.61669">
        <ele>89.539916992188</ele>
        <time>2012-03-25T09:26:47Z</time>
      </trkpt>
      <trkpt lat="48.39664" lon="2.61684">
        <ele>89.539916992188</ele>
        <time>2012-03-25T09:26:49Z</time>
      </trkpt>
      <trkpt lat="48.39652" lon="2.61731">
        <ele>90.020629882812</ele>
        <time>2012-03-25T09:26:56Z</time>
      </trkpt>
      <trkpt lat="48.39642" lon="2.61772">
        <ele>90.501342773438</ele>
        <time>2012-03-25T09:27:02Z</time>
      </trkpt>
      <trkpt lat="48.39633" lon="2.61806">
        <ele>90.501342773438</ele>
        <time>2012-03-25T09:27:07Z</time>
      </trkpt>
      <trkpt lat="48.39637" lon="2.61827">
        <ele>90.98193359375</ele>
        <time>2012-03-25T09:27:11Z</time>
      </trkpt>
      <trkpt lat="48.39644" lon="2.61832">
        <ele>90.501342773438</ele>
        <time>2012-03-25T09:27:13Z</time>
      </trkpt>
      <trkpt lat="48.39666" lon="2.6185">
        <ele>90.98193359375</ele>
        <time>2012-03-25T09:27:19Z</time>
      </trkpt>
      <trkpt lat="48.3969" lon="2.61867">
        <ele>91.462524414062</ele>
        <time>2012-03-25T09:27:24Z</time>
      </trkpt>
      <trkpt lat="48.39724" lon="2.61893">
        <ele>90.501342773438</ele>
        <time>2012-03-25T09:27:31Z</time>
      </trkpt>
      <trkpt lat="48.39758" lon="2.6192">
        <ele>90.501342773438</ele>
        <time>2012-03-25T09:27:38Z</time>
      </trkpt>
      <trkpt lat="48.39794" lon="2.61948">
        <ele>90.501342773438</ele>
        <time>2012-03-25T09:27:45Z</time>
      </trkpt>
      <trkpt lat="48.39824" lon="2.61973">
        <ele>90.020629882812</ele>
        <time>2012-03-25T09:27:51Z</time>
      </trkpt>
      <trkpt lat="48.39867" lon="2.62005">
        <ele>90.501342773438</ele>
        <time>2012-03-25T09:27:59Z</time>
      </trkpt>
      <trkpt lat="48.39883" lon="2.62017">
        <ele>89.539916992188</ele>
        <time>2012-03-25T09:28:02Z</time>
      </trkpt>
      <trkpt lat="48.39893" lon="2.62025">
        <ele>90.020629882812</ele>
        <time>2012-03-25T09:28:04Z</time>
      </trkpt>
      <trkpt lat="48.39929" lon="2.62061">
        <ele>90.020629882812</ele>
        <time>2012-03-25T09:28:12Z</time>
      </trkpt>
      <trkpt lat="48.39947" lon="2.62078">
        <ele>90.98193359375</ele>
        <time>2012-03-25T09:28:17Z</time>
      </trkpt>
      <trkpt lat="48.39961" lon="2.62089">
        <ele>90.98193359375</ele>
        <time>2012-03-25T09:28:21Z</time>
      </trkpt>
      <trkpt lat="48.39987" lon="2.62109">
        <ele>90.98193359375</ele>
        <time>2012-03-25T09:28:27Z</time>
      </trkpt>
      <trkpt lat="48.40004" lon="2.62123">
        <ele>90.98193359375</ele>
        <time>2012-03-25T09:28:31Z</time>
      </trkpt>
      <trkpt lat="48.4003" lon="2.62132">
        <ele>92.423950195312</ele>
        <time>2012-03-25T09:28:37Z</time>
      </trkpt>
      <trkpt lat="48.40047" lon="2.6214">
        <ele>91.462524414062</ele>
        <time>2012-03-25T09:28:41Z</time>
      </trkpt>
      <trkpt lat="48.4006" lon="2.62153">
        <ele>91.462524414062</ele>
        <time>2012-03-25T09:28:44Z</time>
      </trkpt>
      <trkpt lat="48.40102" lon="2.62187">
        <ele>90.501342773438</ele>
        <time>2012-03-25T09:28:52Z</time>
      </trkpt>
      <trkpt lat="48.40122" lon="2.62202">
        <ele>91.462524414062</ele>
        <time>2012-03-25T09:28:57Z</time>
      </trkpt>
      <trkpt lat="48.40135" lon="2.62211">
        <ele>91.943237304688</ele>
        <time>2012-03-25T09:29:01Z</time>
      </trkpt>
      <trkpt lat="48.40144" lon="2.62232">
        <ele>92.904541015625</ele>
        <time>2012-03-25T09:29:06Z</time>
      </trkpt>
      <trkpt lat="48.40139" lon="2.62256">
        <ele>93.385131835938</ele>
        <time>2012-03-25T09:29:11Z</time>
      </trkpt>
      <trkpt lat="48.40133" lon="2.62283">
        <ele>93.865844726562</ele>
        <time>2012-03-25T09:29:16Z</time>
      </trkpt>
      <trkpt lat="48.40128" lon="2.62301">
        <ele>93.385131835938</ele>
        <time>2012-03-25T09:29:19Z</time>
      </trkpt>
      <trkpt lat="48.40123" lon="2.6232">
        <ele>92.423950195312</ele>
        <time>2012-03-25T09:29:22Z</time>
      </trkpt>
      <trkpt lat="48.40102" lon="2.62379">
        <ele>92.904541015625</ele>
        <time>2012-03-25T09:29:30Z</time>
      </trkpt>
      <trkpt lat="48.40083" lon="2.62429">
        <ele>91.943237304688</ele>
        <time>2012-03-25T09:29:36Z</time>
      </trkpt>
      <trkpt lat="48.4008" lon="2.62438">
        <ele>91.462524414062</ele>
        <time>2012-03-25T09:29:37Z</time>
      </trkpt>
      <trkpt lat="48.40059" lon="2.62491">
        <ele>91.943237304688</ele>
        <time>2012-03-25T09:29:43Z</time>
      </trkpt>
      <trkpt lat="48.40048" lon="2.62528">
        <ele>92.904541015625</ele>
        <time>2012-03-25T09:29:48Z</time>
      </trkpt>
      <trkpt lat="48.4005" lon="2.62552">
        <ele>93.865844726562</ele>
        <time>2012-03-25T09:29:52Z</time>
      </trkpt>
      <trkpt lat="48.40059" lon="2.62565">
        <ele>94.8271484375</ele>
        <time>2012-03-25T09:29:56Z</time>
      </trkpt>
      <trkpt lat="48.40079" lon="2.62593">
        <ele>95.307739257812</ele>
        <time>2012-03-25T09:30:04Z</time>
      </trkpt>
      <trkpt lat="48.4009" lon="2.6261">
        <ele>95.307739257812</ele>
        <time>2012-03-25T09:30:09Z</time>
      </trkpt>
      <trkpt lat="48.40108" lon="2.62638">
        <ele>95.307739257812</ele>
        <time>2012-03-25T09:30:16Z</time>
      </trkpt>
      <trkpt lat="48.40124" lon="2.62662">
        <ele>96.269287109375</ele>
        <time>2012-03-25T09:30:22Z</time>
      </trkpt>
      <trkpt lat="48.40139" lon="2.62688">
        <ele>96.749877929688</ele>
        <time>2012-03-25T09:30:28Z</time>
      </trkpt>
      <trkpt lat="48.40159" lon="2.62717">
        <ele>97.23046875</ele>
        <time>2012-03-25T09:30:34Z</time>
      </trkpt>
      <trkpt lat="48.4017" lon="2.62734">
        <ele>97.711181640625</ele>
        <time>2012-03-25T09:30:38Z</time>
      </trkpt>
      <trkpt lat="48.40184" lon="2.62755">
        <ele>98.19189453125</ele>
        <time>2012-03-25T09:30:43Z</time>
      </trkpt>
      <trkpt lat="48.40197" lon="2.6278">
        <ele>98.19189453125</ele>
        <time>2012-03-25T09:30:48Z</time>
      </trkpt>
      <trkpt lat="48.40217" lon="2.62808">
        <ele>99.153076171875</ele>
        <time>2012-03-25T09:30:54Z</time>
      </trkpt>
      <trkpt lat="48.40239" lon="2.62839">
        <ele>98.672485351562</ele>
        <time>2012-03-25T09:31:00Z</time>
      </trkpt>
      <trkpt lat="48.40263" lon="2.62874">
        <ele>99.153076171875</ele>
        <time>2012-03-25T09:31:07Z</time>
      </trkpt>
      <trkpt lat="48.40279" lon="2.62884">
        <ele>98.672485351562</ele>
        <time>2012-03-25T09:31:11Z</time>
      </trkpt>
      <trkpt lat="48.4029" lon="2.6289">
        <ele>98.672485351562</ele>
        <time>2012-03-25T09:31:14Z</time>
      </trkpt>
      <trkpt lat="48.40299" lon="2.62893">
        <ele>99.153076171875</ele>
        <time>2012-03-25T09:31:16Z</time>
      </trkpt>
      <trkpt lat="48.40315" lon="2.62908">
        <ele>98.672485351562</ele>
        <time>2012-03-25T09:31:20Z</time>
      </trkpt>
      <trkpt lat="48.40351" lon="2.62936">
        <ele>99.153076171875</ele>
        <time>2012-03-25T09:31:28Z</time>
      </trkpt>
      <trkpt lat="48.40379" lon="2.62956">
        <ele>98.672485351562</ele>
        <time>2012-03-25T09:31:34Z</time>
      </trkpt>
      <trkpt lat="48.40394" lon="2.62965">
        <ele>97.711181640625</ele>
        <time>2012-03-25T09:31:37Z</time>
      </trkpt>
      <trkpt lat="48.40414" lon="2.62993">
        <ele>98.19189453125</ele>
        <time>2012-03-25T09:31:42Z</time>
      </trkpt>
      <trkpt lat="48.4043" lon="2.63014">
        <ele>97.711181640625</ele>
        <time>2012-03-25T09:31:46Z</time>
      </trkpt>
      <trkpt lat="48.40443" lon="2.6303">
        <ele>97.23046875</ele>
        <time>2012-03-25T09:31:49Z</time>
      </trkpt>
      <trkpt lat="48.40448" lon="2.63062">
        <ele>96.749877929688</ele>
        <time>2012-03-25T09:31:53Z</time>
      </trkpt>
      <trkpt lat="48.40451" lon="2.63106">
        <ele>97.23046875</ele>
        <time>2012-03-25T09:31:58Z</time>
      </trkpt>
      <trkpt lat="48.40454" lon="2.63136">
        <ele>97.711181640625</ele>
        <time>2012-03-25T09:32:02Z</time>
      </trkpt>
      <trkpt lat="48.40456" lon="2.63158">
        <ele>97.711181640625</ele>
        <time>2012-03-25T09:32:05Z</time>
      </trkpt>
      <trkpt lat="48.40459" lon="2.63178">
        <ele>97.711181640625</ele>
        <time>2012-03-25T09:32:08Z</time>
      </trkpt>
      <trkpt lat="48.40473" lon="2.63204">
        <ele>98.19189453125</ele>
        <time>2012-03-25T09:32:13Z</time>
      </trkpt>
      <trkpt lat="48.40483" lon="2.63218">
        <ele>98.19189453125</ele>
        <time>2012-03-25T09:32:16Z</time>
      </trkpt>
      <trkpt lat="48.4049" lon="2.63249">
        <ele>97.23046875</ele>
        <time>2012-03-25T09:32:20Z</time>
      </trkpt>
      <trkpt lat="48.40486" lon="2.63292">
        <ele>97.711181640625</ele>
        <time>2012-03-25T09:32:26Z</time>
      </trkpt>
      <trkpt lat="48.40482" lon="2.63325">
        <ele>97.711181640625</ele>
        <time>2012-03-25T09:32:31Z</time>
      </trkpt>
      <trkpt lat="48.40482" lon="2.63332">
        <ele>98.19189453125</ele>
        <time>2012-03-25T09:32:32Z</time>
      </trkpt>
      <trkpt lat="48.40478" lon="2.63353">
        <ele>98.19189453125</ele>
        <time>2012-03-25T09:32:35Z</time>
      </trkpt>
      <trkpt lat="48.40476" lon="2.63368">
        <ele>98.19189453125</ele>
        <time>2012-03-25T09:32:37Z</time>
      </trkpt>
      <trkpt lat="48.40469" lon="2.63422">
        <ele>98.672485351562</ele>
        <time>2012-03-25T09:32:45Z</time>
      </trkpt>
      <trkpt lat="48.40467" lon="2.63443">
        <ele>98.672485351562</ele>
        <time>2012-03-25T09:32:48Z</time>
      </trkpt>
      <trkpt lat="48.4046" lon="2.63486">
        <ele>99.6337890625</ele>
        <time>2012-03-25T09:32:54Z</time>
      </trkpt>
      <trkpt lat="48.40455" lon="2.63528">
        <ele>99.153076171875</ele>
        <time>2012-03-25T09:33:00Z</time>
      </trkpt>
      <trkpt lat="48.40451" lon="2.63563">
        <ele>99.153076171875</ele>
        <time>2012-03-25T09:33:05Z</time>
      </trkpt>
      <trkpt lat="48.40442" lon="2.63615">
        <ele>100.11450195312</ele>
        <time>2012-03-25T09:33:12Z</time>
      </trkpt>
      <trkpt lat="48.4044" lon="2.63628">
        <ele>99.6337890625</ele>
        <time>2012-03-25T09:33:14Z</time>
      </trkpt>
      <trkpt lat="48.40438" lon="2.63643">
        <ele>99.6337890625</ele>
        <time>2012-03-25T09:33:16Z</time>
      </trkpt>
      <trkpt lat="48.40435" lon="2.63678">
        <ele>99.6337890625</ele>
        <time>2012-03-25T09:33:21Z</time>
      </trkpt>
      <trkpt lat="48.40429" lon="2.63723">
        <ele>100.11450195312</ele>
        <time>2012-03-25T09:33:28Z</time>
      </trkpt>
      <trkpt lat="48.40425" lon="2.63751">
        <ele>100.11450195312</ele>
        <time>2012-03-25T09:33:33Z</time>
      </trkpt>
      <trkpt lat="48.40424" lon="2.63769">
        <ele>100.11450195312</ele>
        <time>2012-03-25T09:33:36Z</time>
      </trkpt>
      <trkpt lat="48.40418" lon="2.6382">
        <ele>99.6337890625</ele>
        <time>2012-03-25T09:33:44Z</time>
      </trkpt>
      <trkpt lat="48.40409" lon="2.63853">
        <ele>100.11450195312</ele>
        <time>2012-03-25T09:33:50Z</time>
      </trkpt>
      <trkpt lat="48.40404" lon="2.63872">
        <ele>100.11450195312</ele>
        <time>2012-03-25T09:33:55Z</time>
      </trkpt>
      <trkpt lat="48.40398" lon="2.63895">
        <ele>100.11450195312</ele>
        <time>2012-03-25T09:33:59Z</time>
      </trkpt>
      <trkpt lat="48.40392" lon="2.6391">
        <ele>100.11450195312</ele>
        <time>2012-03-25T09:34:01Z</time>
      </trkpt>
      <trkpt lat="48.40379" lon="2.63956">
        <ele>98.19189453125</ele>
        <time>2012-03-25T09:34:06Z</time>
      </trkpt>
      <trkpt lat="48.40366" lon="2.64003">
        <ele>93.865844726562</ele>
        <time>2012-03-25T09:34:10Z</time>
      </trkpt>
      <trkpt lat="48.40358" lon="2.64033">
        <ele>93.385131835938</ele>
        <time>2012-03-25T09:34:12Z</time>
      </trkpt>
      <trkpt lat="48.4035" lon="2.64081">
        <ele>89.059326171875</ele>
        <time>2012-03-25T09:34:15Z</time>
      </trkpt>
      <trkpt lat="48.40348" lon="2.64097">
        <ele>89.059326171875</ele>
        <time>2012-03-25T09:34:16Z</time>
      </trkpt>
      <trkpt lat="48.40343" lon="2.64129">
        <ele>87.6171875</ele>
        <time>2012-03-25T09:34:18Z</time>
      </trkpt>
      <trkpt lat="48.40339" lon="2.64162">
        <ele>85.213989257812</ele>
        <time>2012-03-25T09:34:20Z</time>
      </trkpt>
      <trkpt lat="48.40329" lon="2.64237">
        <ele>83.291381835938</ele>
        <time>2012-03-25T09:34:25Z</time>
      </trkpt>
      <trkpt lat="48.40324" lon="2.6428">
        <ele>81.849365234375</ele>
        <time>2012-03-25T09:34:28Z</time>
      </trkpt>
      <trkpt lat="48.40315" lon="2.64346">
        <ele>80.407470703125</ele>
        <time>2012-03-25T09:34:33Z</time>
      </trkpt>
      <trkpt lat="48.40309" lon="2.64386">
        <ele>78.965454101562</ele>
        <time>2012-03-25T09:34:36Z</time>
      </trkpt>
      <trkpt lat="48.40301" lon="2.64446">
        <ele>78.004028320312</ele>
        <time>2012-03-25T09:34:41Z</time>
      </trkpt>
      <trkpt lat="48.40293" lon="2.64492">
        <ele>76.562133789062</ele>
        <time>2012-03-25T09:34:45Z</time>
      </trkpt>
      <trkpt lat="48.40283" lon="2.6456">
        <ele>75.120239257812</ele>
        <time>2012-03-25T09:34:51Z</time>
      </trkpt>
      <trkpt lat="48.40281" lon="2.64571">
        <ele>74.639526367188</ele>
        <time>2012-03-25T09:34:52Z</time>
      </trkpt>
      <trkpt lat="48.40272" lon="2.64633">
        <ele>74.158813476562</ele>
        <time>2012-03-25T09:34:58Z</time>
      </trkpt>
      <trkpt lat="48.40265" lon="2.64684">
        <ele>72.716918945312</ele>
        <time>2012-03-25T09:35:03Z</time>
      </trkpt>
      <trkpt lat="48.40255" lon="2.64748">
        <ele>71.755493164062</ele>
        <time>2012-03-25T09:35:09Z</time>
      </trkpt>
      <trkpt lat="48.40246" lon="2.64801">
        <ele>70.794189453125</ele>
        <time>2012-03-25T09:35:14Z</time>
      </trkpt>
      <trkpt lat="48.40239" lon="2.64857">
        <ele>70.3134765625</ele>
        <time>2012-03-25T09:35:20Z</time>
      </trkpt>
      <trkpt lat="48.40237" lon="2.64867">
        <ele>69.832885742188</ele>
        <time>2012-03-25T09:35:21Z</time>
      </trkpt>
      <trkpt lat="48.4023" lon="2.64932">
        <ele>69.352294921875</ele>
        <time>2012-03-25T09:35:28Z</time>
      </trkpt>
      <trkpt lat="48.40224" lon="2.64979">
        <ele>68.390869140625</ele>
        <time>2012-03-25T09:35:33Z</time>
      </trkpt>
      <trkpt lat="48.40222" lon="2.64997">
        <ele>67.910278320312</ele>
        <time>2012-03-25T09:35:35Z</time>
      </trkpt>
      <trkpt lat="48.40211" lon="2.65063">
        <ele>67.4296875</ele>
        <time>2012-03-25T09:35:42Z</time>
      </trkpt>
      <trkpt lat="48.40205" lon="2.6511">
        <ele>65.987670898438</ele>
        <time>2012-03-25T09:35:47Z</time>
      </trkpt>
      <trkpt lat="48.40198" lon="2.65164">
        <ele>65.0263671875</ele>
        <time>2012-03-25T09:35:53Z</time>
      </trkpt>
      <trkpt lat="48.40187" lon="2.65221">
        <ele>64.065063476562</ele>
        <time>2012-03-25T09:35:59Z</time>
      </trkpt>
      <trkpt lat="48.40179" lon="2.65277">
        <ele>64.545654296875</ele>
        <time>2012-03-25T09:36:05Z</time>
      </trkpt>
      <trkpt lat="48.40176" lon="2.65302">
        <ele>64.065063476562</ele>
        <time>2012-03-25T09:36:08Z</time>
      </trkpt>
      <trkpt lat="48.40168" lon="2.65355">
        <ele>63.584350585938</ele>
        <time>2012-03-25T09:36:14Z</time>
      </trkpt>
      <trkpt lat="48.40162" lon="2.65396">
        <ele>63.584350585938</ele>
        <time>2012-03-25T09:36:19Z</time>
      </trkpt>
      <trkpt lat="48.40158" lon="2.65443">
        <ele>63.584350585938</ele>
        <time>2012-03-25T09:36:25Z</time>
      </trkpt>
      <trkpt lat="48.40154" lon="2.65491">
        <ele>63.103637695312</ele>
        <time>2012-03-25T09:36:31Z</time>
      </trkpt>
      <trkpt lat="48.40149" lon="2.6554">
        <ele>62.142333984375</ele>
        <time>2012-03-25T09:36:37Z</time>
      </trkpt>
      <trkpt lat="48.40143" lon="2.65591">
        <ele>61.661743164062</ele>
        <time>2012-03-25T09:36:43Z</time>
      </trkpt>
      <trkpt lat="48.40139" lon="2.65624">
        <ele>61.181030273438</ele>
        <time>2012-03-25T09:36:47Z</time>
      </trkpt>
      <trkpt lat="48.40138" lon="2.65648">
        <ele>61.181030273438</ele>
        <time>2012-03-25T09:36:50Z</time>
      </trkpt>
      <trkpt lat="48.40137" lon="2.65665">
        <ele>61.181030273438</ele>
        <time>2012-03-25T09:36:52Z</time>
      </trkpt>
      <trkpt lat="48.40134" lon="2.65722">
        <ele>60.2197265625</ele>
        <time>2012-03-25T09:36:59Z</time>
      </trkpt>
      <trkpt lat="48.40133" lon="2.65739">
        <ele>60.700317382812</ele>
        <time>2012-03-25T09:37:01Z</time>
      </trkpt>
      <trkpt lat="48.40124" lon="2.65803">
        <ele>60.700317382812</ele>
        <time>2012-03-25T09:37:08Z</time>
      </trkpt>
      <trkpt lat="48.40119" lon="2.65868">
        <ele>59.258422851562</ele>
        <time>2012-03-25T09:37:15Z</time>
      </trkpt>
      <trkpt lat="48.40115" lon="2.65936">
        <ele>59.258422851562</ele>
        <time>2012-03-25T09:37:22Z</time>
      </trkpt>
      <trkpt lat="48.40114" lon="2.65946">
        <ele>58.777709960938</ele>
        <time>2012-03-25T09:37:23Z</time>
      </trkpt>
      <trkpt lat="48.40102" lon="2.66019">
        <ele>58.777709960938</ele>
        <time>2012-03-25T09:37:31Z</time>
      </trkpt>
      <trkpt lat="48.40115" lon="2.66028">
        <ele>58.777709960938</ele>
        <time>2012-03-25T09:37:35Z</time>
      </trkpt>
      <trkpt lat="48.40119" lon="2.6603">
        <ele>58.777709960938</ele>
        <time>2012-03-25T09:37:36Z</time>
      </trkpt>
      <trkpt lat="48.40143" lon="2.66032">
        <ele>59.739135742188</ele>
        <time>2012-03-25T09:37:41Z</time>
      </trkpt>
      <trkpt lat="48.40175" lon="2.66034">
        <ele>60.700317382812</ele>
        <time>2012-03-25T09:37:47Z</time>
      </trkpt>
      <trkpt lat="48.40202" lon="2.66037">
        <ele>60.2197265625</ele>
        <time>2012-03-25T09:37:52Z</time>
      </trkpt>
      <trkpt lat="48.40242" lon="2.66042">
        <ele>60.700317382812</ele>
        <time>2012-03-25T09:37:59Z</time>
      </trkpt>
      <trkpt lat="48.40269" lon="2.66046">
        <ele>60.700317382812</ele>
        <time>2012-03-25T09:38:04Z</time>
      </trkpt>
      <trkpt lat="48.40302" lon="2.6605">
        <ele>61.181030273438</ele>
        <time>2012-03-25T09:38:11Z</time>
      </trkpt>
      <trkpt lat="48.40335" lon="2.66057">
        <ele>61.661743164062</ele>
        <time>2012-03-25T09:38:18Z</time>
      </trkpt>
      <trkpt lat="48.40362" lon="2.6606">
        <ele>62.142333984375</ele>
        <time>2012-03-25T09:38:24Z</time>
      </trkpt>
      <trkpt lat="48.40376" lon="2.6605">
        <ele>62.622924804688</ele>
        <time>2012-03-25T09:38:28Z</time>
      </trkpt>
      <trkpt lat="48.40378" lon="2.66039">
        <ele>63.103637695312</ele>
        <time>2012-03-25T09:38:30Z</time>
      </trkpt>
      <trkpt lat="48.40378" lon="2.66">
        <ele>63.103637695312</ele>
        <time>2012-03-25T09:38:37Z</time>
      </trkpt>
      <trkpt lat="48.40378" lon="2.65969">
        <ele>64.545654296875</ele>
        <time>2012-03-25T09:38:43Z</time>
      </trkpt>
      <trkpt lat="48.40379" lon="2.65914">
        <ele>65.507080078125</ele>
        <time>2012-03-25T09:38:54Z</time>
      </trkpt>
      <trkpt lat="48.40379" lon="2.6589">
        <ele>65.987670898438</ele>
        <time>2012-03-25T09:38:59Z</time>
      </trkpt>
      <trkpt lat="48.4038" lon="2.65838">
        <ele>66.46826171875</ele>
        <time>2012-03-25T09:39:09Z</time>
      </trkpt>
      <trkpt lat="48.40381" lon="2.65786">
        <ele>66.948974609375</ele>
        <time>2012-03-25T09:39:18Z</time>
      </trkpt>
      <trkpt lat="48.40382" lon="2.6576">
        <ele>65.987670898438</ele>
        <time>2012-03-25T09:39:22Z</time>
      </trkpt>
      <trkpt lat="48.4038" lon="2.65747">
        <ele>66.46826171875</ele>
        <time>2012-03-25T09:39:24Z</time>
      </trkpt>
      <trkpt lat="48.4038" lon="2.6568">
        <ele>65.507080078125</ele>
        <time>2012-03-25T09:39:33Z</time>
      </trkpt>
      <trkpt lat="48.4038" lon="2.65633">
        <ele>65.0263671875</ele>
        <time>2012-03-25T09:39:39Z</time>
      </trkpt>
      <trkpt lat="48.4038" lon="2.65586">
        <ele>65.0263671875</ele>
        <time>2012-03-25T09:39:44Z</time>
      </trkpt>
      <trkpt lat="48.40382" lon="2.65534">
        <ele>64.545654296875</ele>
        <time>2012-03-25T09:39:50Z</time>
      </trkpt>
      <trkpt lat="48.40391" lon="2.65457">
        <ele>65.0263671875</ele>
        <time>2012-03-25T09:40:00Z</time>
      </trkpt>
      <trkpt lat="48.40396" lon="2.65411">
        <ele>65.987670898438</ele>
        <time>2012-03-25T09:40:07Z</time>
      </trkpt>
      <trkpt lat="48.40401" lon="2.6537">
        <ele>66.46826171875</ele>
        <time>2012-03-25T09:40:14Z</time>
      </trkpt>
      <trkpt lat="48.40409" lon="2.65321">
        <ele>66.948974609375</ele>
        <time>2012-03-25T09:40:22Z</time>
      </trkpt>
      <trkpt lat="48.40412" lon="2.65279">
        <ele>67.4296875</ele>
        <time>2012-03-25T09:40:29Z</time>
      </trkpt>
      <trkpt lat="48.40414" lon="2.65249">
        <ele>67.910278320312</ele>
        <time>2012-03-25T09:40:34Z</time>
      </trkpt>
      <trkpt lat="48.40419" lon="2.65203">
        <ele>68.87158203125</ele>
        <time>2012-03-25T09:40:41Z</time>
      </trkpt>
      <trkpt lat="48.40424" lon="2.65171">
        <ele>69.832885742188</ele>
        <time>2012-03-25T09:40:46Z</time>
      </trkpt>
      <trkpt lat="48.40426" lon="2.65141">
        <ele>69.832885742188</ele>
        <time>2012-03-25T09:40:52Z</time>
      </trkpt>
      <trkpt lat="48.40429" lon="2.65116">
        <ele>70.3134765625</ele>
        <time>2012-03-25T09:40:57Z</time>
      </trkpt>
      <trkpt lat="48.40435" lon="2.6509">
        <ele>70.794189453125</ele>
        <time>2012-03-25T09:41:02Z</time>
      </trkpt>
      <trkpt lat="48.40446" lon="2.65067">
        <ele>71.27490234375</ele>
        <time>2012-03-25T09:41:08Z</time>
      </trkpt>
      <trkpt lat="48.40456" lon="2.65046">
        <ele>71.27490234375</ele>
        <time>2012-03-25T09:41:13Z</time>
      </trkpt>
      <trkpt lat="48.40473" lon="2.6502">
        <ele>72.236206054688</ele>
        <time>2012-03-25T09:41:21Z</time>
      </trkpt>
      <trkpt lat="48.40492" lon="2.64998">
        <ele>73.197631835938</ele>
        <time>2012-03-25T09:41:29Z</time>
      </trkpt>
      <trkpt lat="48.40504" lon="2.64983">
        <ele>73.197631835938</ele>
        <time>2012-03-25T09:41:35Z</time>
      </trkpt>
      <trkpt lat="48.40516" lon="2.64976">
        <ele>73.67822265625</ele>
        <time>2012-03-25T09:41:40Z</time>
      </trkpt>
      <trkpt lat="48.40529" lon="2.64967">
        <ele>75.600830078125</ele>
        <time>2012-03-25T09:41:46Z</time>
      </trkpt>
      <trkpt lat="48.40542" lon="2.6496">
        <ele>74.639526367188</ele>
        <time>2012-03-25T09:41:51Z</time>
      </trkpt>
      <trkpt lat="48.40548" lon="2.64957">
        <ele>76.081420898438</ele>
        <time>2012-03-25T09:41:54Z</time>
      </trkpt>
      <trkpt lat="48.40561" lon="2.64954">
        <ele>77.042846679688</ele>
        <time>2012-03-25T09:42:00Z</time>
      </trkpt>
      <trkpt lat="48.40574" lon="2.64952">
        <ele>78.004028320312</ele>
        <time>2012-03-25T09:42:07Z</time>
      </trkpt>
      <trkpt lat="48.40592" lon="2.64952">
        <ele>78.965454101562</ele>
        <time>2012-03-25T09:42:14Z</time>
      </trkpt>
      <trkpt lat="48.40607" lon="2.64951">
        <ele>80.407470703125</ele>
        <time>2012-03-25T09:42:20Z</time>
      </trkpt>
      <trkpt lat="48.40622" lon="2.64952">
        <ele>81.368774414062</ele>
        <time>2012-03-25T09:42:27Z</time>
      </trkpt>
      <trkpt lat="48.40636" lon="2.64954">
        <ele>81.368774414062</ele>
        <time>2012-03-25T09:42:33Z</time>
      </trkpt>
      <trkpt lat="48.40646" lon="2.64952">
        <ele>82.330078125</ele>
        <time>2012-03-25T09:42:38Z</time>
      </trkpt>
      <trkpt lat="48.40656" lon="2.64937">
        <ele>82.810791015625</ele>
        <time>2012-03-25T09:42:44Z</time>
      </trkpt>
      <trkpt lat="48.40664" lon="2.6492">
        <ele>83.291381835938</ele>
        <time>2012-03-25T09:42:50Z</time>
      </trkpt>
      <trkpt lat="48.40673" lon="2.64901">
        <ele>83.77197265625</ele>
        <time>2012-03-25T09:42:56Z</time>
      </trkpt>
      <trkpt lat="48.40683" lon="2.64877">
        <ele>84.7333984375</ele>
        <time>2012-03-25T09:43:04Z</time>
      </trkpt>
      <trkpt lat="48.40693" lon="2.64858">
        <ele>86.17529296875</ele>
        <time>2012-03-25T09:43:11Z</time>
      </trkpt>
      <trkpt lat="48.40703" lon="2.64837">
        <ele>87.136596679688</ele>
        <time>2012-03-25T09:43:19Z</time>
      </trkpt>
      <trkpt lat="48.4071" lon="2.64822">
        <ele>87.136596679688</ele>
        <time>2012-03-25T09:43:25Z</time>
      </trkpt>
      <trkpt lat="48.40718" lon="2.64805">
        <ele>88.098022460938</ele>
        <time>2012-03-25T09:43:33Z</time>
      </trkpt>
      <trkpt lat="48.40719" lon="2.6479">
        <ele>88.578735351562</ele>
        <time>2012-03-25T09:43:39Z</time>
      </trkpt>
      <trkpt lat="48.40719" lon="2.64788">
        <ele>89.059326171875</ele>
        <time>2012-03-25T09:43:40Z</time>
      </trkpt>
      <trkpt lat="48.40722" lon="2.64768">
        <ele>90.501342773438</ele>
        <time>2012-03-25T09:43:47Z</time>
      </trkpt>
      <trkpt lat="48.40723" lon="2.64753">
        <ele>90.501342773438</ele>
        <time>2012-03-25T09:43:53Z</time>
      </trkpt>
      <trkpt lat="48.40725" lon="2.64729">
        <ele>91.943237304688</ele>
        <time>2012-03-25T09:43:59Z</time>
      </trkpt>
      <trkpt lat="48.40728" lon="2.64704">
        <ele>92.904541015625</ele>
        <time>2012-03-25T09:44:06Z</time>
      </trkpt>
      <trkpt lat="48.4073" lon="2.64684">
        <ele>93.865844726562</ele>
        <time>2012-03-25T09:44:12Z</time>
      </trkpt>
      <trkpt lat="48.40734" lon="2.64657">
        <ele>94.346557617188</ele>
        <time>2012-03-25T09:44:19Z</time>
      </trkpt>
      <trkpt lat="48.40738" lon="2.64633">
        <ele>95.307739257812</ele>
        <time>2012-03-25T09:44:25Z</time>
      </trkpt>
      <trkpt lat="48.40741" lon="2.64602">
        <ele>96.269287109375</ele>
        <time>2012-03-25T09:44:33Z</time>
      </trkpt>
      <trkpt lat="48.40745" lon="2.64578">
        <ele>97.23046875</ele>
        <time>2012-03-25T09:44:40Z</time>
      </trkpt>
      <trkpt lat="48.40746" lon="2.64556">
        <ele>97.711181640625</ele>
        <time>2012-03-25T09:44:46Z</time>
      </trkpt>
      <trkpt lat="48.40749" lon="2.64531">
        <ele>99.6337890625</ele>
        <time>2012-03-25T09:44:53Z</time>
      </trkpt>
      <trkpt lat="48.40753" lon="2.64507">
        <ele>100.59509277344</ele>
        <time>2012-03-25T09:45:00Z</time>
      </trkpt>
      <trkpt lat="48.40756" lon="2.64478">
        <ele>101.55639648438</ele>
        <time>2012-03-25T09:45:09Z</time>
      </trkpt>
      <trkpt lat="48.40757" lon="2.64466">
        <ele>102.51770019531</ele>
        <time>2012-03-25T09:45:14Z</time>
      </trkpt>
      <trkpt lat="48.40761" lon="2.64442">
        <ele>104.92102050781</ele>
        <time>2012-03-25T09:45:23Z</time>
      </trkpt>
      <trkpt lat="48.40764" lon="2.64421">
        <ele>105.40173339844</ele>
        <time>2012-03-25T09:45:30Z</time>
      </trkpt>
      <trkpt lat="48.40771" lon="2.644">
        <ele>105.88244628906</ele>
        <time>2012-03-25T09:45:37Z</time>
      </trkpt>
      <trkpt lat="48.40779" lon="2.64374">
        <ele>106.84362792969</ele>
        <time>2012-03-25T09:45:45Z</time>
      </trkpt>
      <trkpt lat="48.40783" lon="2.64358">
        <ele>107.32434082031</ele>
        <time>2012-03-25T09:45:51Z</time>
      </trkpt>
      <trkpt lat="48.40786" lon="2.64337">
        <ele>107.80505371094</ele>
        <time>2012-03-25T09:45:58Z</time>
      </trkpt>
      <trkpt lat="48.40792" lon="2.64311">
        <ele>108.76623535156</ele>
        <time>2012-03-25T09:46:06Z</time>
      </trkpt>
      <trkpt lat="48.40795" lon="2.64292">
        <ele>109.24694824219</ele>
        <time>2012-03-25T09:46:12Z</time>
      </trkpt>
      <trkpt lat="48.40802" lon="2.6429">
        <ele>110.68884277344</ele>
        <time>2012-03-25T09:46:17Z</time>
      </trkpt>
      <trkpt lat="48.40805" lon="2.64302">
        <ele>111.16955566406</ele>
        <time>2012-03-25T09:46:21Z</time>
      </trkpt>
      <trkpt lat="48.40808" lon="2.6432">
        <ele>111.65026855469</ele>
        <time>2012-03-25T09:46:26Z</time>
      </trkpt>
      <trkpt lat="48.40811" lon="2.64342">
        <ele>111.65026855469</ele>
        <time>2012-03-25T09:46:31Z</time>
      </trkpt>
      <trkpt lat="48.40815" lon="2.64365">
        <ele>111.65026855469</ele>
        <time>2012-03-25T09:46:36Z</time>
      </trkpt>
      <trkpt lat="48.40819" lon="2.64394">
        <ele>111.65026855469</ele>
        <time>2012-03-25T09:46:42Z</time>
      </trkpt>
      <trkpt lat="48.40824" lon="2.64419">
        <ele>111.65026855469</ele>
        <time>2012-03-25T09:46:47Z</time>
      </trkpt>
      <trkpt lat="48.40828" lon="2.64458">
        <ele>111.65026855469</ele>
        <time>2012-03-25T09:46:54Z</time>
      </trkpt>
      <trkpt lat="48.40833" lon="2.64483">
        <ele>112.61157226562</ele>
        <time>2012-03-25T09:47:00Z</time>
      </trkpt>
      <trkpt lat="48.40837" lon="2.64498">
        <ele>111.65026855469</ele>
        <time>2012-03-25T09:47:04Z</time>
      </trkpt>
      <trkpt lat="48.40842" lon="2.64525">
        <ele>112.13098144531</ele>
        <time>2012-03-25T09:47:10Z</time>
      </trkpt>
      <trkpt lat="48.40846" lon="2.64552">
        <ele>112.61157226562</ele>
        <time>2012-03-25T09:47:15Z</time>
      </trkpt>
      <trkpt lat="48.40852" lon="2.64578">
        <ele>112.13098144531</ele>
        <time>2012-03-25T09:47:20Z</time>
      </trkpt>
      <trkpt lat="48.40856" lon="2.64603">
        <ele>112.13098144531</ele>
        <time>2012-03-25T09:47:24Z</time>
      </trkpt>
      <trkpt lat="48.40866" lon="2.64655">
        <ele>111.16955566406</ele>
        <time>2012-03-25T09:47:33Z</time>
      </trkpt>
      <trkpt lat="48.40873" lon="2.64688">
        <ele>112.61157226562</ele>
        <time>2012-03-25T09:47:39Z</time>
      </trkpt>
      <trkpt lat="48.40878" lon="2.64714">
        <ele>112.13098144531</ele>
        <time>2012-03-25T09:47:44Z</time>
      </trkpt>
      <trkpt lat="48.40882" lon="2.64743">
        <ele>112.13098144531</ele>
        <time>2012-03-25T09:47:50Z</time>
      </trkpt>
      <trkpt lat="48.40888" lon="2.64768">
        <ele>112.61157226562</ele>
        <time>2012-03-25T09:47:55Z</time>
      </trkpt>
      <trkpt lat="48.409" lon="2.64803">
        <ele>113.09228515625</ele>
        <time>2012-03-25T09:48:02Z</time>
      </trkpt>
      <trkpt lat="48.4091" lon="2.64829">
        <ele>112.61157226562</ele>
        <time>2012-03-25T09:48:07Z</time>
      </trkpt>
      <trkpt lat="48.40921" lon="2.6486">
        <ele>112.61157226562</ele>
        <time>2012-03-25T09:48:13Z</time>
      </trkpt>
      <trkpt lat="48.40931" lon="2.64889">
        <ele>112.61157226562</ele>
        <time>2012-03-25T09:48:19Z</time>
      </trkpt>
      <trkpt lat="48.40942" lon="2.64927">
        <ele>112.13098144531</ele>
        <time>2012-03-25T09:48:26Z</time>
      </trkpt>
      <trkpt lat="48.40953" lon="2.64963">
        <ele>112.61157226562</ele>
        <time>2012-03-25T09:48:32Z</time>
      </trkpt>
      <trkpt lat="48.40966" lon="2.65005">
        <ele>112.13098144531</ele>
        <time>2012-03-25T09:48:39Z</time>
      </trkpt>
      <trkpt lat="48.40977" lon="2.65036">
        <ele>111.65026855469</ele>
        <time>2012-03-25T09:48:44Z</time>
      </trkpt>
      <trkpt lat="48.4099" lon="2.65073">
        <ele>112.13098144531</ele>
        <time>2012-03-25T09:48:50Z</time>
      </trkpt>
      <trkpt lat="48.41004" lon="2.65117">
        <ele>111.65026855469</ele>
        <time>2012-03-25T09:48:57Z</time>
      </trkpt>
      <trkpt lat="48.41019" lon="2.65164">
        <ele>112.13098144531</ele>
        <time>2012-03-25T09:49:05Z</time>
      </trkpt>
      <trkpt lat="48.41031" lon="2.65199">
        <ele>111.65026855469</ele>
        <time>2012-03-25T09:49:11Z</time>
      </trkpt>
      <trkpt lat="48.41046" lon="2.65242">
        <ele>112.13098144531</ele>
        <time>2012-03-25T09:49:18Z</time>
      </trkpt>
      <trkpt lat="48.41061" lon="2.6529">
        <ele>112.13098144531</ele>
        <time>2012-03-25T09:49:26Z</time>
      </trkpt>
      <trkpt lat="48.41072" lon="2.65325">
        <ele>111.65026855469</ele>
        <time>2012-03-25T09:49:32Z</time>
      </trkpt>
      <trkpt lat="48.41085" lon="2.65365">
        <ele>111.65026855469</ele>
        <time>2012-03-25T09:49:39Z</time>
      </trkpt>
      <trkpt lat="48.41094" lon="2.65395">
        <ele>112.13098144531</ele>
        <time>2012-03-25T09:49:45Z</time>
      </trkpt>
      <trkpt lat="48.41106" lon="2.65423">
        <ele>111.65026855469</ele>
        <time>2012-03-25T09:49:50Z</time>
      </trkpt>
      <trkpt lat="48.41122" lon="2.65473">
        <ele>111.65026855469</ele>
        <time>2012-03-25T09:49:58Z</time>
      </trkpt>
      <trkpt lat="48.41135" lon="2.65519">
        <ele>110.68884277344</ele>
        <time>2012-03-25T09:50:05Z</time>
      </trkpt>
      <trkpt lat="48.41144" lon="2.65548">
        <ele>111.16955566406</ele>
        <time>2012-03-25T09:50:10Z</time>
      </trkpt>
      <trkpt lat="48.41144" lon="2.65577">
        <ele>110.20825195312</ele>
        <time>2012-03-25T09:50:15Z</time>
      </trkpt>
      <trkpt lat="48.41138" lon="2.65587">
        <ele>110.20825195312</ele>
        <time>2012-03-25T09:50:17Z</time>
      </trkpt>
      <trkpt lat="48.41129" lon="2.65586">
        <ele>110.20825195312</ele>
        <time>2012-03-25T09:50:21Z</time>
      </trkpt>
      <trkpt lat="48.41113" lon="2.65583">
        <ele>110.68884277344</ele>
        <time>2012-03-25T09:50:26Z</time>
      </trkpt>
      <trkpt lat="48.41074" lon="2.65569">
        <ele>110.68884277344</ele>
        <time>2012-03-25T09:50:36Z</time>
      </trkpt>
      <trkpt lat="48.41037" lon="2.65555">
        <ele>111.16955566406</ele>
        <time>2012-03-25T09:50:46Z</time>
      </trkpt>
      <trkpt lat="48.40993" lon="2.65539">
        <ele>113.09228515625</ele>
        <time>2012-03-25T09:50:58Z</time>
      </trkpt>
      <trkpt lat="48.4095" lon="2.65523">
        <ele>113.57299804688</ele>
        <time>2012-03-25T09:51:09Z</time>
      </trkpt>
      <trkpt lat="48.40916" lon="2.65511">
        <ele>114.05358886719</ele>
        <time>2012-03-25T09:51:18Z</time>
      </trkpt>
      <trkpt lat="48.40881" lon="2.65497">
        <ele>113.57299804688</ele>
        <time>2012-03-25T09:51:27Z</time>
      </trkpt>
      <trkpt lat="48.40851" lon="2.65485">
        <ele>114.05358886719</ele>
        <time>2012-03-25T09:51:34Z</time>
      </trkpt>
      <trkpt lat="48.40821" lon="2.65473">
        <ele>114.5341796875</ele>
        <time>2012-03-25T09:51:41Z</time>
      </trkpt>
      <trkpt lat="48.40817" lon="2.65472">
        <ele>114.5341796875</ele>
        <time>2012-03-25T09:51:42Z</time>
      </trkpt>
      <trkpt lat="48.40809" lon="2.65488">
        <ele>115.01489257812</ele>
        <time>2012-03-25T09:51:46Z</time>
      </trkpt>
      <trkpt lat="48.40814" lon="2.65532">
        <ele>114.05358886719</ele>
        <time>2012-03-25T09:51:53Z</time>
      </trkpt>
      <trkpt lat="48.40818" lon="2.65567">
        <ele>113.57299804688</ele>
        <time>2012-03-25T09:51:58Z</time>
      </trkpt>
      <trkpt lat="48.4082" lon="2.65594">
        <ele>114.5341796875</ele>
        <time>2012-03-25T09:52:02Z</time>
      </trkpt>
      <trkpt lat="48.40823" lon="2.65621">
        <ele>113.57299804688</ele>
        <time>2012-03-25T09:52:06Z</time>
      </trkpt>
      <trkpt lat="48.40829" lon="2.65664">
        <ele>113.57299804688</ele>
        <time>2012-03-25T09:52:12Z</time>
      </trkpt>
      <trkpt lat="48.40833" lon="2.65687">
        <ele>113.57299804688</ele>
        <time>2012-03-25T09:52:15Z</time>
      </trkpt>
      <trkpt lat="48.40836" lon="2.65726">
        <ele>113.57299804688</ele>
        <time>2012-03-25T09:52:20Z</time>
      </trkpt>
      <trkpt lat="48.40842" lon="2.65771">
        <ele>113.57299804688</ele>
        <time>2012-03-25T09:52:26Z</time>
      </trkpt>
      <trkpt lat="48.40847" lon="2.65801">
        <ele>113.57299804688</ele>
        <time>2012-03-25T09:52:30Z</time>
      </trkpt>
      <trkpt lat="48.40854" lon="2.65837">
        <ele>113.57299804688</ele>
        <time>2012-03-25T09:52:35Z</time>
      </trkpt>
      <trkpt lat="48.40854" lon="2.65844">
        <ele>113.57299804688</ele>
        <time>2012-03-25T09:52:36Z</time>
      </trkpt>
      <trkpt lat="48.40858" lon="2.65875">
        <ele>113.09228515625</ele>
        <time>2012-03-25T09:52:40Z</time>
      </trkpt>
      <trkpt lat="48.40862" lon="2.65894">
        <ele>113.57299804688</ele>
        <time>2012-03-25T09:52:43Z</time>
      </trkpt>
      <trkpt lat="48.40863" lon="2.65908">
        <ele>113.57299804688</ele>
        <time>2012-03-25T09:52:45Z</time>
      </trkpt>
      <trkpt lat="48.40864" lon="2.65946">
        <ele>113.57299804688</ele>
        <time>2012-03-25T09:52:50Z</time>
      </trkpt>
      <trkpt lat="48.40859" lon="2.65966">
        <ele>113.57299804688</ele>
        <time>2012-03-25T09:52:53Z</time>
      </trkpt>
      <trkpt lat="48.40845" lon="2.66001">
        <ele>113.57299804688</ele>
        <time>2012-03-25T09:52:59Z</time>
      </trkpt>
      <trkpt lat="48.4083" lon="2.66036">
        <ele>113.57299804688</ele>
        <time>2012-03-25T09:53:05Z</time>
      </trkpt>
      <trkpt lat="48.40819" lon="2.66065">
        <ele>114.5341796875</ele>
        <time>2012-03-25T09:53:11Z</time>
      </trkpt>
      <trkpt lat="48.40807" lon="2.661">
        <ele>114.05358886719</ele>
        <time>2012-03-25T09:53:17Z</time>
      </trkpt>
      <trkpt lat="48.40795" lon="2.66129">
        <ele>114.05358886719</ele>
        <time>2012-03-25T09:53:22Z</time>
      </trkpt>
      <trkpt lat="48.40782" lon="2.66159">
        <ele>114.5341796875</ele>
        <time>2012-03-25T09:53:27Z</time>
      </trkpt>
      <trkpt lat="48.40778" lon="2.66173">
        <ele>114.05358886719</ele>
        <time>2012-03-25T09:53:29Z</time>
      </trkpt>
      <trkpt lat="48.40759" lon="2.66213">
        <ele>112.13098144531</ele>
        <time>2012-03-25T09:53:34Z</time>
      </trkpt>
      <trkpt lat="48.40746" lon="2.66247">
        <ele>108.28564453125</ele>
        <time>2012-03-25T09:53:37Z</time>
      </trkpt>
      <trkpt lat="48.40728" lon="2.66285">
        <ele>103.95971679688</ele>
        <time>2012-03-25T09:53:40Z</time>
      </trkpt>
      <trkpt lat="48.40707" lon="2.66323">
        <ele>101.07568359375</ele>
        <time>2012-03-25T09:53:43Z</time>
      </trkpt>
      <trkpt lat="48.40678" lon="2.6639">
        <ele>97.23046875</ele>
        <time>2012-03-25T09:53:48Z</time>
      </trkpt>
      <trkpt lat="48.40665" lon="2.66418">
        <ele>95.788452148438</ele>
        <time>2012-03-25T09:53:50Z</time>
      </trkpt>
      <trkpt lat="48.40653" lon="2.66444">
        <ele>93.865844726562</ele>
        <time>2012-03-25T09:53:52Z</time>
      </trkpt>
      <trkpt lat="48.40622" lon="2.66506">
        <ele>90.98193359375</ele>
        <time>2012-03-25T09:53:57Z</time>
      </trkpt>
      <trkpt lat="48.40602" lon="2.66546">
        <ele>87.136596679688</ele>
        <time>2012-03-25T09:54:00Z</time>
      </trkpt>
      <trkpt lat="48.40589" lon="2.66571">
        <ele>83.291381835938</ele>
        <time>2012-03-25T09:54:02Z</time>
      </trkpt>
      <trkpt lat="48.40583" lon="2.66584">
        <ele>83.291381835938</ele>
        <time>2012-03-25T09:54:03Z</time>
      </trkpt>
      <trkpt lat="48.40565" lon="2.66621">
        <ele>80.88818359375</ele>
        <time>2012-03-25T09:54:06Z</time>
      </trkpt>
      <trkpt lat="48.40536" lon="2.6668">
        <ele>79.446044921875</ele>
        <time>2012-03-25T09:54:11Z</time>
      </trkpt>
      <trkpt lat="48.40523" lon="2.66707">
        <ele>77.042846679688</ele>
        <time>2012-03-25T09:54:13Z</time>
      </trkpt>
      <trkpt lat="48.40511" lon="2.66736">
        <ele>74.158813476562</ele>
        <time>2012-03-25T09:54:15Z</time>
      </trkpt>
      <trkpt lat="48.40488" lon="2.66786">
        <ele>73.67822265625</ele>
        <time>2012-03-25T09:54:19Z</time>
      </trkpt>
      <trkpt lat="48.40475" lon="2.66811">
        <ele>71.755493164062</ele>
        <time>2012-03-25T09:54:21Z</time>
      </trkpt>
      <trkpt lat="48.40479" lon="2.66825">
        <ele>71.755493164062</ele>
        <time>2012-03-25T09:54:24Z</time>
      </trkpt>
      <trkpt lat="48.40485" lon="2.66842">
        <ele>72.236206054688</ele>
        <time>2012-03-25T09:54:27Z</time>
      </trkpt>
      <trkpt lat="48.40503" lon="2.66883">
        <ele>72.236206054688</ele>
        <time>2012-03-25T09:54:33Z</time>
      </trkpt>
      <trkpt lat="48.40511" lon="2.66905">
        <ele>71.27490234375</ele>
        <time>2012-03-25T09:54:36Z</time>
      </trkpt>
      <trkpt lat="48.40523" lon="2.66944">
        <ele>71.27490234375</ele>
        <time>2012-03-25T09:54:42Z</time>
      </trkpt>
      <trkpt lat="48.40534" lon="2.6698">
        <ele>72.236206054688</ele>
        <time>2012-03-25T09:54:48Z</time>
      </trkpt>
      <trkpt lat="48.40547" lon="2.67015">
        <ele>73.67822265625</ele>
        <time>2012-03-25T09:54:55Z</time>
      </trkpt>
      <trkpt lat="48.40555" lon="2.67042">
        <ele>73.67822265625</ele>
        <time>2012-03-25T09:55:00Z</time>
      </trkpt>
      <trkpt lat="48.40568" lon="2.67078">
        <ele>74.158813476562</ele>
        <time>2012-03-25T09:55:07Z</time>
      </trkpt>
      <trkpt lat="48.40577" lon="2.67111">
        <ele>74.158813476562</ele>
        <time>2012-03-25T09:55:13Z</time>
      </trkpt>
      <trkpt lat="48.40588" lon="2.67158">
        <ele>74.158813476562</ele>
        <time>2012-03-25T09:55:21Z</time>
      </trkpt>
      <trkpt lat="48.40589" lon="2.67164">
        <ele>74.639526367188</ele>
        <time>2012-03-25T09:55:22Z</time>
      </trkpt>
      <trkpt lat="48.40588" lon="2.67209">
        <ele>74.158813476562</ele>
        <time>2012-03-25T09:55:28Z</time>
      </trkpt>
      <trkpt lat="48.4058" lon="2.67282">
        <ele>72.236206054688</ele>
        <time>2012-03-25T09:55:36Z</time>
      </trkpt>
      <trkpt lat="48.40576" lon="2.6732">
        <ele>72.236206054688</ele>
        <time>2012-03-25T09:55:40Z</time>
      </trkpt>
      <trkpt lat="48.40574" lon="2.67355">
        <ele>71.27490234375</ele>
        <time>2012-03-25T09:55:44Z</time>
      </trkpt>
      <trkpt lat="48.40567" lon="2.67439">
        <ele>70.3134765625</ele>
        <time>2012-03-25T09:55:54Z</time>
      </trkpt>
      <trkpt lat="48.40562" lon="2.67493">
        <ele>70.3134765625</ele>
        <time>2012-03-25T09:56:01Z</time>
      </trkpt>
      <trkpt lat="48.40556" lon="2.67548">
        <ele>70.3134765625</ele>
        <time>2012-03-25T09:56:08Z</time>
      </trkpt>
      <trkpt lat="48.40549" lon="2.67602">
        <ele>70.3134765625</ele>
        <time>2012-03-25T09:56:15Z</time>
      </trkpt>
      <trkpt lat="48.40549" lon="2.6761">
        <ele>69.832885742188</ele>
        <time>2012-03-25T09:56:16Z</time>
      </trkpt>
      <trkpt lat="48.40544" lon="2.67671">
        <ele>70.3134765625</ele>
        <time>2012-03-25T09:56:24Z</time>
      </trkpt>
      <trkpt lat="48.4054" lon="2.677">
        <ele>70.3134765625</ele>
        <time>2012-03-25T09:56:28Z</time>
      </trkpt>
      <trkpt lat="48.40535" lon="2.67736">
        <ele>70.3134765625</ele>
        <time>2012-03-25T09:56:33Z</time>
      </trkpt>
      <trkpt lat="48.40533" lon="2.6775">
        <ele>70.3134765625</ele>
        <time>2012-03-25T09:56:35Z</time>
      </trkpt>
      <trkpt lat="48.40527" lon="2.67787">
        <ele>70.794189453125</ele>
        <time>2012-03-25T09:56:40Z</time>
      </trkpt>
      <trkpt lat="48.40519" lon="2.67859">
        <ele>69.832885742188</ele>
        <time>2012-03-25T09:56:49Z</time>
      </trkpt>
      <trkpt lat="48.40508" lon="2.67935">
        <ele>70.794189453125</ele>
        <time>2012-03-25T09:56:58Z</time>
      </trkpt>
      <trkpt lat="48.40499" lon="2.67996">
        <ele>70.3134765625</ele>
        <time>2012-03-25T09:57:05Z</time>
      </trkpt>
      <trkpt lat="48.40491" lon="2.6806">
        <ele>69.832885742188</ele>
        <time>2012-03-25T09:57:12Z</time>
      </trkpt>
      <trkpt lat="48.4048" lon="2.68133">
        <ele>69.832885742188</ele>
        <time>2012-03-25T09:57:20Z</time>
      </trkpt>
      <trkpt lat="48.40472" lon="2.6819">
        <ele>69.352294921875</ele>
        <time>2012-03-25T09:57:26Z</time>
      </trkpt>
      <trkpt lat="48.40464" lon="2.68246">
        <ele>69.832885742188</ele>
        <time>2012-03-25T09:57:32Z</time>
      </trkpt>
      <trkpt lat="48.40459" lon="2.68281">
        <ele>69.352294921875</ele>
        <time>2012-03-25T09:57:36Z</time>
      </trkpt>
      <trkpt lat="48.40453" lon="2.68296">
        <ele>68.87158203125</ele>
        <time>2012-03-25T09:57:40Z</time>
      </trkpt>
      <trkpt lat="48.4045" lon="2.68296">
        <ele>68.87158203125</ele>
        <time>2012-03-25T09:57:41Z</time>
      </trkpt>
      <trkpt lat="48.4044" lon="2.68291">
        <ele>68.390869140625</ele>
        <time>2012-03-25T09:57:44Z</time>
      </trkpt>
      <trkpt lat="48.40429" lon="2.6827">
        <ele>68.87158203125</ele>
        <time>2012-03-25T09:57:48Z</time>
      </trkpt>
      <trkpt lat="48.40425" lon="2.68262">
        <ele>68.390869140625</ele>
        <time>2012-03-25T09:57:51Z</time>
      </trkpt>
      <trkpt lat="48.40424" lon="2.68261">
        <ele>68.87158203125</ele>
        <time>2012-03-25T09:57:58Z</time>
      </trkpt>
      <trkpt lat="48.40424" lon="2.6826">
        <ele>69.352294921875</ele>
        <time>2012-03-25T09:58:05Z</time>
      </trkpt>
      <trkpt lat="48.40424" lon="2.68261">
        <ele>68.390869140625</ele>
        <time>2012-03-25T09:58:12Z</time>
      </trkpt>
      <trkpt lat="48.40424" lon="2.68261">
        <ele>67.4296875</ele>
        <time>2012-03-25T09:58:22Z</time>
      </trkpt>
      <trkpt lat="48.40424" lon="2.68262">
        <ele>68.87158203125</ele>
        <time>2012-03-25T09:58:30Z</time>
      </trkpt>
      <trkpt lat="48.40421" lon="2.68265">
        <ele>69.352294921875</ele>
        <time>2012-03-25T09:58:37Z</time>
      </trkpt>
      <trkpt lat="48.40417" lon="2.68264">
        <ele>68.390869140625</ele>
        <time>2012-03-25T09:58:42Z</time>
      </trkpt>
      <trkpt lat="48.40414" lon="2.68266">
        <ele>69.352294921875</ele>
        <time>2012-03-25T09:58:46Z</time>
      </trkpt>
      <trkpt lat="48.40411" lon="2.68266">
        <ele>69.352294921875</ele>
        <time>2012-03-25T09:58:52Z</time>
      </trkpt>
      <trkpt lat="48.40411" lon="2.68263">
        <ele>68.87158203125</ele>
        <time>2012-03-25T09:59:06Z</time>
      </trkpt>
      <trkpt lat="48.40411" lon="2.68262">
        <ele>68.87158203125</ele>
        <time>2012-03-25T09:59:11Z</time>
      </trkpt>
      <trkpt lat="48.4041" lon="2.68255">
        <ele>68.390869140625</ele>
        <time>2012-03-25T09:59:15Z</time>
      </trkpt>
      <trkpt lat="48.40411" lon="2.68256">
        <ele>69.832885742188</ele>
        <time>2012-03-25T09:59:20Z</time>
      </trkpt>
      <trkpt lat="48.40415" lon="2.68257">
        <ele>69.832885742188</ele>
        <time>2012-03-25T09:59:30Z</time>
      </trkpt>
      <trkpt lat="48.40417" lon="2.68262">
        <ele>69.832885742188</ele>
        <time>2012-03-25T09:59:36Z</time>
      </trkpt>
    </trkseg>
  </trk>
</gpx>